[[{"header":{"parameterUnit":"m.s-1","parameterCategory":1,"la1":31.0,"la2":29.5877,"lo1":-88.7671,"lo2":-86.6584,"dy":0.0162,"dx":0.0185,"nx":115,"ny":88,"refTime":"2023-03-18T06:00:00:Z","depth":0,"parameterNumber":2,"parameterNumberName":"U-component_of_WINDS"},"data":[0.0,0.0,0.0,0.0,0.0,0.0,0.0,0.0,0.0,0.0,0.0,0.0,0.0,0.0,0.0,0.0,0.0,0.0,0.0,0.0,0.0,0.0,0.0,0.0,0.0,0.0,0.0,0.0,0.0,0.0,0.0,0.0,0.0,0.0,0.0,0.0,0.0,0.0,0.0,0.0,0.0,0.0,0.0,0.0,0.0,0.0,0.0,0.0,0.0,0.0,0.0,0.0,0.0,0.0,0.0,0.0,0.0,0.0,0.0,0.0,0.0,0.0,0.0,0.0,0.0,0.0,0.0,0.0,0.0,0.0,0.0,0.0,0.0,0.0,0.0,0.0,0.0,0.0,0.0,0.0,0.0,0.0,0.0,0.0,0.0,0.0,0.0,0.0,0.0,0.0,0.0,0.0,0.0,0.0,0.0,0.0,0.0,0.0,0.0,0.0,0.0,0.0,0.0,0.0,0.0,0.0,0.0,0.0,0.0,0.0,0.0,0.0,0.0,0.0,0.0,0.0,0.0,0.0,0.0,0.0,0.0,0.0,0.0,0.0,0.0,0.0,0.0,0.0,0.0,0.0,0.0,0.0,0.0,0.0,0.0,0.0,0.0,0.0,0.0,0.0,0.0,0.0,0.0,0.0,0.0,0.0,0.0,0.0,0.0,0.0,0.0,0.0,0.0,0.0,0.0,0.0,0.0,0.0,0.0,0.0,0.0,0.0,0.0,0.0,0.0,0.0,0.0,0.0,0.0,0.0,0.0,0.0,0.0,0.0,0.0,0.0,0.0,0.0,0.0,0.0,0.0,0.0,0.0,0.0,0.0,0.0,0.0,0.0,0.0,0.0,0.0,0.0,0.0,0.0,0.0,0.0,0.0,0.0,0.0,0.0,0.0,0.0,0.0,0.0,0.0,0.0,0.0,0.0,0.0,0.0,0.0,0.0,0.0,0.0,0.0,0.0,0.0,0.0,0.0,0.0,0.0,0.0,0.0,0.0,0.0,0.0,0.0,0.0,0.0,0.0,0.0,0.0,0.0,0.0,0.0,0.0,0.0,0.0,0.0,0.0,0.0,0.0,0.0,0.0,0.0,0.0,0.0,0.0,0.0,0.0,0.0,0.0,0.0,0.0,0.0,0.0,0.0,0.0,0.0,0.0,0.0,0.0,0.0,0.0,0.0,0.0,0.0,0.0,0.0,0.0,0.0,0.0,0.0,0.0,0.0,0.0,0.0,0.0,0.0,0.0,0.0,0.0,0.0,0.0,0.0,0.0,0.0,0.0,0.0,0.0,0.0,0.0,0.0,0.0,0.0,0.0,0.0,0.0,0.0,0.0,0.0,0.0,0.0,0.0,0.0,0.0,0.0,0.0,0.0,0.0,0.0,0.0,0.0,0.0,0.0,0.0,0.0,0.0,0.0,0.0,0.0,0.0,0.0,0.0,0.0,0.0,0.0,0.0,0.0,0.0,0.0,0.0,0.0,0.0,0.0,0.0,0.0,0.0,0.0,0.0,0.0,0.0,0.0,0.0,0.0,0.0,0.0,0.0,0.0,0.0,0.0,0.0,0.0,0.0,0.0,0.0,0.0,0.0,0.0,0.0,0.0,0.0,0.0,0.0,0.0,0.0,0.0,0.0,0.0,0.0,0.0,0.0,0.0,0.0,0.0,0.0,0.0,0.0,0.0,0.0,0.0,0.0,0.0,0.0,0.0,0.0,0.0,0.0,0.0,0.0,0.0,0.0,0.0,0.0,0.0,0.0,0.0,0.0,0.0,0.0,0.0,0.0,0.0,0.0,0.0,0.0,0.0,0.0,0.0,0.0,0.0,0.0,0.0,0.0,0.0,0.0,0.0,0.0,0.0,0.0,0.0,0.0,0.0,0.0,0.0,0.0,0.0,0.0,0.0,0.0,0.0,0.0,0.0,0.0,0.0,0.0,0.0,0.0,0.0,0.0,0.0,0.0,0.0,0.0,0.0,0.0,0.0,0.0,0.0,0.0,0.0,0.0,0.0,0.0,0.0,0.0,0.0,0.0,0.0,0.0,0.0,0.0,0.0,0.0,0.0,0.0,0.0,0.0,0.0,0.0,0.0,0.0,0.0,0.0,0.0,0.0,0.0,0.0,0.0,0.0,0.0,0.0,0.0,0.0,0.0,0.0,0.0,0.0,0.0,0.0,0.0,0.0,0.0,0.0,0.0,0.0,0.0,0.0,0.0,0.0,0.0,0.0,0.0,0.0,0.0,0.0,0.0,0.0,0.0,0.0,0.0,0.0,0.0,0.0,0.0,0.0,0.0,0.0,0.0,0.0,0.0,0.0,0.0,0.0,0.0,0.0,0.0,0.0,0.0,0.0,0.0,0.0,0.0,0.0,0.0,0.0,0.0,0.0,0.0,0.0,0.0,0.0,0.0,0.0,0.0,0.0,0.0,0.0,0.0,0.0,0.0,0.0,0.0,0.0,0.0,0.0,0.0,0.0,0.0,0.0,0.0,0.0,0.0,0.0,0.0,0.0,0.0,0.0,0.0,0.0,0.0,0.0,0.0,0.0,0.0,0.0,0.0,0.0,0.0,0.0,0.0,0.0,0.0,0.0,0.0,0.0,0.0,0.0,0.0,0.0,0.0,0.0,0.0,0.0,0.0,0.0,0.0,0.0,0.0,0.0,0.0,0.0,0.0,0.0,0.0,0.0,0.0,0.0,0.0,0.0,0.0,0.0,0.0,0.0,0.0,0.0,0.0,0.0,0.0,0.0,0.0,0.0,0.0,0.0,0.0,0.0,0.0,0.0,0.0,0.0,0.0,0.0,0.0,0.0,0.0,0.0,0.0,0.0,0.0,0.0,0.0,0.0,0.0,0.0,0.0,0.0,0.0,0.0,0.0,0.0,0.0,0.0,0.0,0.0,0.0,0.0,0.0,0.0,0.0,0.0,0.0,0.0,0.0,0.0,0.0,0.0,0.0,0.0,0.0,0.0,0.0,0.0,0.0,0.0,0.0,0.0,0.0,0.0,0.0,0.0,0.0,0.0,0.0,0.0,0.0,0.0,0.0,0.0,0.0,0.0,0.0,0.0,0.0,0.0,0.0,0.0,0.0,0.0,0.0,0.0,0.0,0.0,0.0,0.0,0.0,0.0,0.0,0.0,0.0,0.0,0.0,0.0,0.0,0.0,0.0,0.0,0.0,0.0,0.0,0.0,0.0,0.0,0.0,0.0,0.0,0.0,0.0,0.0,0.0,0.0,0.0,0.0,0.0,0.0,0.0,0.0,0.0,0.0,0.0,0.0,0.0,0.0,0.0,0.0,0.0,0.0,0.0,0.0,0.0,0.0,0.0,0.0,0.0,0.0,0.0,0.0,0.0,0.0,0.0,0.0,0.0,0.0,0.0,0.0,0.0,0.0,0.0,0.0,0.0,0.0,0.0,0.0,0.0,0.0,0.0,0.0,0.0,0.0,0.0,0.0,0.0,0.0,0.0,0.0,0.0,0.0,0.0,0.0,0.0,0.0,0.0,0.0,0.0,0.0,0.0,0.0,0.0,0.0,0.0,0.0,0.0,0.0,0.0,0.0,0.0,0.0,0.0,0.0,0.0,0.0,0.0,0.0,0.0,0.0,0.0,0.0,0.0,0.0,0.0,0.0,0.0,0.0,0.0,0.0,0.0,0.0,0.0,0.0,0.0,0.0,0.0,0.0,0.0,0.0,0.0,0.0,0.0,0.0,0.0,0.0,0.0,0.0,0.0,0.0,0.0,0.0,0.0,0.0,0.0,0.0,0.0,0.0,0.0,0.0,0.0,0.0,0.0,0.0,0.0,0.0,0.0,0.0,0.0,0.0,0.0,0.0,0.0,0.0,0.0,0.0,0.0,0.0,0.0,0.0,0.0,0.0,0.0,0.0,0.0,0.0,0.0,0.0,0.0,0.0,0.0,0.0,0.0,0.0,0.0,0.0,0.0,0.0,0.0,0.0,0.0,0.0,0.0,0.0,0.0,0.0,0.0,0.0,0.0,0.0,0.0,0.0,0.0,0.0,0.0,0.0,0.0,0.0,0.0,0.0,0.0,0.0,0.0,0.0,0.0,0.0,0.0,0.0,0.0,0.0,0.0,0.0,0.0,0.0,0.0,0.0,0.0,0.0,0.0,0.0,0.0,0.0,0.0,0.0,0.0,0.0,0.0,0.0,0.0,0.0,0.0,0.0,0.0,0.0,0.0,0.0,0.0,0.0,0.0,0.0,0.0,0.0,0.0,0.0,0.0,0.0,0.0,0.0,0.0,0.0,0.0,0.0,0.9981,0.0,0.0,0.0,0.0,0.0,0.0,0.0,0.0,0.0,0.0,0.0,0.0,0.0,0.0,0.0,0.0,0.0,0.0,0.0,0.0,0.0,0.0,0.0,0.0,0.0,0.0,0.0,0.0,0.0,0.0,0.0,0.0,0.0,0.0,0.0,0.0,0.0,0.0,0.0,0.0,0.0,0.0,0.0,0.0,0.0,0.0,0.0,0.0,0.0,0.0,0.0,0.0,0.0,0.0,0.0,0.0,0.0,0.0,0.0,0.0,0.0,0.0,0.0,0.0,0.0,0.0,0.0,0.0,0.0,0.0,0.0,0.0,0.0,0.0,0.0,0.0,0.0,0.0,0.0,0.0,0.0,0.0,0.0,0.0,0.0,0.0,0.0,0.0,0.0,0.0,0.0,0.0,0.0,0.0,0.0,0.0,0.0,0.0,0.0,0.0,0.0,0.0,0.0,0.0,0.0,0.0,0.0,0.0,0.0,0.0,0.9691,0.9877,0.9858,0.9839,0.9833,0.0,0.0,0.0,0.0,0.0,0.0,0.0,0.0,0.0,0.0,0.0,0.0,0.0,0.0,0.0,0.0,0.0,0.0,0.0,0.0,0.0,0.0,0.0,0.0,0.0,0.0,0.0,0.0,0.0,0.0,0.0,0.0,0.0,0.0,0.0,0.0,0.0,0.0,0.0,0.0,0.0,0.0,0.0,0.0,0.0,0.0,0.0,0.0,0.0,0.0,0.0,0.0,0.0,0.0,0.0,0.0,0.0,0.0,0.0,0.0,0.0,0.0,0.0,0.0,0.0,0.0,0.0,0.0,0.0,0.0,0.0,0.0,0.0,0.0,0.0,0.0,0.0,0.0,0.0,0.0,0.0,0.0,0.0,0.0,0.0,0.0,0.0,0.0,0.0,0.0,0.0,0.0,0.0,0.0,0.0,0.0,0.0,0.0,0.0,0.0,0.0,0.0,0.0,0.0,0.0,0.0,0.0,0.0,0.0,0.0,0.0,0.0,1.0079,0.9931,0.9625,0.0,0.0,0.0,0.0,0.0,0.0,0.0,0.0,0.0,0.0,0.0,0.0,0.0,0.0,0.0,0.0,0.0,0.0,0.0,0.0,0.0,0.0,0.0,0.0,0.0,0.0,0.0,0.0,0.0,0.0,0.0,0.0,0.0,0.0,0.0,0.0,0.0,0.0,0.0,0.0,0.0,0.0,0.0,0.0,0.0,0.0,0.0,0.0,0.0,0.0,0.0,0.0,0.0,0.0,0.0,0.0,0.0,0.0,0.0,0.0,0.0,0.0,0.0,0.0,0.0,0.0,0.0,0.0,0.0,0.0,0.0,0.0,0.0,0.0,0.0,0.0,0.0,0.0,0.0,0.0,0.0,0.0,0.0,0.0,0.0,0.0,0.0,0.0,0.0,0.0,0.0,0.0,0.0,0.0,0.0,0.0,0.0,0.0,0.0,0.0,0.0,0.0,0.0,0.0,0.0,0.0,0.0,0.0,0.0,0.0,1.0186,1.0098,1.0039,0.0,0.9358,0.0,0.0,0.0,0.0,0.0,0.0,0.0,0.0,0.0,0.0,0.0,0.0,0.0,0.0,0.0,0.0,0.0,0.0,0.0,0.0,0.0,0.0,0.0,0.0,0.0,0.0,0.0,0.0,0.0,0.0,0.0,0.0,0.0,0.0,0.0,0.0,0.0,0.0,0.0,0.0,0.0,0.0,0.0,0.0,0.0,0.0,0.0,0.0,0.0,0.0,0.0,0.0,0.0,0.0,0.0,0.0,0.0,0.0,0.0,0.0,0.0,0.0,0.0,0.0,0.0,0.0,0.0,0.0,0.0,0.0,0.0,0.0,0.0,0.0,0.0,0.0,0.0,0.0,0.0,0.0,0.0,0.0,0.0,0.0,0.0,0.0,0.0,0.0,0.0,0.0,0.0,0.0,0.0,0.0,0.0,0.0,0.0,0.0,0.0,0.0,0.0,0.0,0.0,0.0,0.0,0.0,0.0,0.0,0.0,0.0,1.0157,1.0049,0.9745,0.9497,0.0,0.0,0.0,0.0,0.0,0.0,0.0,0.0,0.0,0.0,0.0,0.0,0.0,0.0,0.0,0.0,0.0,0.0,0.0,0.0,0.0,0.0,0.0,0.0,0.0,0.0,0.0,0.0,0.0,0.0,0.0,0.0,0.0,0.0,0.0,0.0,0.0,0.0,0.0,0.0,0.0,0.0,0.0,0.0,0.0,0.0,0.0,0.0,0.0,0.0,0.0,0.0,0.0,0.0,0.0,0.0,0.0,0.0,0.0,0.0,0.0,0.0,0.0,0.0,0.0,0.0,0.0,0.0,0.0,0.0,0.0,0.0,0.0,0.0,0.0,0.0,0.0,0.0,0.0,0.0,0.0,0.0,0.0,0.0,0.0,0.0,0.0,0.0,0.0,0.0,0.0,0.0,0.0,0.0,0.0,0.0,0.0,0.0,0.0,0.0,0.0,0.0,0.0,0.0,0.0,0.0,0.0,0.0,0.0,0.0,1.0263,1.0211,1.0081,0.967,0.9404,0.9278,0.0,0.0,0.0,0.0,0.0,0.0,0.0,0.0,0.0,0.0,0.0,0.0,0.0,0.0,0.0,0.0,0.0,0.0,0.0,0.0,0.0,0.0,0.0,0.0,0.0,0.0,0.0,0.0,0.0,0.0,0.0,0.0,0.0,0.0,0.0,0.0,0.0,0.0,0.0,0.0,0.0,0.0,0.0,0.0,0.0,0.0,0.0,0.0,0.0,0.0,0.0,0.0,0.0,0.0,0.0,0.0,0.0,0.0,0.0,0.0,0.0,0.0,0.0,0.0,0.0,0.0,0.0,0.0,0.0,0.0,0.0,0.0,0.0,0.0,0.0,0.0,0.0,0.0,0.0,0.0,0.0,0.0,0.0,0.0,0.0,0.0,0.0,0.0,0.0,0.0,0.0,0.0,0.0,0.0,0.0,0.0,0.0,0.0,0.0,0.0,0.0,0.0,0.0,0.0,0.0,0.0,0.0,0.0,1.0127,1.0462,1.0538,1.0304,1.0019,0.9673,0.0,0.0,0.0,0.0,0.0,0.0,0.0,0.0,0.0,0.0,0.0,0.0,0.0,0.0,0.0,0.0,0.0,0.0,0.0,0.0,0.0,0.0,0.0,0.0,0.0,0.0,0.0,0.0,0.0,0.0,0.0,0.0,0.0,0.0,0.0,0.0,0.0,0.0,0.0,0.0,0.0,0.0,0.0,0.0,0.0,0.0,0.0,0.0,0.0,0.0,0.0,0.0,0.0,0.0,0.0,0.0,0.0,0.0,0.0,0.0,0.0,0.0,0.0,0.0,0.0,0.0,0.0,0.0,0.0,0.0,0.0,0.0,0.0,0.0,0.0,0.0,0.0,0.0,0.0,0.0,0.0,0.0,0.0,0.0,0.0,0.0,0.0,0.0,0.0,0.0,0.0,0.0,0.0,0.0,0.0,0.0,0.0,0.0,0.0,0.0,0.0,0.0,0.0,0.0,0.0,0.0,0.0,0.0,0.0,1.0439,1.0659,1.0666,1.0418,1.0242,0.9957,0.0,0.0,0.0,0.0,0.0,0.0,0.0,0.0,0.0,0.0,0.0,0.0,0.0,0.0,0.0,0.0,0.0,0.0,0.0,0.0,0.0,0.0,0.0,0.0,0.0,0.0,0.0,0.0,0.0,0.0,0.0,0.0,0.0,0.0,0.0,0.0,0.0,0.0,0.0,0.0,0.0,0.0,0.0,0.0,0.0,0.0,0.0,0.0,0.0,0.0,0.0,0.0,0.0,0.0,0.0,0.0,0.0,0.0,0.0,0.0,0.0,0.0,0.0,0.0,0.0,0.0,0.0,0.0,0.0,0.0,0.0,0.0,0.0,0.0,0.0,0.0,0.0,0.0,0.0,0.0,0.0,0.0,0.0,0.0,0.0,0.0,0.0,0.0,0.0,0.0,0.0,0.0,0.0,0.0,0.0,0.0,0.0,0.0,0.0,0.0,0.0,0.0,0.0,0.0,0.0,0.0,0.0,0.0,0.0,1.0873,0.0,1.0814,1.0636,1.0533,1.0284,0.0,0.0,0.0,0.0,0.0,0.0,0.0,0.0,0.0,0.0,0.0,0.0,0.0,0.0,0.0,0.0,0.0,0.0,0.0,0.0,0.0,0.0,0.0,0.0,0.0,0.0,0.0,0.0,0.0,0.0,0.0,0.0,0.0,0.0,0.0,0.0,0.0,0.0,0.0,0.0,0.0,0.0,0.0,0.0,0.0,0.0,0.0,0.0,0.0,0.0,0.0,0.0,0.0,0.0,0.0,0.0,0.0,0.0,0.0,0.0,0.0,0.0,0.0,0.0,0.0,0.0,0.0,0.0,0.0,0.0,0.0,0.0,0.0,0.0,0.0,0.0,0.0,0.0,0.0,0.0,0.0,0.0,0.0,0.0,0.0,0.0,0.0,0.0,0.0,0.0,0.0,0.0,0.0,0.0,0.0,0.0,0.0,0.0,0.0,0.0,0.0,0.0,0.0,0.0,0.0,0.0,0.0,0.0,1.1412,1.1385,1.1226,1.1077,1.0916,1.0916,1.0666,0.0,0.0,0.0,0.0,0.0,0.0,0.0,0.0,0.0,0.0,0.0,0.0,0.0,0.0,0.0,0.0,0.0,0.0,0.0,0.0,0.0,0.0,0.0,0.0,0.0,0.0,0.0,0.0,0.0,0.0,0.0,0.0,0.0,0.0,0.0,0.0,0.0,0.0,0.0,0.0,0.0,0.0,0.0,0.0,0.0,0.0,0.0,0.0,0.0,0.0,0.0,0.0,0.0,0.0,0.0,0.0,0.0,0.0,0.0,0.0,0.0,0.0,0.0,0.0,0.0,0.0,0.0,0.0,0.0,0.0,0.0,0.0,0.0,0.0,0.0,0.0,0.0,0.0,0.0,0.0,0.0,0.0,0.0,0.0,0.0,0.0,0.0,0.0,0.0,0.0,0.0,0.0,0.0,0.0,0.0,0.0,0.0,0.0,0.0,0.0,0.0,0.0,0.0,0.0,0.0,0.0,0.0,0.0,0.0,1.1479,1.1763,1.1687,1.12,1.1535,1.1337,0.0,0.0,0.0,0.0,0.0,0.0,0.0,0.0,0.0,0.0,0.0,0.0,0.0,0.0,0.0,0.0,0.0,0.0,0.0,0.0,0.0,0.0,0.0,0.0,0.0,0.0,0.0,0.0,0.0,0.0,0.0,0.0,0.0,0.0,0.0,0.0,0.0,0.0,0.0,0.0,0.0,0.0,0.0,0.0,0.0,0.0,0.0,0.0,0.0,0.0,0.0,0.0,0.0,0.0,0.0,0.0,0.0,0.0,0.0,0.0,0.0,0.0,0.0,0.0,0.0,0.0,0.0,0.0,0.0,0.0,0.0,0.0,0.0,0.0,0.0,0.0,0.0,0.0,0.0,0.0,0.0,0.0,0.0,0.0,0.0,0.0,0.0,0.0,0.0,0.0,0.0,0.0,0.0,0.0,0.0,0.0,0.0,0.0,0.0,0.0,0.0,0.0,0.0,0.0,0.0,0.0,0.0,0.0,0.0,1.2751,1.2828,1.2658,1.225,1.2365,1.207,1.1269,0.0,0.0,0.0,0.0,0.0,0.0,0.0,0.0,0.0,0.0,0.0,0.0,0.0,0.0,0.0,0.0,0.0,0.0,0.0,0.0,0.0,0.0,0.0,0.0,0.0,0.0,0.0,0.0,0.0,0.0,0.0,0.0,0.0,0.0,0.0,0.0,0.0,0.0,0.0,0.0,0.0,0.0,0.0,0.0,0.0,0.0,0.0,0.0,0.0,0.0,0.0,0.0,0.0,0.0,0.0,0.0,0.0,0.0,0.0,0.0,0.0,0.0,0.0,0.0,0.0,0.0,0.0,0.0,0.0,0.0,0.0,0.0,0.0,0.0,0.0,0.0,0.0,0.0,0.0,0.0,0.0,0.0,0.0,0.0,0.0,0.0,0.0,0.0,0.0,0.0,0.0,0.0,0.0,0.0,0.0,0.0,0.0,0.0,0.0,0.0,0.0,0.0,0.0,0.0,0.0,0.0,0.0,0.0,1.4914,1.4387,1.4041,1.387,1.3393,1.2801,0.0,0.0,0.0,0.0,0.0,0.0,0.0,0.0,0.0,0.0,0.0,0.0,0.0,0.0,0.0,0.0,0.0,0.0,0.0,0.0,0.0,0.0,0.0,0.0,0.0,0.0,0.0,0.0,0.0,0.0,0.0,0.0,0.0,0.0,0.0,0.0,0.0,0.0,0.0,0.0,0.0,0.0,0.0,0.0,0.0,0.0,0.0,0.0,0.0,0.0,0.0,0.0,0.0,0.0,0.0,0.0,0.0,0.0,0.0,0.0,0.0,0.0,0.0,0.0,0.0,0.0,0.0,0.0,0.0,0.0,0.0,0.0,0.0,0.0,0.0,0.0,0.0,0.0,0.0,0.0,0.0,0.0,0.0,0.0,0.0,0.0,0.0,0.0,0.0,0.0,0.0,0.0,0.0,0.0,0.0,0.0,0.0,0.0,0.0,0.0,0.0,0.0,0.0,0.0,0.0,0.0,0.0,0.0,0.0,1.6609,1.7328,1.6817,1.4991,1.4626,1.3907,0.0,0.0,0.0,0.0,0.0,0.0,0.0,0.0,0.0,0.0,0.0,0.0,0.0,0.0,0.0,0.0,0.0,0.0,0.0,0.0,0.0,0.0,0.0,0.0,0.0,0.0,0.0,0.0,0.0,0.0,0.0,0.0,0.0,0.0,0.0,0.0,0.0,0.0,0.0,0.0,0.0,0.0,0.0,0.0,0.0,0.0,0.0,0.0,0.0,0.0,0.0,0.0,0.0,0.0,0.0,0.0,0.0,0.0,0.0,0.0,0.0,0.0,0.0,0.0,0.0,0.0,0.0,0.0,0.0,0.0,0.0,0.0,0.0,0.0,0.0,0.0,0.0,0.0,0.0,0.0,0.0,0.0,0.0,0.0,0.0,0.0,0.0,0.0,0.0,0.0,0.0,0.0,0.0,0.0,0.0,0.0,0.0,0.0,0.0,0.0,0.0,0.0,0.0,0.0,0.0,0.0,0.0,0.0,1.6498,1.8092,1.9332,1.9272,1.7813,1.662,1.5294,0.0,0.0,0.0,0.0,0.0,0.0,0.0,0.0,0.0,0.0,0.0,0.0,0.0,0.0,0.0,0.0,0.0,0.0,0.0,0.0,0.0,0.0,0.0,0.0,0.0,0.0,0.0,0.0,0.0,0.0,0.0,0.0,0.0,0.0,0.0,0.0,0.0,0.0,0.0,0.0,0.0,0.0,0.0,0.0,0.0,0.0,0.0,0.0,0.0,0.0,0.0,0.0,0.0,0.0,0.0,0.0,0.0,0.0,0.0,0.0,0.0,0.0,0.0,0.0,0.0,0.0,0.0,0.0,0.0,0.0,0.0,0.0,0.0,0.0,0.0,0.0,0.0,0.0,0.0,0.0,0.0,0.0,0.0,0.0,0.0,0.0,0.0,0.0,0.0,0.0,0.0,0.0,0.0,0.0,0.0,0.0,0.0,0.0,0.0,0.0,0.0,0.0,0.0,0.0,0.0,0.0,0.0,0.0,1.7536,1.9354,2.0641,2.1347,2.1268,1.8802,1.6721,0.0,0.0,0.0,0.0,0.0,0.0,0.0,0.0,0.0,0.0,0.0,0.0,0.0,0.0,0.0,0.0,0.0,0.0,0.0,0.0,0.0,0.0,0.0,0.0,0.0,0.0,0.0,0.0,0.0,0.0,0.0,0.0,0.0,0.0,0.0,0.0,0.0,0.0,0.0,0.0,0.0,0.0,0.0,0.0,0.0,0.0,0.0,0.0,0.0,0.0,0.0,0.0,0.0,0.0,0.0,0.0,0.0,0.0,0.0,0.0,0.0,0.0,0.0,0.0,0.0,0.0,0.0,0.0,0.0,0.0,0.0,0.0,0.0,0.0,0.0,0.0,0.0,0.0,0.0,0.0,0.0,0.0,0.0,0.0,0.0,0.0,0.0,0.0,0.0,0.0,0.0,0.0,0.0,0.0,0.0,0.0,0.0,0.0,0.0,0.0,0.0,0.0,0.0,0.0,0.0,0.0,0.0,0.0,1.8432,2.0483,2.1633,2.2225,2.2206,1.964,1.7576,0.0,0.0,0.0,0.0,0.0,0.0,0.0,0.0,0.0,0.0,0.0,0.0,0.0,0.0,0.0,0.0,0.0,0.0,0.0,0.0,0.0,0.0,0.0,0.0,0.0,0.0,0.0,0.0,0.0,0.0,0.0,0.0,0.0,0.0,0.0,0.0,0.0,0.0,0.0,0.0,0.0,0.0,0.0,0.0,0.0,0.0,0.0,0.0,1.6452,0.0,0.0,0.0,0.0,0.0,0.0,0.0,0.0,0.0,0.0,0.0,0.0,0.0,0.0,0.0,0.0,0.0,0.0,0.0,0.0,0.0,0.0,0.0,0.0,0.0,0.0,0.0,0.0,0.0,0.0,0.0,0.0,0.0,0.0,0.0,0.0,0.0,0.0,0.0,0.0,0.0,0.0,0.0,0.0,0.0,0.0,0.0,0.0,0.0,0.0,0.0,0.0,0.0,0.0,0.0,0.0,0.0,0.0,0.0,1.9127,2.0851,2.2139,2.2791,2.2691,2.0734,1.8807,0.0,0.0,0.0,0.0,0.0,0.0,0.0,0.0,0.0,0.0,0.0,0.0,0.0,0.0,0.0,0.0,0.0,0.0,0.0,0.0,0.0,0.0,0.0,0.0,0.0,0.0,0.0,0.0,0.0,0.0,0.0,0.0,0.0,0.0,0.0,0.0,0.0,0.0,0.0,0.0,0.0,0.0,0.0,0.0,0.0,0.0,0.0,0.0,0.0,0.0,0.0,0.0,0.0,0.0,0.0,0.0,0.0,0.0,0.0,0.0,0.0,0.0,0.0,0.0,0.0,0.0,0.0,0.0,0.0,0.0,0.0,0.0,0.0,0.0,0.0,0.0,0.0,0.0,0.0,0.0,0.0,0.0,0.0,0.0,0.0,0.0,0.0,0.0,0.0,0.0,0.0,0.0,0.0,0.0,0.0,0.0,0.0,0.0,0.0,0.0,0.0,0.0,0.0,0.0,0.0,0.0,0.0,1.7916,1.9673,2.1103,2.2432,2.3101,2.3062,2.1687,1.9925,1.7951,0.0,0.0,0.0,0.0,0.0,0.0,0.0,0.0,0.0,0.0,0.0,0.0,0.0,0.0,0.0,0.0,0.0,0.0,0.0,0.0,0.0,0.0,0.0,0.0,0.0,0.0,0.0,0.0,0.0,0.0,0.0,0.0,0.0,0.0,0.0,0.0,0.0,0.0,1.6738,1.7128,0.0,0.0,0.0,0.0,0.0,0.0,0.0,0.0,1.7422,0.0,0.0,0.0,0.0,0.0,0.0,0.0,0.0,0.0,0.0,0.0,0.0,0.0,0.0,0.0,0.0,0.0,0.0,0.0,0.0,0.0,0.0,0.0,0.0,0.0,0.0,0.0,0.0,0.0,0.0,0.0,0.0,0.0,0.0,0.0,0.0,0.0,0.0,0.0,0.0,0.0,0.0,0.0,0.0,0.0,0.0,0.0,0.0,0.0,0.0,0.0,0.0,0.0,0.0,0.0,0.0,1.7342,1.8527,2.0134,2.2181,2.2808,2.3101,2.3062,2.1687,2.0211,1.875,0.0,0.0,0.0,0.0,0.0,0.0,0.0,0.0,0.0,0.0,0.0,0.0,0.0,0.0,0.0,0.0,0.0,0.0,0.0,0.0,0.0,0.0,0.0,0.0,0.0,0.0,0.0,0.0,0.0,0.0,0.0,0.0,0.0,0.0,0.0,0.0,0.0,0.0,0.0,1.7309,1.7459,0.0,0.0,0.0,0.0,0.0,0.0,0.0,0.0,1.7608,0.0,0.0,0.0,0.0,0.0,0.0,0.0,0.0,0.0,0.0,0.0,0.0,0.0,0.0,0.0,0.0,0.0,0.0,0.0,0.0,0.0,0.0,0.0,0.0,0.0,0.0,0.0,0.0,0.0,0.0,0.0,0.0,0.0,0.0,0.0,0.0,0.0,0.0,0.0,0.0,0.0,0.0,0.0,0.0,0.0,0.0,0.0,0.0,0.0,0.0,0.0,0.0,0.0,0.0,0.0,1.7916,1.9071,2.0539,2.2418,2.2886,2.3101,2.3081,2.1881,2.0572,0.0,0.0,0.0,0.0,0.0,0.0,0.0,0.0,0.0,0.0,0.0,0.0,0.0,0.0,0.0,0.0,0.0,0.0,0.0,0.0,0.0,0.0,0.0,0.0,0.0,0.0,0.0,0.0,0.0,0.0,0.0,0.0,0.0,0.0,0.0,0.0,0.0,0.0,0.0,0.0,1.8008,1.8,1.8431,0.0,0.0,0.0,0.0,0.0,0.0,1.7914,1.7829,0.0,0.0,0.0,0.0,0.0,0.0,0.0,0.0,0.0,0.0,0.0,0.0,0.0,0.0,0.0,0.0,0.0,0.0,0.0,0.0,0.0,0.0,0.0,0.0,0.0,0.0,0.0,0.0,0.0,0.0,0.0,0.0,0.0,0.0,0.0,0.0,0.0,0.0,0.0,0.0,0.0,0.0,0.0,0.0,0.0,0.0,0.0,0.0,0.0,0.0,0.0,0.0,0.0,0.0,0.0,1.8378,1.9581,2.0965,2.2535,2.2947,2.3101,2.3081,2.2051,2.0816,0.0,0.0,0.0,0.0,0.0,0.0,0.0,0.0,0.0,0.0,0.0,0.0,0.0,0.0,0.0,0.0,0.0,0.0,0.0,0.0,0.0,0.0,0.0,0.0,0.0,0.0,0.0,0.0,0.0,0.0,0.0,0.0,0.0,0.0,0.0,0.0,0.0,0.0,0.0,0.0,0.0,1.8676,1.8859,1.8563,0.0,0.0,0.0,0.0,1.8379,1.8411,0.0,0.0,0.0,0.0,0.0,0.0,0.0,0.0,0.0,0.0,0.0,0.0,0.0,0.0,0.0,0.0,0.0,0.0,0.0,0.0,0.0,0.0,0.0,0.0,0.0,0.0,0.0,0.0,0.0,0.0,0.0,0.0,0.0,0.0,0.0,0.0,0.0,0.0,0.0,0.0,0.0,0.0,0.0,0.0,0.0,0.0,0.0,0.0,0.0,0.0,0.0,0.0,0.0,0.0,0.0,0.0,1.8786,2.0133,2.1531,2.2945,2.3062,2.3101,2.3081,2.1903,2.0693,0.0,0.0,0.0,0.0,0.0,0.0,0.0,0.0,0.0,0.0,0.0,0.0,0.0,0.0,0.0,0.0,0.0,0.0,0.0,0.0,0.0,0.0,0.0,0.0,0.0,0.0,0.0,0.0,0.0,0.0,0.0,0.0,0.0,0.0,0.0,0.0,0.0,0.0,0.0,0.0,0.0,1.8986,1.9143,1.9109,1.8906,0.0,0.0,1.9049,1.8707,1.9462,0.0,0.0,0.0,0.0,0.0,0.0,0.0,0.0,0.0,0.0,0.0,0.0,0.0,0.0,0.0,0.0,0.0,0.0,0.0,0.0,0.0,0.0,0.0,0.0,0.0,0.0,0.0,0.0,0.0,0.0,0.0,0.0,0.0,0.0,0.0,0.0,0.0,0.0,0.0,0.0,0.0,0.0,0.0,0.0,0.0,0.0,0.0,0.0,0.0,0.0,0.0,0.0,0.0,0.0,0.0,1.6901,1.8059,1.9364,2.0717,2.2019,2.2076,2.2312,2.275,2.1748,2.065,0.0,0.0,0.0,0.0,0.0,0.0,0.0,0.0,0.0,0.0,0.0,0.0,0.0,0.0,0.0,0.0,0.0,0.0,0.0,0.0,0.0,0.0,0.0,0.0,0.0,0.0,0.0,0.0,0.0,0.0,0.0,0.0,0.0,0.0,0.0,0.0,0.0,0.0,0.0,0.0,0.0,0.0,1.9368,1.9599,0.0,0.0,0.0,1.9544,1.9692,0.0,0.0,0.0,0.0,0.0,0.0,0.0,0.0,0.0,0.0,0.0,0.0,0.0,0.0,0.0,0.0,0.0,0.0,0.0,0.0,0.0,0.0,0.0,0.0,0.0,0.0,0.0,0.0,0.0,0.0,0.0,0.0,0.0,0.0,0.0,0.0,0.0,0.0,0.0,0.0,0.0,0.0,0.0,0.0,0.0,0.0,0.0,0.0,0.0,0.0,0.0,0.0,0.0,0.0,0.0,0.0,0.0,1.7409,1.8556,1.9692,2.0801,2.0836,2.1268,2.2143,2.1311,0.0,0.0,0.0,0.0,0.0,0.0,0.0,0.0,0.0,0.0,0.0,0.0,0.0,0.0,0.0,0.0,0.0,0.0,0.0,0.0,0.0,0.0,0.0,0.0,0.0,0.0,0.0,1.7448,0.0,0.0,0.0,0.0,0.0,0.0,0.0,0.0,0.0,0.0,0.0,0.0,0.0,0.0,1.9877,1.9839,2.0232,2.0422,0.0,0.0,2.0164,2.069,2.0857,2.0858,0.0,0.0,0.0,0.0,0.0,0.0,0.0,0.0,0.0,0.0,0.0,0.0,0.0,0.0,0.0,0.0,0.0,0.0,0.0,0.0,0.0,0.0,0.0,0.0,0.0,0.0,0.0,0.0,0.0,0.0,0.0,0.0,0.0,0.0,0.0,0.0,0.0,0.0,0.0,0.0,0.0,0.0,0.0,0.0,0.0,0.0,0.0,0.0,0.0,0.0,0.0,0.0,0.0,0.0,0.0,1.7462,1.8128,1.8847,1.96,1.961,2.0184,2.1314,2.0354,1.9865,0.0,0.0,0.0,0.0,0.0,0.0,0.0,0.0,0.0,0.0,0.0,0.0,0.0,0.0,0.0,0.0,0.0,0.0,0.0,0.0,0.0,0.0,0.0,0.0,0.0,0.0,0.0,0.0,0.0,0.0,0.0,0.0,0.0,0.0,0.0,0.0,0.0,0.0,0.0,0.0,0.0,2.0639,2.0698,2.1115,2.1412,0.0,0.0,2.1372,2.1432,2.2254,2.234,2.0781,0.0,0.0,0.0,0.0,0.0,0.0,0.0,0.0,0.0,0.0,0.0,0.0,0.0,0.0,0.0,0.0,0.0,0.0,0.0,0.0,0.0,0.0,0.0,0.0,0.0,0.0,0.0,0.0,0.0,0.0,0.0,0.0,0.0,0.0,0.0,0.0,0.0,0.0,0.0,0.0,0.0,0.0,0.0,0.0,0.0,0.0,0.0,0.0,0.0,0.0,0.0,0.0,0.0,1.5714,1.604,1.685,1.7643,1.838,1.9131,1.9946,2.0897,2.0866,2.0613,0.0,0.0,0.0,0.0,0.0,0.0,0.0,0.0,0.0,0.0,0.0,0.0,0.0,0.0,0.0,0.0,0.0,0.0,0.0,0.0,0.0,0.0,0.0,0.0,0.0,0.0,0.0,0.0,1.8802,1.9208,1.8945,0.0,0.0,0.0,0.0,0.0,0.0,0.0,0.0,0.0,0.0,2.097,2.1194,2.1745,0.0,0.0,2.1959,2.2094,2.1948,2.202,2.1837,2.1058,2.035,0.0,0.0,0.0,0.0,0.0,0.0,0.0,0.0,0.0,0.0,0.0,0.0,0.0,0.0,0.0,0.0,0.0,0.0,0.0,0.0,0.0,0.0,0.0,0.0,0.0,0.0,0.0,0.0,0.0,0.0,0.0,0.0,0.0,0.0,0.0,0.0,0.0,0.0,0.0,0.0,0.0,0.0,0.0,0.0,0.0,0.0,0.0,0.0,0.0,0.0,0.0,0.0,1.5213,1.5089,1.5844,1.6551,1.7109,1.7971,1.9001,2.0272,2.0594,2.0673,0.0,0.0,0.0,0.0,0.0,0.0,0.0,0.0,0.0,0.0,0.0,0.0,0.0,0.0,0.0,0.0,0.0,0.0,0.0,0.0,0.0,0.0,0.0,0.0,0.0,0.0,0.0,0.0,1.9052,1.917,1.8097,0.0,0.0,0.0,0.0,0.0,0.0,0.0,0.0,0.0,0.0,2.1293,2.1645,2.2108,2.2312,2.2074,2.2169,2.226,2.2179,2.1795,2.1467,2.132,0.0,0.0,0.0,0.0,0.0,0.0,0.0,0.0,0.0,0.0,0.0,0.0,0.0,0.0,0.0,0.0,0.0,0.0,0.0,0.0,0.0,0.0,0.0,0.0,0.0,0.0,0.0,0.0,0.0,0.0,0.0,0.0,0.0,0.0,0.0,0.0,0.0,0.0,0.0,0.0,0.0,0.0,0.0,0.0,0.0,0.0,0.0,0.0,0.0,0.0,0.0,0.0,0.0,1.4384,1.4995,1.5299,1.5571,1.5866,1.5903,1.7133,1.9395,1.9178,1.9661,2.1091,0.0,0.0,0.0,0.0,0.0,0.0,0.0,0.0,0.0,0.0,0.0,0.0,0.0,0.0,0.0,0.0,0.0,0.0,0.0,0.0,0.0,0.0,0.0,0.0,0.0,0.0,1.8327,1.8775,1.8521,0.0,0.0,0.0,0.0,0.0,0.0,0.0,0.0,0.0,0.0,2.1076,2.1645,2.2088,2.22,2.2246,2.2372,2.206,2.1881,2.2079,2.1758,2.1478,0.0,0.0,0.0,0.0,0.0,0.0,0.0,0.0,0.0,0.0,0.0,0.0,0.0,0.0,0.0,0.0,0.0,0.0,0.0,0.0,0.0,0.0,0.0,0.0,0.0,0.0,0.0,1.5169,1.5855,0.0,0.0,0.0,0.0,0.0,0.0,0.0,0.0,0.0,0.0,0.0,1.4466,1.4623,0.0,0.0,0.0,0.0,0.0,0.0,0.0,0.0,0.0,0.0,0.0,0.0,1.4414,1.4989,1.5259,1.5515,1.5818,1.6622,1.7451,1.8295,1.9463,2.044,2.1152,0.0,0.0,0.0,0.0,0.0,0.0,0.0,0.0,0.0,0.0,0.0,0.0,0.0,0.0,0.0,0.0,0.0,0.0,0.0,0.0,0.0,0.0,0.0,0.0,0.0,1.9179,0.0,0.0,0.0,0.0,0.0,0.0,0.0,0.0,0.0,0.0,0.0,2.0043,2.0865,2.1239,2.1544,2.1826,2.186,2.2004,0.0,0.0,0.0,0.0,0.0,0.0,0.0,0.0,0.0,0.0,0.0,0.0,0.0,0.0,2.1252,2.0617,2.0723,2.0874,2.0874,0.0,0.0,0.0,0.0,0.0,0.0,0.0,0.0,0.0,0.0,0.0,0.0,0.0,0.0,0.0,0.0,1.4901,0.0,0.0,0.0,0.0,0.0,0.0,0.0,0.0,1.4737,1.4874,1.4937,1.5068,1.5065,0.0,1.5119,1.501,0.0,0.0,0.0,0.0,0.0,0.0,0.0,0.0,1.4553,1.4916,1.5428,1.5752,1.5818,1.6734,1.7357,1.7707,1.9217,2.0361,2.1001,2.0423,2.0008,0.0,0.0,0.0,0.0,0.0,0.0,0.0,0.0,0.0,0.0,0.0,0.0,0.0,0.0,0.0,0.0,0.0,0.0,0.0,0.0,0.0,0.0,0.0,1.9332,0.0,0.0,0.0,0.0,0.0,0.0,0.0,0.0,0.0,1.9311,1.9938,2.0603,2.1095,2.139,2.1531,2.1458,0.0,0.0,0.0,0.0,0.0,0.0,0.0,2.1167,2.1331,2.1394,2.1606,2.2108,2.246,2.2622,2.2356,0.0,0.0,2.1484,2.145,2.157,2.161,2.1609,2.1686,2.1803,2.1781,2.1915,0.0,0.0,0.0,0.0,0.0,0.0,0.0,0.0,1.4963,1.518,0.0,1.5283,0.0,0.0,0.0,0.0,0.0,0.0,0.0,0.0,1.5052,1.5273,1.5681,1.5547,1.5431,1.5454,1.5467,1.532,1.5084,1.5001,0.0,0.0,0.0,0.0,0.0,0.0,1.472,1.4782,1.5774,1.6139,1.5861,1.6163,1.6766,1.7691,1.8401,1.9389,2.0616,2.0107,2.0208,2.1171,2.0091,0.0,0.0,0.0,0.0,0.0,0.0,0.0,0.0,0.0,0.0,0.0,0.0,0.0,0.0,0.0,0.0,0.0,0.0,0.0,0.0,1.8883,0.0,0.0,0.0,0.0,0.0,0.0,0.0,0.0,0.0,0.0,1.9283,2.0188,2.0858,2.1028,0.0,0.0,0.0,0.0,2.1463,2.0802,2.0485,2.0366,2.0389,2.0779,2.1396,2.219,0.0,0.0,2.3422,2.3324,2.3226,2.3123,2.3671,2.374,2.2481,2.2444,2.2617,2.2656,2.299,2.3403,2.3753,2.3769,2.3884,1.5583,0.0,0.0,0.0,0.0,1.5053,1.5567,1.6448,1.5471,1.5739,1.6746,1.5462,0.0,0.0,0.0,0.0,0.0,0.0,1.4832,1.5296,1.5491,1.5762,1.6128,1.6257,1.6326,1.6326,1.6326,1.6286,1.6192,1.5983,1.5382,1.4411,0.0,0.0,0.0,0.0,1.4982,1.556,1.6034,1.6326,1.6422,1.654,1.7047,1.7972,1.7994,1.8969,2.1033,2.0674,2.0863,2.1837,2.1155,0.0,0.0,0.0,0.0,0.0,0.0,0.0,0.0,0.0,0.0,0.0,0.0,0.0,0.0,0.0,0.0,0.0,0.0,0.0,1.9946,1.9764,1.9254,0.0,0.0,0.0,0.0,0.0,0.0,0.0,0.0,0.0,1.9191,1.9748,2.0307,0.0,0.0,2.0416,2.038,2.0945,2.1194,2.0644,0.0,0.0,0.0,2.1274,2.1315,2.1578,2.2298,2.2876,2.2924,2.431,2.5043,2.3784,2.4757,2.5198,2.3568,2.379,2.4384,2.4723,2.4898,2.5015,2.5132,2.5152,2.4934,1.6439,1.6168,1.5859,1.5726,1.5734,1.5646,1.6084,1.6802,1.5932,1.6104,1.6892,1.5971,1.5486,1.5376,1.5207,0.0,0.0,0.0,1.5555,1.5925,1.6339,1.662,1.6832,1.7101,1.7209,1.7209,1.7114,1.6994,1.6874,1.6494,1.5864,1.5046,0.0,0.0,1.4767,1.5052,1.5462,1.6025,1.6467,1.6672,1.67,1.67,1.6925,1.7351,1.7223,1.7991,1.9792,2.0112,2.0739,2.1805,2.1686,2.1459,0.0,0.0,0.0,0.0,0.0,0.0,0.0,0.0,0.0,0.0,0.0,1.788,0.0,0.0,0.0,0.0,1.9811,2.0125,2.0326,1.9885,0.0,0.0,0.0,0.0,0.0,0.0,0.0,1.8031,1.8638,1.8945,1.8552,1.8855,1.9213,1.9523,1.9593,1.9541,1.9328,0.0,2.0324,1.9812,1.9844,2.0022,2.0426,2.0645,2.0882,2.1374,2.1921,2.229,2.2356,2.3587,2.4104,2.3341,2.3899,2.438,2.3381,2.3827,2.4247,2.4229,2.4313,2.4484,2.4674,2.471,2.4538,1.7286,1.7257,1.6821,1.6475,1.6179,1.6258,1.6343,1.6431,1.6417,1.6417,1.6458,1.6673,1.6448,1.5955,1.5941,0.0,1.6404,1.666,1.678,1.6809,1.7264,1.7556,1.7662,1.7808,1.7914,1.8009,1.7796,1.7541,1.7287,1.6712,1.6403,1.6429,1.5892,1.5601,1.5564,1.581,1.6076,1.6376,1.6905,1.7046,1.678,1.6727,1.658,1.6351,1.6284,1.6725,1.7676,1.8764,1.9957,2.1217,2.1845,2.2088,2.194,0.0,0.0,0.0,0.0,0.0,0.0,0.0,0.0,0.0,0.0,0.0,0.0,0.0,0.0,0.0,2.0408,0.0,2.0171,1.9484,0.0,0.0,0.0,1.6979,1.6919,1.6779,1.6907,1.7432,0.0,0.0,1.7561,0.0,1.782,1.8179,1.873,1.8876,1.8237,1.8911,1.9158,1.8726,1.8464,1.8439,1.8944,1.9489,2.0338,2.1452,2.1592,2.1491,2.1565,2.1877,2.1818,2.1647,2.1969,2.2304,2.2546,2.2814,2.2803,2.1915,2.2282,2.2823,2.3319,2.3413,2.3469,1.8036,1.7836,1.7956,1.7604,1.6941,1.6958,1.7192,1.7569,1.7368,1.7408,1.7582,1.7448,1.7301,1.7168,1.7168,1.7208,1.7275,1.7367,1.7502,1.7623,1.6628,1.6911,1.8194,1.7104,1.7184,1.8328,1.8344,1.8264,1.8143,1.7583,1.7397,1.7556,1.7076,1.6566,1.6121,1.6171,1.6452,1.6971,1.7114,1.7273,1.7381,1.6941,1.6673,1.6607,1.6166,1.6479,1.7652,1.7986,1.9108,2.115,2.1452,2.1835,2.2531,2.1798,0.0,0.0,0.0,0.0,0.0,0.0,0.0,0.0,0.0,1.8536,1.9059,0.0,1.9428,0.0,1.9754,2.0048,2.0439,1.9333,0.0,0.0,1.718,1.6949,1.6845,1.7341,1.759,1.7356,1.7588,1.7548,1.6936,1.6692,1.6627,1.6814,1.7751,1.8444,1.8546,1.9234,1.9461,1.8668,1.8877,1.9275,1.9286,1.9514,2.0112,2.1474,2.0794,2.0194,2.0454,2.1596,2.2116,2.1181,2.2257,2.2752,2.1567,2.1689,2.1434,2.0486,2.1833,2.3508,2.3634,2.3607,2.3334,1.8556,1.8409,1.8477,1.8304,1.7956,1.7822,1.7929,1.8196,1.8063,1.809,1.8209,1.8063,1.7983,1.7983,1.7983,1.7592,1.6957,1.7056,1.6735,1.6054,1.549,1.5688,1.6556,1.5806,1.6252,1.7818,1.7676,1.7991,1.8595,1.821,1.8076,1.8209,1.7943,1.7609,1.7305,1.7121,1.7238,1.7542,1.7555,1.7569,1.7595,1.7167,1.685,1.6698,1.6262,1.6292,1.6884,1.7399,1.8372,1.9803,2.0468,2.1118,2.178,2.1244,2.0622,0.0,0.0,0.0,0.0,0.0,0.0,0.0,0.0,0.0,0.0,0.0,1.8868,0.0,1.8973,0.0,1.9298,1.8473,1.7648,1.6999,1.6748,1.6556,1.6383,1.6766,1.6936,1.6669,1.6866,1.6819,1.6329,1.6361,1.6419,1.6471,1.7337,1.7944,1.8062,1.8519,1.8677,1.8159,1.8434,1.8708,1.8708,1.8708,1.8985,1.977,1.9395,1.9008,1.9348,2.0158,2.0533,1.9909,2.0728,2.1303,2.0244,2.0345,2.03,1.9895,2.0687,2.1714,2.1841,2.1856,2.1544,1.836,1.8347,1.8101,1.814,1.8319,1.8101,1.811,1.8305,1.829,1.8194,1.7998,1.7998,1.7998,1.7998,1.7998,1.7244,1.5937,1.6155,1.5376,1.3861,1.4153,1.4282,1.4248,1.4301,1.5135,1.6656,1.6379,1.6978,1.8303,1.8076,1.7959,1.7998,1.8167,1.8266,1.8253,1.822,1.8156,1.8049,1.8009,1.7862,1.7583,1.7289,1.6974,1.6652,1.6393,1.6136,1.596,1.6908,1.7659,1.8067,1.921,2.0059,2.0416,2.0008,1.9644,0.0,1.8412,0.0,0.0,0.0,0.0,0.0,0.0,0.0,0.0,1.795,1.7818,1.7643,1.8164,1.8311,1.7746,1.7349,1.6951,1.6565,1.6295,1.6069,1.5832,1.5808,1.5808,1.5808,1.5808,1.5808,1.5845,1.6313,1.6647,1.6739,1.7179,1.7512,1.7352,1.7552,1.77,1.7608,1.7608,1.7766,1.774,1.7701,1.7849,1.8037,1.8185,1.8183,1.8574,1.8655,1.8654,1.868,1.8979,1.9083,1.8956,1.9256,1.9446,1.943,1.9562,1.9649,1.962,1.9678,1.9401,1.5395,1.5395,1.5381,1.5363,1.5395,1.5381,1.6092,1.7298,1.7298,1.6559,1.536,1.533,1.533,1.533,1.533,1.5184,1.489,1.4931,1.4784,1.4399,1.3305,1.3435,1.441,1.3353,1.3604,1.4995,1.4973,1.51,1.5424,1.5148,1.5127,1.5349,1.6379,1.6886,1.6955,0.0,0.0,0.0,1.8143,1.7874,1.758,1.7056,1.6665,1.6368,1.61,0.0,1.5922,1.6112,1.6721,1.7717,1.8036,0.0,0.0,0.0,0.0,0.0,0.0,0.0,0.0,0.0,0.0,0.0,1.6854,1.7158,1.7689,1.7551,1.765,1.8149,1.7491,1.7209,1.7638,1.6739,1.6055,1.5974,1.5927,1.5855,1.5808,1.5808,1.5808,1.5808,1.5808,1.5808,1.5835,1.6139,1.6446,1.6687,1.7033,1.7314,1.7501,1.7568,1.7608,1.7608,1.7608,1.7608,1.7608,1.7782,1.7916,1.8036,1.8236,1.8504,1.8771,1.881,1.8945,1.916,1.9281,1.9308,1.9308,1.9361,1.9401,1.9401,1.9401,1.9401,1.9401,1.9401,1.9401,1.4569,0.0,1.4569,1.4569,0.0,1.4569,1.4599,1.4708,1.5488,1.537,1.4599,1.4569,1.4569,1.4569,1.4569,1.4163,1.3407,1.3488,1.3081,1.23,1.1658,1.1759,1.2434,1.1705,1.2155,1.3652,1.3673,1.4013,1.4671,1.455,1.4529,1.4629,1.5253,1.5569,1.5609,1.7324,1.8372,1.8676,1.8529,1.8248,1.7793,1.7358,1.6938,1.6536,0.0,0.0,0.0,0.0,0.0,0.0,0.0,0.0,0.0,0.0,0.0,1.7699,1.7372,1.6998,1.665,1.6602,1.6494,1.6234,1.6197,1.6423,1.6927,1.6692,1.6716,1.7068,1.6551,1.6376,1.6692,1.6173,1.5808,1.5808,1.5808,1.5808,1.5808,1.5808,1.5808,1.5808,1.5808,1.5808,1.5808,1.6219,1.6551,1.67,1.7113,1.7434,1.7582,1.7608,1.7608,1.7608,1.7608,1.7608,1.7635,1.7809,1.8062,1.8223,1.8517,1.8798,1.9092,1.9145,1.9199,1.9361,1.9401,1.9401,1.9401,1.9401,1.9401,1.9401,1.9401,1.9401,1.9401,1.9508,1.9615,1.3831,1.3792,1.3792,1.3773,1.3735,1.3735,1.3006,1.1905,0.0,0.0,0.0,1.3773,1.3792,1.3792,1.381,1.3126,1.1902,1.1957,1.1324,1.0062,1.0249,1.0335,1.0315,1.0335,1.1021,1.224,1.2272,1.2878,1.3974,1.3996,1.3931,1.3812,1.4062,1.4341,1.4658,1.6197,1.7521,1.8513,1.8803,1.8635,1.8101,1.7769,1.7345,1.6795,1.651,1.624,1.5973,1.5968,1.6021,1.6137,1.6337,1.6565,1.6767,1.6791,1.6791,1.6791,1.6588,1.6353,1.6153,1.613,1.6035,1.5832,1.5808,1.5903,1.6092,1.5927,1.5808,1.5808,1.5808,1.5808,1.5808,1.5808,1.5808,1.5808,1.5808,1.5821,1.5899,1.5888,1.5901,1.5912,1.5901,1.5888,1.5939,1.6342,1.6715,1.6847,1.7274,1.7608,1.7608,1.7608,1.7608,1.7608,1.7608,1.7608,1.7662,1.7889,1.8169,1.8437,1.8758,1.9078,1.9321,1.9401,1.9401,1.9388,1.9401,1.9401,1.9401,1.9401,1.9401,1.9401,1.9401,1.9415,1.9481,1.9709,1.984,1.0816,1.0662,1.0654,1.0575,1.0452,1.0482,1.0409,1.0307,1.0449,1.0482,1.049,1.0597,1.0654,1.0669,1.0837,1.0776,1.0563,1.0584,1.0471,0.0,1.0399,1.0399,1.0322,1.0437,1.0527,1.0633,1.0658,1.0739,1.0932,1.0963,1.0852,1.0862,1.2002,1.3311,1.4619,1.6197,1.7096,1.7295,1.8339,1.8736,1.8418,1.7867,1.7431,1.7137,1.6815,1.6521,1.624,1.6252,1.6143,1.5957,1.592,1.5927,1.5974,1.5998,1.5974,1.5974,1.5927,1.5903,1.5855,1.5855,1.5832,1.5808,1.5808,1.5832,1.5855,1.5832,1.5808,1.5808,1.5808,1.5808,1.5808,1.5808,1.5821,1.5821,1.5808,1.5901,1.6203,1.623,1.6206,1.6206,1.623,1.6206,1.627,1.65,1.6807,1.7086,1.7381,1.7608,1.7608,1.7608,1.7608,1.7608,1.7608,1.7608,1.7662,1.809,1.8384,1.8477,1.8945,1.9308,1.9388,1.9401,1.9401,1.9401,1.9401,1.9401,1.9401,1.9401,1.9401,1.9401,1.9401,1.9468,1.9653,1.9947,2.0094,1.0082,1.0021,1.0021,0.9943,0.992,1.0032,1.0114,1.0168,1.01,1.0073,1.008,1.0141,1.0143,1.0181,1.0249,1.0308,1.0315,1.0358,1.0392,1.0437,1.0548,1.0582,1.0527,1.0556,1.0582,1.0521,1.0521,1.048,1.0405,1.0392,1.0324,1.0206,1.0803,1.1823,1.3246,1.4034,1.4826,1.5725,1.7985,1.9034,1.8719,1.8427,1.8043,1.7422,1.7265,1.6977,1.6546,1.6503,1.6381,1.6115,1.6104,1.5981,1.5821,1.5808,1.5875,1.6059,1.6072,1.6139,1.6275,1.6275,1.6275,1.6299,1.6275,1.6288,1.6275,1.6152,1.5981,1.5835,1.5965,1.5992,1.5835,1.5955,1.6072,1.6072,1.6206,1.6353,1.6473,1.6538,1.6513,1.6511,1.6391,1.6351,1.6511,1.662,1.682,1.7166,1.7421,1.7582,1.7608,1.7608,1.7608,1.7608,1.7608,1.7608,1.7635,1.8117,1.8437,1.849,1.9013,1.9348,1.9401,1.9401,1.9401,1.9401,1.9401,1.9401,1.9401,1.9401,1.9401,1.9401,1.9401,1.9508,1.9746,2.0147,2.0454,1.0112,1.0116,1.0116,1.0096,1.0082,1.0229,1.0297,1.0356,1.0331,1.0344,1.0371,1.0344,1.0363,1.0331,1.0365,1.041,1.0392,1.0493,1.0548,1.0555,1.0663,1.0717,1.0717,1.0717,1.0717,1.0717,1.0717,1.0656,1.0555,1.0541,1.0506,1.0324,1.0175,1.0659,1.1744,1.2131,1.2924,1.4201,1.692,1.8393,1.8469,1.8731,1.8584,1.7956,1.7849,1.7515,1.6954,1.6901,1.674,1.6431,1.6391,1.6259,1.6021,1.6008,1.6126,1.6364,1.6391,1.6484,1.6673,1.67,1.6575,1.6249,1.6224,1.6085,1.5771,1.5595,1.5688,1.5967,1.6246,1.6273,1.6053,1.5854,1.5886,1.5899,1.6081,1.6148,1.6302,1.6592,1.6807,1.678,1.6632,1.6479,1.6335,1.6301,1.6381,1.6665,1.699,1.7186,1.7503,1.7608,1.7608,1.7608,1.7608,1.7608,1.7648,1.8117,1.8437,1.849,1.8971,1.9321,1.9401,1.9401,1.9401,1.9401,1.9401,1.9401,1.9401,1.9401,1.9401,1.9401,1.9401,1.9522,1.9867,2.0307,2.0735,1.0568,1.046,1.0432,1.0378,1.027,1.0315,1.0358,1.0466,1.0473,1.0555,1.0643,1.0534,1.0473,1.0493,1.0616,1.0663,1.067,1.0657,1.0657,1.069,1.0711,1.0717,1.0717,1.0717,1.0717,1.0717,1.0717,1.0711,1.069,1.069,1.0616,1.0473,1.0363,1.0344,1.064,1.1901,1.2623,1.2633,1.4315,1.5861,1.7172,1.8295,1.885,1.8783,1.8531,1.8116,1.7568,1.7502,1.7235,1.6727,1.6673,1.6647,1.662,1.6595,1.6633,1.6635,1.6648,1.6687,1.6688,1.67,1.6086,1.4963,1.481,1.4301,1.3126,1.3107,1.4178,1.5859,1.6522,1.6409,1.6509,1.5407,1.4688,1.4688,1.4747,1.4818,1.5211,1.6369,1.7166,1.7127,1.6753,1.6598,1.5275,1.5088,1.5251,1.5491,1.5562,1.5956,1.6882,1.712,1.7147,1.7371,1.7529,1.7556,1.7649,1.8103,1.8437,1.8531,1.8985,1.9321,1.9401,1.9401,1.9401,1.9401,1.9401,1.9401,1.9401,1.9401,1.9401,1.9481,1.9508,1.9602,2.0067,2.0468,2.0802,1.0426,1.0365,1.0397,1.0439,1.0534,1.0541,1.0575,1.0622,1.0629,1.063,1.0677,1.0656,1.0629,1.0629,1.069,1.0717,1.0717,1.0717,1.0717,1.0717,1.0717,1.0717,1.0717,1.0717,1.0717,1.0717,1.0717,1.0717,1.0717,1.0717,1.0643,1.05,1.0432,1.0365,1.0347,1.0835,1.106,1.1031,1.2499,1.3571,1.4361,1.6546,1.7675,1.7583,1.8277,1.8557,1.8156,1.7956,1.7662,1.7261,1.7086,1.6913,1.6688,1.67,1.678,1.6929,1.6317,1.5926,1.5926,1.5184,1.4451,1.3873,1.3846,1.3556,1.3028,1.3029,1.3588,1.4425,1.4498,1.4336,1.4185,1.3762,1.3501,1.3512,1.3671,1.3852,1.3991,1.4518,1.4888,1.4888,1.4698,1.4522,1.4046,1.3975,1.4045,1.4142,1.4153,1.4502,1.5011,1.5076,1.5049,1.5171,1.5716,1.6684,1.7358,1.809,1.8424,1.8612,1.9013,1.9388,1.9401,1.9401,1.9401,1.9401,1.9401,1.9401,1.9401,1.9415,1.9428,1.9575,2.0003,2.0258,2.0454,2.0722,2.0962,1.0399,1.0405,1.0405,1.0521,1.0684,1.0717,1.0717,1.0717,1.0717,1.0717,1.0717,1.0717,1.0717,1.0717,1.0717,1.0717,1.0717,1.0717,1.0717,1.0717,1.0717,1.0717,1.0717,1.0717,1.0717,1.0717,1.0717,1.0717,1.0717,1.0717,1.0663,1.0568,1.0555,1.0507,1.0399,1.0251,1.0145,1.0262,1.1224,1.1724,1.2042,1.433,1.5821,1.6049,1.7107,1.7599,1.7297,1.7086,1.6822,1.651,1.6302,1.6066,1.5854,1.5793,1.5868,1.6029,1.5317,1.4824,1.4797,1.3857,1.3129,1.2751,1.267,1.2516,1.2191,1.2082,1.2082,1.2054,1.1863,1.1841,1.2657,1.2456,1.2331,1.2341,1.2565,1.2697,1.267,1.2967,1.3389,1.3271,1.3363,1.2806,1.2675,1.2315,1.2017,1.2569,1.2697,1.2967,1.321,1.3399,1.3399,1.3345,1.4261,1.5304,1.6735,1.79,1.8341,1.8611,1.9,1.9388,1.9401,1.9401,1.9401,1.9401,1.9401,1.9401,1.9401,1.9415,1.9407,1.9773,2.012,2.0481,2.0632,2.0855,2.0989,1.0671,1.0584,1.0631,1.0465,1.0651,1.0552,1.0585,1.0352,1.0585,1.0651,1.0585,1.0717,1.0717,1.0717,1.0717,1.0717,1.0717,1.0717,1.0717,1.0717,1.0717,1.0717,1.0717,1.0717,1.0717,1.0717,1.0717,1.0717,1.0717,1.0717,1.0717,1.0704,1.0697,1.0697,1.0637,1.0643,1.0609,1.0517,1.0605,1.0564,1.0622,1.1922,1.332,1.4401,1.4826,1.4879,1.4498,1.4399,1.4304,1.3948,1.3919,1.3778,1.3692,1.3606,1.3617,1.3594,1.347,1.3372,1.3372,1.3156,1.2571,1.1456,1.1191,1.0644,0.9671,0.9533,0.9533,0.921,0.9436,1.0358,1.2305,1.1711,1.1149,1.113,1.1174,1.1191,1.121,1.2191,1.3156,1.3075,1.2866,1.2316,1.1283,0.9822,1.0035,1.0814,1.1191,1.1565,1.2544,1.2994,1.2967,1.2967,1.3264,1.3857,1.5309,1.6554,1.7802,1.7981,1.796,1.901,1.9301,1.9401,1.9272,1.9156,1.8735,1.8735,1.9185,1.9367,1.9298,1.9513,1.9777,2.0117,2.0508,2.0628,2.0788,0.7103,0.715,0.7247,0.7303,0.7298,0.7303,0.7303,0.7436,0.8501,0.8967,0.9205,1.0147,1.0717,1.0717,1.0717,1.0717,1.0717,1.0717,1.0717,1.0717,1.0717,1.0717,1.0717,1.0717,1.0717,1.0717,1.0717,1.0717,1.0717,1.0717,1.0717,1.0717,1.0717,1.0717,1.0704,1.0622,1.0541,1.0493,1.0405,1.0363,1.0315,1.0683,1.1148,1.1723,1.3601,1.4529,1.4419,1.4278,1.4128,1.4019,1.378,1.361,1.3515,1.3359,1.3291,1.321,1.2408,1.1892,1.1783,1.1,1.0296,0.9781,0.9699,0.9561,0.9051,0.8912,0.8912,0.8912,0.8912,0.9561,0.9994,0.9966,0.9699,0.9699,0.9726,0.9754,0.9754,1.0186,1.0488,1.0488,1.0488,1.0213,0.9904,0.9188,0.9099,0.9546,0.9699,1.0029,1.0296,1.0515,1.068,1.0699,1.1265,1.2046,1.2453,1.4259,1.5541,1.5755,1.5973,1.62,1.6444,1.668,1.6562,1.6768,1.6827,1.6885,1.7015,1.7723,1.7909,1.8337,1.8671,1.9689,2.0317,2.0491,2.0673,0.5176,0.5226,0.5354,0.5399,0.5399,0.5399,0.5399,0.5529,0.6631,0.7165,0.7431,0.8473,0.9277,0.9775,0.9842,1.0213,1.0651,1.0717,1.0717,1.0717,1.0717,1.0717,1.0717,1.0717,1.0717,1.0717,1.0717,1.0717,1.0717,1.0717,1.0717,1.0717,1.0717,1.0717,1.0697,1.0616,1.0568,1.0548,1.0466,1.0426,1.0405,1.027,1.0163,1.0437,1.21,1.3081,1.3048,1.2883,1.2781,1.2725,1.2505,1.2282,1.2125,1.2036,1.1955,1.1764,1.0945,1.0406,1.0296,0.9451,0.8933,0.8912,0.8912,0.8912,0.8912,0.8912,0.8912,0.8912,0.8912,0.8912,0.8912,0.894,0.8912,0.8912,0.8912,0.8912,0.8912,0.894,0.8989,0.9071,0.9127,0.8989,0.8912,0.8933,0.8933,0.8912,0.8912,0.8912,0.8912,0.8953,0.8953,0.8988,0.9928,1.0465,1.0803,1.1909,1.3735,1.4134,1.4553,1.44,1.4212,1.4302,1.4331,1.445,1.451,1.454,1.4977,1.5758,1.6298,1.6703,1.7858,1.8998,1.9655,2.0366,2.0544,0.5222,0.5082,0.5332,0.4994,0.4894,0.4864,0.5165,0.4994,0.5262,0.5362,0.5429,0.5629,0.6765,0.7731,0.7997,0.89,1.0246,1.0419,1.0552,1.0684,1.0717,1.0717,1.0717,1.0717,1.0717,1.0717,1.0717,1.0717,1.0717,1.0717,1.0717,1.0717,1.0717,1.0717,1.0717,1.0704,1.0711,1.0697,1.0677,1.0657,1.0697,1.0534,1.0453,1.0432,1.044,1.0348,1.0079,1.0058,1.0188,1.0091,0.9949,0.9528,0.9617,0.956,0.9307,0.9314,0.9023,0.8995,0.9016,0.8968,0.8912,0.8912,0.8912,0.8912,0.8912,0.8912,0.8912,0.8912,0.8912,0.8912,0.8912,0.8912,0.8912,0.8912,0.8912,0.8912,0.8912,0.8912,0.8912,0.8912,0.8912,0.8912,0.8912,0.8912,0.8912,0.8912,0.8912,0.8912,0.8926,0.9042,0.9069,0.9,0.937,0.976,0.9609,0.9664,1.1442,1.2905,1.3418,1.3616,1.3317,1.3257,1.3078,1.3138,1.3078,1.3108,1.3198,1.3941,1.458,1.5236,1.67,1.794,1.8649,1.9309,2.0278,0.1704,0.1692,0.1673,0.168,0.168,0.168,0.168,0.1848,0.2954,0.3521,0.3758,0.4861,0.573,0.6097,0.6231,0.7165,0.8767,0.8867,0.9477,1.0485,1.0684,1.0717,1.0717,1.0717,1.0717,1.0717,1.0717,1.0717,1.0717,1.0717,1.0717,1.0717,1.0717,1.0717,1.0717,1.0717,1.0717,1.0717,1.0717,1.0717,1.0671,1.0568,1.0493,1.0473,1.0304,1.0134,0.9985,0.9876,0.9792,0.9792,0.9744,0.9618,0.939,0.924,0.9111,0.8933,0.8912,0.8912,0.8912,0.8912,0.8912,0.8912,0.8912,0.8912,0.8912,0.8912,0.8912,0.8912,0.8912,0.8912,0.8912,0.8912,0.8912,0.8912,0.8912,0.8912,0.8912,0.8912,0.8912,0.8912,0.8912,0.8912,0.8912,0.8912,0.8912,0.8912,0.8912,0.8912,0.8933,0.9069,0.9117,0.8994,0.9198,0.9383,0.9362,0.9415,1.0399,1.1381,1.1878,1.2299,1.2127,1.2006,1.1856,1.1796,1.1736,1.1736,1.1826,1.216,1.2881,1.3544,1.467,1.5894,1.7141,1.8283,1.933,0.0,0.0,0.0,0.0,0.0,0.0,0.0,0.0,0.1176,0.168,0.1948,0.2853,0.3789,0.4292,0.4392,0.5396,0.6931,0.7027,0.8002,0.9643,1.0518,1.0684,1.0717,1.0717,1.0717,1.0717,1.0717,1.0717,1.0717,1.0717,1.0717,1.0717,1.0717,1.0717,1.0717,1.0717,1.0717,1.0717,1.0717,1.0717,1.0704,1.0629,1.0575,1.0555,1.0432,1.0317,1.024,1.0019,0.9846,0.9805,0.9792,0.97,0.9483,0.9374,0.926,0.9062,0.9015,0.9001,0.8926,0.8912,0.8912,0.8912,0.8912,0.8912,0.8912,0.8912,0.8912,0.8912,0.8912,0.8912,0.8912,0.8912,0.8912,0.8912,0.8912,0.8912,0.8912,0.8912,0.8912,0.8912,0.8912,0.8912,0.8912,0.8912,0.8912,0.8912,0.8912,0.8912,0.8953,0.9117,0.9096,0.9157,0.9374,0.9415,0.9335,0.9435,0.9602,0.9912,1.0164,1.0476,1.0566,1.0566,1.0513,1.0596,1.0573,1.0657,1.0717,1.0936,1.1429,1.2125,1.2856,1.4069,1.5504,1.7436,1.8611,0.0,0.0,0.0,0.0,0.0,0.0,0.0,0.0,0.0,0.0,0.0,0.0,0.1143,0.2316,0.2551,0.3521,0.4994,0.5262,0.6197,0.7969,0.9437,1.0379,1.0651,1.0717,1.0717,1.0717,1.0717,1.0717,1.0717,1.0717,1.0717,1.0717,1.0717,1.0717,1.0717,1.0717,1.0717,1.0717,1.0717,1.0717,1.0717,1.0684,1.0677,1.0697,1.0575,1.0487,1.0412,1.0143,0.9934,0.9812,0.9792,0.9724,0.9632,0.9575,0.9449,0.922,0.9192,0.9089,0.8967,0.8946,0.8926,0.8912,0.8912,0.8912,0.8912,0.8912,0.8912,0.8912,0.8912,0.8912,0.8912,0.8912,0.8912,0.8912,0.8912,0.8912,0.8912,0.8912,0.8912,0.8912,0.8912,0.8912,0.8912,0.8912,0.8912,0.8912,0.8912,0.8912,0.8967,0.9117,0.9274,0.9396,0.9483,0.9537,0.9449,0.9551,0.9697,0.9704,0.9731,0.9758,0.9792,0.9792,0.9792,0.9792,0.9792,0.9792,0.9883,1.0217,1.0334,1.0819,1.1651,1.2601,1.4007,1.5804,1.7043,0.0,0.0,0.0,0.0,0.0,0.0,0.0,0.0,0.0,0.0,0.0,0.0,0.0,0.0,0.0,0.168,0.3054,0.3421,0.4392,0.6131,0.7897,0.9504,1.0485,1.0717,1.0717,1.0717,1.0717,1.0717,1.0717,1.0717,1.0717,1.0717,1.0717,1.0717,1.0717,1.0717,1.0717,1.0717,1.0717,1.0717,1.0717,1.0717,1.0717,1.0717,1.0677,1.0595,1.048,1.017,0.9947,0.9805,0.9792,0.9761,0.9639,0.9618,0.953,0.9396,0.9342,0.9281,0.9165,0.9117,0.9049,0.8919,0.8919,0.8912,0.8912,0.8912,0.8912,0.8912,0.8912,0.8912,0.8912,0.8912,0.8912,0.8912,0.8912,0.8912,0.8912,0.8912,0.8912,0.8912,0.8912,0.8912,0.8912,0.8912,0.8912,0.8912,0.8912,0.8912,0.8967,0.9171,0.9362,0.9383,0.9478,0.9571,0.9652,0.9734,0.9795,0.9795,0.9771,0.9771,0.9792,0.9792,0.9792,0.9792,0.9792,0.9792,0.9792,0.9943,0.993,1.0066,1.0524,1.149,1.2358,1.3755,1.4741,0.0,0.0,0.0,0.0,0.0,0.0,0.0,0.0,0.0,0.0,0.0,0.0,0.0,0.0,0.0,0.0,0.1512,0.1579,0.2585,0.4492,0.6898,0.8972,1.0313,1.0717,1.0717,1.0717,1.0717,1.0717,1.0717,1.0717,1.0717,1.0717,1.0717,1.0717,1.0717,1.0717,1.0717,1.0717,1.0717,1.0717,1.0717,1.0717,1.0717,1.0717,1.0717,1.0617,1.048,1.0263,1.0053,0.9846,0.9785,0.9781,0.9713,0.97,0.9625,0.949,0.9476,0.9444,0.9301,0.9255,0.9179,0.9096,0.9035,0.8994,0.9034,0.9,0.8919,0.9028,0.8953,0.8912,0.8912,0.8912,0.8912,0.8912,0.8912,0.8912,0.8912,0.8912,0.8912,0.8912,0.8912,0.8912,0.8912,0.8912,0.8912,0.8912,0.8912,0.8912,0.894,0.9205,0.9417,0.9437,0.9539,0.9659,0.972,0.9788,0.9808,0.9785,0.9785,0.9792,0.9792,0.9792,0.9792,0.9792,0.9792,0.9798,0.9819,0.9879,1.0059,1.0154,1.0136,1.0464,1.1419,1.2328,1.3179,0.0,0.0,0.0,0.0,0.0,0.0,0.0,0.0,0.0,0.0,0.0,0.0,0.0,0.0,0.0,0.0,0.0,0.0,0.1344,0.3287,0.5693,0.8035,0.9981,1.0552,1.0684,1.0717,1.0717,1.0717,1.0717,1.0717,1.0717,1.0717,1.0717,1.0717,1.0717,1.0717,1.0717,1.0717,1.0717,1.0717,1.0717,1.0717,1.0717,1.0717,1.0717,1.0643,1.05,1.0337,1.0141,0.9832,0.9805,0.9785,0.9785,0.9785,0.9731,0.9659,0.9625,0.9564,0.9422,0.9328,0.9281,0.9293,0.9103,0.9054,0.9232,0.913,0.9035,0.9199,0.9042,0.8981,0.8912,0.8912,0.8912,0.8912,0.8912,0.8912,0.8912,0.8912,0.8912,0.8912,0.8912,0.8912,0.8912,0.8912,0.8912,0.8912,0.8919,0.894,0.9035,0.9232,0.9403,0.9478,0.9598,0.9758,0.9778,0.9785,0.9785,0.9785,0.9785,0.9792,0.9792,0.9792,0.9792,0.9792,0.9792,0.9832,0.9893,0.9994,1.0116,1.0243,1.0224,1.0407,1.0831,1.1655,1.2523,0.0,0.0,0.0,0.0,0.0,0.0,0.0,0.0,0.0,0.0,0.0,0.0,0.0,0.0,0.0,0.0,0.0,0.0,0.0,0.2652,0.3253,0.5726,0.8268,0.9775,1.0618,1.0684,1.0717,1.0717,1.0717,1.0717,1.0717,1.0717,1.0717,1.0717,1.0717,1.0717,1.0717,1.0717,1.0717,1.0717,1.0717,1.0717,1.0717,1.0717,1.0717,1.0643,1.05,1.039,1.0195,0.9994,0.9866,0.9805,0.9792,0.9792,0.9765,0.9744,0.9761,0.9707,0.9585,0.9517,0.9499,0.9417,0.9274,0.9184,0.9369,0.9254,0.922,0.9294,0.922,0.9076,0.896,0.8919,0.8926,0.8933,0.8919,0.8912,0.8912,0.8912,0.8912,0.8912,0.8912,0.8912,0.8912,0.8912,0.8912,0.8912,0.8933,0.8994,0.9117,0.9294,0.941,0.949,0.9652,0.9785,0.9792,0.9792,0.9792,0.9792,0.9792,0.9792,0.9792,0.9792,0.9792,0.9792,0.9792,0.9846,0.992,0.9981,1.0076,1.0191,1.0351,1.0487,1.0773,1.1381,1.1604,0.0,0.0,0.0,0.0,0.0,0.0,0.0,0.0,0.0,0.0,0.0,0.0,0.0,0.0,0.0,0.0,0.0,0.0,0.0471,0.1512,0.2249,0.3756,0.5626,0.8169,0.9742,1.0485,1.0717,1.0717,1.0717,1.0717,1.0717,1.0717,1.0717,1.0717,1.0717,1.0717,1.0717,1.0717,1.0717,1.0717,1.0717,1.0717,1.0717,1.0717,1.0717,1.0644,1.0602,1.046,1.0317,1.0161,0.9981,0.9859,0.9836,0.9792,0.9792,0.9792,0.9785,0.9765,0.969,0.9646,0.9598,0.9578,0.9417,0.9458,0.9492,0.9424,0.9376,0.9415,0.9383,0.9218,0.9122,0.9062,0.9049,0.9022,0.8946,0.8912,0.8912,0.8912,0.8912,0.8912,0.8912,0.8912,0.8912,0.8926,0.8926,0.894,0.8933,0.8973,0.9158,0.9308,0.9429,0.9557,0.9713,0.9785,0.9785,0.9792,0.9792,0.9792,0.9792,0.9792,0.9792,0.9792,0.9792,0.9792,0.9805,0.9859,0.9934,0.9988,1.0096,1.031,1.0446,1.0514,1.0687,1.1033,1.1108,0.0,0.0,0.0,0.0,0.0,0.0,0.0,0.0,0.0,0.0,0.0,0.0,0.0,0.0,0.0,0.0,0.0,0.0,0.0,0.0,0.0,0.245,0.3789,0.616,0.8468,1.0147,1.0585,1.0684,1.0717,1.0717,1.0717,1.0717,1.0717,1.0717,1.0717,1.0717,1.0717,1.0717,1.0717,1.0717,1.0717,1.0717,1.0717,1.0717,1.0717,1.0684,1.067,1.0555,1.0419,1.0283,1.0103,0.9947,0.9832,0.9792,0.9792,0.9792,0.9792,0.9778,0.9758,0.969,0.97,0.9802,0.9578,0.9557,0.9673,0.9585,0.953,0.9537,0.951,0.9395,0.9374,0.9254,0.9179,0.9152,0.9035,0.8946,0.8919,0.8926,0.8981,0.8912,0.8912,0.8919,0.8981,0.9008,0.9001,0.8967,0.8973,0.9021,0.922,0.9328,0.9456,0.9578,0.9713,0.9765,0.9778,0.9792,0.9792,0.9792,0.9792,0.9792,0.9792,0.9792,0.9792,0.9805,0.9832,0.9893,0.9974,1.0055,1.0191,1.0419,1.0493,1.0521,1.0595,1.0657,1.0677,0.0,0.0,0.0,0.0,0.0,0.0,0.0,0.0,0.0,0.0,0.0,0.0,0.0,0.0,0.0,0.0,0.0,0.0,0.0,0.0,0.0,0.1176,0.2752,0.4626,0.6731,0.8468,0.9709,1.0485,1.0684,1.0717,1.0717,1.0717,1.0717,1.0717,1.0717,1.0717,1.0717,1.0717,1.0717,1.0717,1.0717,1.0717,1.0717,1.0717,1.0717,1.0717,1.069,1.0575,1.0426,1.0283,1.0134,0.9954,0.9839,0.9798,0.9792,0.9792,0.9792,0.9792,0.9778,0.9771,0.9765,0.9751,0.9636,0.9609,0.9704,0.9686,0.9623,0.9686,0.9646,0.9523,0.9417,0.9322,0.9241,0.9207,0.9193,0.9097,0.9008,0.9035,0.9062,0.8988,0.8974,0.894,0.9001,0.9049,0.9124,0.9137,0.9184,0.9266,0.9408,0.9485,0.9503,0.9598,0.9656,0.9724,0.9765,0.9778,0.9792,0.9792,0.9792,0.9792,0.9792,0.9792,0.9798,0.9805,0.9866,0.994,1.0028,1.0096,1.0243,1.0371,1.0439,1.0493,1.0595,1.0683,1.0711,0.0,0.0,0.0,0.0,0.0,0.0,0.0,0.0,0.0,0.0,0.0,0.0,0.0,0.0,0.0,0.0,0.0,0.0,0.0,0.0,0.0,0.0336,0.1545,0.3186,0.4927,0.6698,0.8402,0.9941,1.0618,1.0717,1.0717,1.0717,1.0717,1.0717,1.0717,1.0717,1.0717,1.0717,1.0717,1.0717,1.0717,1.0717,1.0717,1.0717,1.0717,1.0717,1.0671,1.0663,1.0541,1.0399,1.0249,1.01,0.9934,0.9839,0.9792,0.9792,0.9792,0.9792,0.9792,0.9792,0.9792,0.9785,0.9717,0.9724,0.9758,0.9737,0.9717,0.9744,0.9758,0.9663,0.9625,0.9492,0.9396,0.9315,0.9301,0.9226,0.9158,0.9226,0.9186,0.9069,0.9008,0.8967,0.9001,0.9069,0.9199,0.9288,0.9376,0.9469,0.9612,0.9585,0.9564,0.9646,0.969,0.9731,0.9771,0.9778,0.9792,0.9792,0.9792,0.9792,0.9792,0.9792,0.9792,0.9792,0.9873,0.9967,0.9974,1.0015,1.0157,1.0317,1.0371,1.0446,1.0582,1.067,1.0704,0.0,0.0,0.0,0.0,0.0,0.0,0.0,0.0,0.0,0.0,0.0,0.0,0.0,0.0,0.0,0.0,0.0,0.0,0.0,0.0,0.0,0.0,0.0,0.1848,0.3823,0.5763,0.7431,0.8933,1.0412,1.0717,1.0717,1.0717,1.0717,1.0717,1.0717,1.0717,1.0717,1.0717,1.0717,1.0717,1.0717,1.0717,1.0717,1.0717,1.0717,1.0717,1.0684,1.0704,1.0622,1.0493,1.0371,1.0236,1.0035,0.9907,0.9825,0.9798,0.9792,0.9792,0.9792,0.9792,0.9792,0.9785,0.9792,0.9792,0.9785,0.9778,0.9785,0.9792,0.9785,0.9778,0.9731,0.968,0.9557,0.9469,0.9451,0.9417,0.9328,0.9328,0.9356,0.9225,0.9096,0.9048,0.913,0.9252,0.941,0.9499,0.9557,0.9578,0.9686,0.9618,0.9618,0.967,0.9737,0.9765,0.9785,0.9785,0.9792,0.9792,0.9792,0.9792,0.9792,0.9792,0.9792,0.9798,0.9873,0.9947,0.9909,0.9981,1.0181,1.0297,1.0324,1.0399,1.0534,1.0649,1.0711,0.0,0.0,0.0,0.0,0.0,0.0,0.0,0.0,0.0,0.0,0.0,0.0,0.0,0.0,0.0,0.0,0.0,0.0,0.0,0.0,0.0,0.0,0.0,0.0,0.3354,0.4927,0.6798,0.8939,0.9981,1.0352,1.0717,1.0717,1.0717,1.0717,1.0717,1.0717,1.0717,1.0717,1.0717,1.0717,1.0717,1.0717,1.0717,1.0717,1.0717,1.0717,1.0717,1.0717,1.0649,1.0527,1.048,1.0324,1.0076,1.0008,0.9913,0.9832,0.9792,0.9792,0.9792,0.9792,0.9792,0.9792,0.9792,0.9792,0.9792,0.9792,0.9792,0.9792,0.9792,0.9792,0.9771,0.967,0.9618,0.9591,0.9564,0.9496,0.9451,0.9476,0.9496,0.9442,0.9327,0.9313,0.934,0.9476,0.9605,0.9686,0.9724,0.9731,0.9724,0.9693,0.9652,0.9704,0.9751,0.9778,0.9792,0.9792,0.9792,0.9792,0.9792,0.9792,0.9798,0.9805,0.9829,0.9825,0.99,0.9961,0.995,1.0062,1.0215,1.0335,1.0378,1.0432,1.0487,1.0595,1.0717,0.0,0.0,0.0,0.0,0.0,0.0,0.0,0.0,0.0,0.0,0.0,0.0,0.0,0.0,0.0,0.0,0.0,0.0,0.0,0.0,0.0,0.0,0.0,0.084,0.2115,0.3789,0.469,0.5696,0.7636,0.9748,1.0717,1.0618,1.0717,1.0717,1.0717,1.0717,1.0717,1.0717,1.0717,1.0717,1.0717,1.0717,1.0717,1.0717,1.0717,1.0717,1.0717,1.0717,1.0664,1.0602,1.0555,1.0446,1.031,1.0222,1.0114,0.994,0.992,0.9879,0.9805,0.9792,0.9792,0.9792,0.9792,0.9792,0.9792,0.9792,0.9792,0.9792,0.9792,0.9792,0.9792,0.9737,0.9663,0.9659,0.968,0.9625,0.9585,0.9666,0.9686,0.9625,0.9564,0.9544,0.9523,0.9571,0.9646,0.968,0.9724,0.9758,0.9765,0.9744,0.9754,0.9754,0.9765,0.9785,0.9792,0.9792,0.9792,0.9792,0.9792,0.9798,0.9819,0.9825,0.9825,0.993,1.0039,1.0049,1.0017,1.0136,1.0322,1.0403,1.0478,1.0507,1.0568,1.0622,1.0717,0.0,0.0,0.0,0.0,0.0,0.0,0.0,0.0,0.0,0.0,0.0,0.0,0.0,0.0,0.0,0.0,0.0,0.0,0.0,0.0,0.0,0.0,0.0,0.0,0.1076,0.2652,0.3086,0.4191,0.5964,0.7736,0.9211,1.0014,1.0485,1.0651,1.0717,1.0717,1.0717,1.0717,1.0717,1.0717,1.0717,1.0717,1.0717,1.0717,1.0717,1.0717,1.0717,1.0717,1.0684,1.069,1.0622,1.0541,1.0453,1.0371,1.0263,1.0096,1.0042,0.9961,0.9879,0.9832,0.9798,0.9792,0.9792,0.9792,0.9792,0.9792,0.9792,0.9792,0.9792,0.9792,0.9792,0.9785,0.9737,0.971,0.9724,0.969,0.967,0.9717,0.9744,0.9734,0.9693,0.9677,0.9656,0.9666,0.968,0.9686,0.971,0.9778,0.9785,0.9785,0.9778,0.9788,0.9771,0.9792,0.9792,0.9792,0.9792,0.9792,0.9792,0.9798,0.9825,0.9852,0.9873,0.9967,1.0134,1.0168,1.0175,1.027,1.0397,1.0472,1.0514,1.0595,1.0663,1.0704,1.0717,0.0,0.0,0.0,0.0,0.0,0.0,0.0,0.0,0.0,0.0,0.0,0.0,0.0,0.0,0.0,0.0,0.0,0.0,0.0,0.0,0.0,0.0,0.0,0.0,0.0807,0.2216,0.2316,0.3354,0.4894,0.5396,0.6898,0.8102,0.9404,1.0313,1.0717,1.0717,1.0717,1.0717,1.0717,1.0717,1.0717,1.0717,1.0717,1.0717,1.0717,1.0717,1.0717,1.0717,1.0717,1.0717,1.069,1.0596,1.0541,1.05,1.0405,1.0283,1.0175,1.0069,1.0001,0.9893,0.9842,0.9798,0.9792,0.9792,0.9792,0.9792,0.9792,0.9792,0.9792,0.9792,0.9792,0.9785,0.9765,0.9765,0.9758,0.9751,0.9737,0.9751,0.9778,0.9778,0.9771,0.9758,0.9751,0.9717,0.9741,0.9717,0.9724,0.9792,0.9792,0.9785,0.9792,0.9778,0.9785,0.9792,0.9792,0.9792,0.9792,0.9792,0.9792,0.9805,0.9825,0.9866,0.9974,1.0062,1.0222,1.0243,1.0322,1.0405,1.0487,1.0514,1.0575,1.0649,1.069,1.0711,1.0717,0.0,0.0,0.0,0.0,0.0,0.0,0.0,0.0,0.0,0.0,0.0,0.0,0.0,0.0,0.0,0.0,0.0,0.0,0.0,0.0,0.0,0.0,0.0,0.0,0.0404,0.0,0.0,0.0,0.1915,0.3188,0.3923,0.5359,0.7631,0.9543,1.0246,1.0651,1.0717,1.0717,1.0717,1.0717,1.0717,1.0717,1.0717,1.0717,1.0717,1.0717,1.0717,1.0717,1.0717,1.0717,1.0717,1.0677,1.0629,1.0622,1.0548,1.0432,1.0331,1.0263,1.0175,1.0028,0.9934,0.9907,0.9852,0.9792,0.9792,0.9792,0.9792,0.9792,0.9792,0.9792,0.9792,0.9792,0.9785,0.9792,0.9792,0.9792,0.9792,0.9792,0.9792,0.9785,0.9785,0.9778,0.9785,0.9778,0.9778,0.9785,0.9785,0.9792,0.9792,0.9792,0.9792,0.9792,0.9792,0.9792,0.9792,0.9792,0.9792,0.9798,0.9805,0.9859,0.9913,1.0093,1.0195,1.0263,1.0299,1.0405,1.048,1.0561,1.0588,1.0575,1.0616,1.0697,1.0717,1.0717,1.0717,0.0,0.0,0.0,0.0,0.0,0.0,0.0,0.0,0.0,0.0,0.0,0.0,0.0,0.0,0.0,0.0,0.0,0.0,0.0,0.0,0.0,0.0,0.0,0.0,0.0,0.0,0.0,0.0,0.0,0.0,0.2316,0.3555,0.5125,0.7265,0.9543,1.0485,1.0684,1.0717,1.0717,1.0717,1.0717,1.0717,1.0717,1.0717,1.0717,1.0717,1.0717,1.0717,1.0717,1.0717,1.0717,1.0717,1.0717,1.0704,1.0656,1.0588,1.0507,1.0446,1.0337,1.0215,1.0042,0.992,0.9913,0.9846,0.9805,0.9792,0.9792,0.9792,0.9792,0.9792,0.9792,0.9792,0.9792,0.9792,0.9792,0.9792,0.9792,0.9792,0.9792,0.9792,0.9792,0.9792,0.9792,0.9792,0.9792,0.9792,0.9792,0.9792,0.9792,0.9792,0.9792,0.9792,0.9792,0.9792,0.9792,0.9792,0.9805,0.9907,0.992,0.9981,1.0062,1.0229,1.0324,1.0371,1.0453,1.0542,1.0596,1.0649,1.0629,1.0595,1.0656,1.0717,1.0717,1.0717,1.0717,0.0,0.0,0.0,0.0,0.0,0.0,0.0,0.0,0.0,0.0,0.0,0.0,0.0,0.0,0.0,0.0,0.0,0.0,0.0,0.0,0.0,0.0,0.0,0.0,0.0,0.0,0.0,0.0,0.0,0.0,0.0,0.215,0.3387,0.5225,0.7997,0.9809,1.0618,1.0717,1.0717,1.0717,1.0717,1.0717,1.0717,1.0717,1.0717,1.0717,1.0717,1.0717,1.0717,1.0717,1.0717,1.0717,1.0717,1.0717,1.0704,1.069,1.0575,1.0507,1.0466,1.0376,1.0188,0.9961,0.9974,0.99,0.9825,0.9798,0.9792,0.9792,0.9792,0.9792,0.9792,0.9792,0.9792,0.9792,0.9792,0.9792,0.9792,0.9792,0.9792,0.9792,0.9792,0.9792,0.9792,0.9792,0.9792,0.9792,0.9792,0.9792,0.9792,0.9792,0.9792,0.9792,0.9792,0.9792,0.9792,0.9792,0.9825,0.994,1.0021,1.0069,1.015,1.0297,1.0385,1.046,1.0534,1.0622,1.067,1.0711,1.0677,1.0649,1.0677,1.0717,1.0717,1.0717,1.0717,0.0,0.0,0.0,0.0,0.0,0.0,0.0,0.0,0.0,0.0,0.0,0.0,0.0,0.0,0.0,0.0,0.0,0.0,0.0,0.0,0.0,0.0,0.0,0.0,0.0,0.0,0.0,0.0,0.0,0.0,0.0,0.0941,0.2249,0.469,0.7198,0.8873,0.9305,1.0485,1.0717,1.0717,1.0717,1.0717,1.0717,1.0717,1.0717,1.0717,1.0717,1.0717,1.0717,1.0717,1.0717,1.0717,1.0717,1.0717,1.0717,1.0717,1.0643,1.0588,1.0561,1.0493,1.0487,1.0276,1.0028,0.9961,0.992,0.9839,0.9805,0.9792,0.9792,0.9792,0.9792,0.9792,0.9792,0.9792,0.9792,0.9792,0.9792,0.9792,0.9792,0.9792,0.9792,0.9805,0.9812,0.9792,0.9792,0.9792,0.9792,0.9792,0.9792,0.9792,0.9792,0.9792,0.9792,0.9792,0.9792,0.9825,0.9913,1.0042,1.0103,1.013,1.0224,1.0399,1.0487,1.0588,1.0622,1.0663,1.0697,1.0717,1.0717,1.0717,1.0717,1.0717,1.0717,1.0717,1.0717,0.0,0.0,0.0,0.0,0.0,0.0,0.0,0.0,0.0,0.0,0.0,0.0,0.0,0.0,0.0,0.0,0.0,0.0,0.0,0.0,0.0,0.0,0.0,0.0,0.0,0.0,0.0,0.0,0.0,0.0,0.0,0.0,0.0,0.3086,0.5492,0.7098,0.8568,0.9643,1.0014,1.0717,1.0717,1.0717,1.0717,1.0717,1.0717,1.0717,1.0717,1.0717,1.0717,1.0717,1.0717,1.0717,1.0717,1.0717,1.0717,1.0717,1.0711,1.0663,1.0636,1.0561,1.0548,1.0541,1.0222,1.0042,1.0021,0.9896,0.9852,0.9819,0.9798,0.9798,0.9798,0.9798,0.9805,0.9812,0.9819,0.9819,0.9812,0.9812,0.9832,0.9832,0.9937,0.99,0.9852,0.9805,0.9792,0.9792,0.9792,0.9792,0.9792,0.9792,0.9792,0.9792,0.9812,0.9832,0.9859,0.99,1.0001,1.0143,1.0204,1.0238,1.0393,1.0575,1.0643,1.069,1.069,1.069,1.0704,1.0717,1.0717,1.0717,1.0717,1.0717,1.0717,1.0717,1.0717,0.0,0.0,0.0,0.0,0.0,0.0,0.0,0.0,0.0,0.0,0.0,0.0,0.0,0.0,0.0,0.0,0.0,0.0,0.0,0.0,0.0,0.0,0.0,0.0,0.0,0.0,0.0,0.0,0.0,0.0,0.0,0.0,0.0,0.0,0.3454,0.5426,0.7093,0.8035,0.9305,0.9908,1.0047,1.0552,1.0651,1.0717,1.0717,1.0717,1.0717,1.0717,1.0717,1.0717,1.0717,1.0717,1.0717,1.0717,1.0717,1.0717,1.0717,1.0704,1.0677,1.0602,1.0575,1.0595,1.0493,1.0317,1.0136,1.0004,0.9934,0.9859,0.9819,0.9819,0.9812,0.9832,0.9846,0.9852,0.9866,0.9866,0.9852,0.9866,0.9893,0.9954,1.012,1.0127,0.9988,0.9913,0.9879,0.9859,0.9859,0.9819,0.9812,0.9792,0.9792,0.9798,0.9832,0.9886,0.9896,0.9988,1.0123,1.0278,1.0385,1.0446,1.0602,1.069,1.0697,1.0704,1.0711,1.0717,1.0717,1.0717,1.0717,1.0717,1.0717,1.0717,1.0717,1.0717,1.0717,0.0,0.0,0.0,0.0,0.0,0.0,0.0,0.0,0.0,0.0,0.0,0.0,0.0,0.0,0.0,0.0,0.0,0.0,0.0,0.0,0.0,0.0,0.0,0.0,0.0,0.0,0.0,0.0,0.0,0.0,0.0,0.0,0.0,0.0,0.0,0.3086,0.4623,0.6231,0.7764,0.8701,0.9338,0.9948,1.0313,1.0651,1.0717,1.0717,1.0717,1.0717,1.0717,1.0717,1.0717,1.0717,1.0717,1.0717,1.0717,1.0717,1.0717,1.0717,1.069,1.0575,1.0521,1.0534,1.0432,1.0419,1.0258,1.015,1.0021,0.9934,0.9859,0.9852,0.9873,0.9893,0.994,0.9981,1.0025,1.0046,1.0032,1.0008,1.0035,1.0103,1.027,1.0209,1.0069,1.0062,1.0028,0.9981,0.994,0.99,0.9839,0.9819,0.9792,0.9798,0.9879,0.9947,1.0035,1.0096,1.0283,1.0432,1.05,1.0561,1.0649,1.0711,1.0717,1.0717,1.0717,1.0717,1.0717,1.0717,1.0717,1.0717,1.0717,1.0717,1.0717,1.0717,1.0717,0.0,0.0,0.0,0.0,0.0,0.0,0.0,0.0,0.0,0.0,0.0,0.0,0.0,0.0,0.0,0.0,0.0,0.0,0.0,0.0,0.0,0.0,0.0,0.0,0.0,0.0,0.0,0.0,0.0,0.0,0.0,0.0,0.0,0.0,0.0,0.131,0.2081,0.3756,0.5396,0.6998,0.8169,0.9072,0.9775,1.0552,1.0618,1.0717,1.0717,1.0717,1.0717,1.0717,1.0717,1.0717,1.0717,1.0717,1.0717,1.0717,1.0717,1.0717,1.0697,1.0582,1.0514,1.046,1.0365,1.0378,1.0365,1.0283,1.0123,1.0008,0.994,0.99,0.9909,0.995,1.0055,1.0161,1.0195,1.0222,1.0215,1.0177,1.0218,1.0265,1.0258,1.0204,1.0177,1.0184,1.0209,1.0161,1.0134,1.012,0.9981,0.9873,0.9825,0.9792,0.9913,1.0028,1.0116,1.0231,1.0412,1.0534,1.0595,1.0656,1.0711,1.0717,1.0717,1.0717,1.0717,1.0717,1.0717,1.0717,1.0717,1.0717,1.0717,1.0717,1.0717,1.0717,1.0717,0.0,0.0,0.0,0.0,0.0,0.0,0.0,0.0,0.0,0.0,0.0,0.0,0.0,0.0,0.0,0.0,0.0,0.0,0.0,0.0,0.0,0.0,0.0,0.0,0.0,0.0,0.0,0.0,0.0,0.0,0.0,0.0,0.0,0.0,0.0,0.0,0.0,0.1344,0.3287,0.5125,0.6827,0.7831,0.8734,1.0081,1.0518,1.0717,1.0717,1.0717,1.0717,1.0717,1.0717,1.0717,1.0717,1.0717,1.0717,1.0717,1.0717,1.0717,1.0683,1.0582,1.0514,1.0453,1.0371,1.0397,1.0337,1.0317,1.0202,1.015,1.0103,1.0076,1.0096,1.015,1.0211,1.0324,1.0378,1.0371,1.0337,1.0337,1.0358,1.0373,1.0366,1.0319,1.0358,1.0371,1.0365,1.0317,1.029,1.0283,1.0188,1.0032,0.9947,0.9893,1.0073,1.0222,1.0297,1.0412,1.0541,1.0643,1.0683,1.0697,1.0717,1.0717,1.0717,1.0717,1.0717,1.0717,1.0717,1.0717,1.0717,1.0717,1.0717,1.0717,1.0717,1.0717,1.0717,0.0,0.0,0.0,0.0,0.0,0.0,0.0,0.0,0.0,0.0,0.0,0.0,0.0,0.0,0.0,0.0,0.0,0.0,0.0,0.0,0.0,0.0,0.0,0.0,0.0,0.0,0.0,0.0,0.0,0.0,0.0,0.0,0.0,0.0,0.0,0.0,0.0,0.0,0.0,0.0,0.4088,0.666,0.8368,0.9172,0.9609,1.0585,1.0717,1.0717,1.0717,1.0717,1.0717,1.0717,1.0717,1.0717,1.0717,1.0717,1.0717,1.0717,1.0677,1.0588,1.0507,1.0453,1.0378,1.0331,1.0304,1.0322,1.0322,1.0304,1.031,1.029,1.027,1.0292,1.036,1.0441,1.0522,1.05,1.0453,1.0466,1.048,1.0487,1.0468,1.05,1.05,1.05,1.0507,1.0487,1.0453,1.0419,1.0337,1.0229,1.0236,1.0215,1.0304,1.0419,1.0492,1.0521,1.0629,1.0677,1.0704,1.0711,1.0717,1.0717,1.0717,1.0717,1.0717,1.0717,1.0717,1.0717,1.0717,1.0717,1.0717,1.0717,1.0717,1.0717,1.0717,0.0,0.0,0.0,0.0,0.0,0.0,0.0,0.0,0.0,0.0,0.0,0.0,0.0,0.0,0.0,0.0,0.0,0.0,0.0,0.0,0.0,0.0,0.0,0.0,0.0,0.0,0.0,0.0,0.0,0.0,0.0,0.0,0.0,0.0,0.0,0.0,0.0,0.0,0.0,0.0,0.0,0.4657,0.7265,0.8097,0.9477,1.0419,1.0717,1.0717,1.0717,1.0717,1.0717,1.0717,1.0717,1.0717,1.0717,1.0717,1.0717,1.0717,1.0677,1.0609,1.0507,1.046,1.0371,1.0342,1.0399,1.0417,1.027,1.029,1.0392,1.0385,1.0245,1.0251,1.0373,1.05,1.0602,1.0622,1.0602,1.0602,1.0609,1.0602,1.0595,1.0555,1.0548,1.0521,1.0541,1.0622,1.0595,1.0582,1.0493,1.0419,1.0432,1.0453,1.05,1.05,1.0487,1.0568,1.0683,1.0717,1.0717,1.0717,1.0717,1.0717,1.0717,1.0717,1.0717,1.0717,1.0717,1.0717,1.0717,1.0717,1.0717,1.0717,1.0717,1.0717,1.0717,0.0,0.0,0.0,0.0,0.0,0.0,0.0,0.0,0.0,0.0,0.0,0.0,0.0,0.0,0.0,0.0,0.0,0.0,0.0,0.0,0.0,0.0,0.0,0.0,0.0,0.0,0.0,0.0,0.0,0.0,0.0,0.0,0.0,0.0,0.0,0.0,0.0,0.0,0.0,0.0,0.0,0.322,0.5526,0.7564,0.9277,1.0319,1.0585,1.0717,1.0717,1.0717,1.0717,1.0717,1.0717,1.0717,1.0717,1.0717,1.0717,1.0717,1.0697,1.0622,1.0561,1.05,1.0417,1.0417,1.0487,1.0453,1.0312,1.0324,1.0426,1.0466,1.0326,1.0305,1.0466,1.0548,1.0649,1.0717,1.0711,1.0671,1.0704,1.0697,1.0663,1.0616,1.0595,1.0568,1.0609,1.069,1.0717,1.0717,1.069,1.0622,1.0588,1.0582,1.0588,1.0575,1.0541,1.0602,1.0717,1.0717,1.0717,1.0717,1.0717,1.0717,1.0717,1.0717,1.0717,1.0717,1.0717,1.0717,1.0717,1.0717,1.0717,1.0717,1.0717,1.0717,1.0717,0.0,0.0,0.0,0.0,0.0,0.0,0.0,0.0,0.0,0.0,0.0,0.0,0.0,0.0,0.0,0.0,0.0,0.0,0.0,0.0,0.0,0.0,0.0,0.0,0.0,0.0,0.0,0.0,0.0,0.0,0.0,0.0,0.0,0.0,0.0,0.0,0.0,0.0,0.0,0.0,0.0,0.2148,0.3923,0.583,0.7564,0.9138,1.0213,1.0651,1.0717,1.0717,1.0717,1.0717,1.0717,1.0717,1.0717,1.0717,1.0717,1.0717,1.069,1.067,1.0636,1.0636,1.0555,1.0541,1.0602,1.0616,1.0468,1.0378,1.0473,1.0602,1.0529,1.0542,1.0656,1.0656,1.0717,1.0717,1.0717,1.0717,1.0711,1.0711,1.0697,1.0683,1.0677,1.0663,1.0663,1.0717,1.0717,1.0717,1.0717,1.0717,1.0717,1.0697,1.067,1.069,1.0677,1.0656,1.0717,1.0717,1.0717,1.0717,1.0717,1.0717,1.0717,1.0717,1.0717,1.0717,1.0717,1.0717,1.0717,1.0717,1.0717,1.0717,1.0717,1.0717,1.0717]},{"header":{"parameterUnit":"m.s-1","parameterCategory":1,"la1":31.0,"la2":29.5877,"lo1":-88.7671,"lo2":-86.6584,"dy":0.0162,"dx":0.0185,"nx":115,"ny":88,"refTime":"2023-03-18T06:00:00:Z","depth":0,"parameterNumber":3,"parameterNumberName":"V-component_of_WINDS"},"data":[0.0,0.0,0.0,0.0,0.0,0.0,0.0,0.0,0.0,0.0,0.0,0.0,0.0,0.0,0.0,0.0,0.0,0.0,0.0,0.0,0.0,0.0,0.0,0.0,0.0,0.0,0.0,0.0,0.0,0.0,0.0,0.0,0.0,0.0,0.0,0.0,0.0,0.0,0.0,0.0,0.0,0.0,0.0,0.0,0.0,0.0,0.0,0.0,0.0,0.0,0.0,0.0,0.0,0.0,0.0,0.0,0.0,0.0,0.0,0.0,0.0,0.0,0.0,0.0,0.0,0.0,0.0,0.0,0.0,0.0,0.0,0.0,0.0,0.0,0.0,0.0,0.0,0.0,0.0,0.0,0.0,0.0,0.0,0.0,0.0,0.0,0.0,0.0,0.0,0.0,0.0,0.0,0.0,0.0,0.0,0.0,0.0,0.0,0.0,0.0,0.0,0.0,0.0,0.0,0.0,0.0,0.0,0.0,0.0,0.0,0.0,0.0,0.0,0.0,0.0,0.0,0.0,0.0,0.0,0.0,0.0,0.0,0.0,0.0,0.0,0.0,0.0,0.0,0.0,0.0,0.0,0.0,0.0,0.0,0.0,0.0,0.0,0.0,0.0,0.0,0.0,0.0,0.0,0.0,0.0,0.0,0.0,0.0,0.0,0.0,0.0,0.0,0.0,0.0,0.0,0.0,0.0,0.0,0.0,0.0,0.0,0.0,0.0,0.0,0.0,0.0,0.0,0.0,0.0,0.0,0.0,0.0,0.0,0.0,0.0,0.0,0.0,0.0,0.0,0.0,0.0,0.0,0.0,0.0,0.0,0.0,0.0,0.0,0.0,0.0,0.0,0.0,0.0,0.0,0.0,0.0,0.0,0.0,0.0,0.0,0.0,0.0,0.0,0.0,0.0,0.0,0.0,0.0,0.0,0.0,0.0,0.0,0.0,0.0,0.0,0.0,0.0,0.0,0.0,0.0,0.0,0.0,0.0,0.0,0.0,0.0,0.0,0.0,0.0,0.0,0.0,0.0,0.0,0.0,0.0,0.0,0.0,0.0,0.0,0.0,0.0,0.0,0.0,0.0,0.0,0.0,0.0,0.0,0.0,0.0,0.0,0.0,0.0,0.0,0.0,0.0,0.0,0.0,0.0,0.0,0.0,0.0,0.0,0.0,0.0,0.0,0.0,0.0,0.0,0.0,0.0,0.0,0.0,0.0,0.0,0.0,0.0,0.0,0.0,0.0,0.0,0.0,0.0,0.0,0.0,0.0,0.0,0.0,0.0,0.0,0.0,0.0,0.0,0.0,0.0,0.0,0.0,0.0,0.0,0.0,0.0,0.0,0.0,0.0,0.0,0.0,0.0,0.0,0.0,0.0,0.0,0.0,0.0,0.0,0.0,0.0,0.0,0.0,0.0,0.0,0.0,0.0,0.0,0.0,0.0,0.0,0.0,0.0,0.0,0.0,0.0,0.0,0.0,0.0,0.0,0.0,0.0,0.0,0.0,0.0,0.0,0.0,0.0,0.0,0.0,0.0,0.0,0.0,0.0,0.0,0.0,0.0,0.0,0.0,0.0,0.0,0.0,0.0,0.0,0.0,0.0,0.0,0.0,0.0,0.0,0.0,0.0,0.0,0.0,0.0,0.0,0.0,0.0,0.0,0.0,0.0,0.0,0.0,0.0,0.0,0.0,0.0,0.0,0.0,0.0,0.0,0.0,0.0,0.0,0.0,0.0,0.0,0.0,0.0,0.0,0.0,0.0,0.0,0.0,0.0,0.0,0.0,0.0,0.0,0.0,0.0,0.0,0.0,0.0,0.0,0.0,0.0,0.0,0.0,0.0,0.0,0.0,0.0,0.0,0.0,0.0,0.0,0.0,0.0,0.0,0.0,0.0,0.0,0.0,0.0,0.0,0.0,0.0,0.0,0.0,0.0,0.0,0.0,0.0,0.0,0.0,0.0,0.0,0.0,0.0,0.0,0.0,0.0,0.0,0.0,0.0,0.0,0.0,0.0,0.0,0.0,0.0,0.0,0.0,0.0,0.0,0.0,0.0,0.0,0.0,0.0,0.0,0.0,0.0,0.0,0.0,0.0,0.0,0.0,0.0,0.0,0.0,0.0,0.0,0.0,0.0,0.0,0.0,0.0,0.0,0.0,0.0,0.0,0.0,0.0,0.0,0.0,0.0,0.0,0.0,0.0,0.0,0.0,0.0,0.0,0.0,0.0,0.0,0.0,0.0,0.0,0.0,0.0,0.0,0.0,0.0,0.0,0.0,0.0,0.0,0.0,0.0,0.0,0.0,0.0,0.0,0.0,0.0,0.0,0.0,0.0,0.0,0.0,0.0,0.0,0.0,0.0,0.0,0.0,0.0,0.0,0.0,0.0,0.0,0.0,0.0,0.0,0.0,0.0,0.0,0.0,0.0,0.0,0.0,0.0,0.0,0.0,0.0,0.0,0.0,0.0,0.0,0.0,0.0,0.0,0.0,0.0,0.0,0.0,0.0,0.0,0.0,0.0,0.0,0.0,0.0,0.0,0.0,0.0,0.0,0.0,0.0,0.0,0.0,0.0,0.0,0.0,0.0,0.0,0.0,0.0,0.0,0.0,0.0,0.0,0.0,0.0,0.0,0.0,0.0,0.0,0.0,0.0,0.0,0.0,0.0,0.0,0.0,0.0,0.0,0.0,0.0,0.0,0.0,0.0,0.0,0.0,0.0,0.0,0.0,0.0,0.0,0.0,0.0,0.0,0.0,0.0,0.0,0.0,0.0,0.0,0.0,0.0,0.0,0.0,0.0,0.0,0.0,0.0,0.0,0.0,0.0,0.0,0.0,0.0,0.0,0.0,0.0,0.0,0.0,0.0,0.0,0.0,0.0,0.0,0.0,0.0,0.0,0.0,0.0,0.0,0.0,0.0,0.0,0.0,0.0,0.0,0.0,0.0,0.0,0.0,0.0,0.0,0.0,0.0,0.0,0.0,0.0,0.0,0.0,0.0,0.0,0.0,0.0,0.0,0.0,0.0,0.0,0.0,0.0,0.0,0.0,0.0,0.0,0.0,0.0,0.0,0.0,0.0,0.0,0.0,0.0,0.0,0.0,0.0,0.0,0.0,0.0,0.0,0.0,0.0,0.0,0.0,0.0,0.0,0.0,0.0,0.0,0.0,0.0,0.0,0.0,0.0,0.0,0.0,0.0,0.0,0.0,0.0,0.0,0.0,0.0,0.0,0.0,0.0,0.0,0.0,0.0,0.0,0.0,0.0,0.0,0.0,0.0,0.0,0.0,0.0,0.0,0.0,0.0,0.0,0.0,0.0,0.0,0.0,0.0,0.0,0.0,0.0,0.0,0.0,0.0,0.0,0.0,0.0,0.0,0.0,0.0,0.0,0.0,0.0,0.0,0.0,0.0,0.0,0.0,0.0,0.0,0.0,0.0,0.0,0.0,0.0,0.0,0.0,0.0,0.0,0.0,0.0,0.0,0.0,0.0,0.0,0.0,0.0,0.0,0.0,0.0,0.0,0.0,0.0,0.0,0.0,0.0,0.0,0.0,0.0,0.0,0.0,0.0,0.0,0.0,0.0,0.0,0.0,0.0,0.0,0.0,0.0,0.0,0.0,0.0,0.0,0.0,0.0,0.0,0.0,0.0,0.0,0.0,0.0,0.0,0.0,0.0,0.0,0.0,0.0,0.0,0.0,0.0,0.0,0.0,0.0,0.0,0.0,0.0,0.0,0.0,0.0,0.0,0.0,0.0,0.0,0.0,0.0,0.0,0.0,0.0,0.0,0.0,0.0,0.0,0.0,0.0,0.0,0.0,0.0,0.0,0.0,0.0,0.0,0.0,0.0,0.0,0.0,0.0,0.0,0.0,0.0,0.0,0.0,0.0,0.0,0.0,0.0,0.0,0.0,0.0,0.0,0.0,0.0,0.0,0.0,0.0,0.0,0.0,0.0,0.0,0.0,0.0,0.0,0.0,0.0,0.0,0.0,0.0,0.0,0.0,0.0,0.0,0.0,0.0,0.0,0.0,0.0,0.0,0.0,0.0,0.0,0.0,0.0,0.0,0.0,0.0,0.0,0.0,0.0,0.0,0.0,0.0,0.0,0.0,0.0,0.0,0.0,0.0,0.0,0.0,0.0,0.0,0.0,0.0,0.0,0.0,0.0,0.0,0.0,0.0,0.0,0.0,0.0,0.0,0.0,0.0,0.0,0.0,0.0,0.0,0.0,0.0,0.0,0.0,0.0,0.0,0.0,0.0,0.0,0.0,0.0,0.0,0.0,1.796,0.0,0.0,0.0,0.0,0.0,0.0,0.0,0.0,0.0,0.0,0.0,0.0,0.0,0.0,0.0,0.0,0.0,0.0,0.0,0.0,0.0,0.0,0.0,0.0,0.0,0.0,0.0,0.0,0.0,0.0,0.0,0.0,0.0,0.0,0.0,0.0,0.0,0.0,0.0,0.0,0.0,0.0,0.0,0.0,0.0,0.0,0.0,0.0,0.0,0.0,0.0,0.0,0.0,0.0,0.0,0.0,0.0,0.0,0.0,0.0,0.0,0.0,0.0,0.0,0.0,0.0,0.0,0.0,0.0,0.0,0.0,0.0,0.0,0.0,0.0,0.0,0.0,0.0,0.0,0.0,0.0,0.0,0.0,0.0,0.0,0.0,0.0,0.0,0.0,0.0,0.0,0.0,0.0,0.0,0.0,0.0,0.0,0.0,0.0,0.0,0.0,0.0,0.0,0.0,0.0,0.0,0.0,0.0,0.0,0.0,1.6912,1.7346,1.7402,1.7636,1.8086,0.0,0.0,0.0,0.0,0.0,0.0,0.0,0.0,0.0,0.0,0.0,0.0,0.0,0.0,0.0,0.0,0.0,0.0,0.0,0.0,0.0,0.0,0.0,0.0,0.0,0.0,0.0,0.0,0.0,0.0,0.0,0.0,0.0,0.0,0.0,0.0,0.0,0.0,0.0,0.0,0.0,0.0,0.0,0.0,0.0,0.0,0.0,0.0,0.0,0.0,0.0,0.0,0.0,0.0,0.0,0.0,0.0,0.0,0.0,0.0,0.0,0.0,0.0,0.0,0.0,0.0,0.0,0.0,0.0,0.0,0.0,0.0,0.0,0.0,0.0,0.0,0.0,0.0,0.0,0.0,0.0,0.0,0.0,0.0,0.0,0.0,0.0,0.0,0.0,0.0,0.0,0.0,0.0,0.0,0.0,0.0,0.0,0.0,0.0,0.0,0.0,0.0,0.0,0.0,0.0,0.0,0.0,0.0,0.0,0.0,0.0,0.0,1.7905,1.8032,1.8197,0.0,0.0,0.0,0.0,0.0,0.0,0.0,0.0,0.0,0.0,0.0,0.0,0.0,0.0,0.0,0.0,0.0,0.0,0.0,0.0,0.0,0.0,0.0,0.0,0.0,0.0,0.0,0.0,0.0,0.0,0.0,0.0,0.0,0.0,0.0,0.0,0.0,0.0,0.0,0.0,0.0,0.0,0.0,0.0,0.0,0.0,0.0,0.0,0.0,0.0,0.0,0.0,0.0,0.0,0.0,0.0,0.0,0.0,0.0,0.0,0.0,0.0,0.0,0.0,0.0,0.0,0.0,0.0,0.0,0.0,0.0,0.0,0.0,0.0,0.0,0.0,0.0,0.0,0.0,0.0,0.0,0.0,0.0,0.0,0.0,0.0,0.0,0.0,0.0,0.0,0.0,0.0,0.0,0.0,0.0,0.0,0.0,0.0,0.0,0.0,0.0,0.0,0.0,0.0,0.0,0.0,0.0,0.0,0.0,0.0,1.7754,1.7894,1.7972,0.0,1.8292,0.0,0.0,0.0,0.0,0.0,0.0,0.0,0.0,0.0,0.0,0.0,0.0,0.0,0.0,0.0,0.0,0.0,0.0,0.0,0.0,0.0,0.0,0.0,0.0,0.0,0.0,0.0,0.0,0.0,0.0,0.0,0.0,0.0,0.0,0.0,0.0,0.0,0.0,0.0,0.0,0.0,0.0,0.0,0.0,0.0,0.0,0.0,0.0,0.0,0.0,0.0,0.0,0.0,0.0,0.0,0.0,0.0,0.0,0.0,0.0,0.0,0.0,0.0,0.0,0.0,0.0,0.0,0.0,0.0,0.0,0.0,0.0,0.0,0.0,0.0,0.0,0.0,0.0,0.0,0.0,0.0,0.0,0.0,0.0,0.0,0.0,0.0,0.0,0.0,0.0,0.0,0.0,0.0,0.0,0.0,0.0,0.0,0.0,0.0,0.0,0.0,0.0,0.0,0.0,0.0,0.0,0.0,0.0,0.0,0.0,1.7906,1.7967,1.8089,1.822,0.0,0.0,0.0,0.0,0.0,0.0,0.0,0.0,0.0,0.0,0.0,0.0,0.0,0.0,0.0,0.0,0.0,0.0,0.0,0.0,0.0,0.0,0.0,0.0,0.0,0.0,0.0,0.0,0.0,0.0,0.0,0.0,0.0,0.0,0.0,0.0,0.0,0.0,0.0,0.0,0.0,0.0,0.0,0.0,0.0,0.0,0.0,0.0,0.0,0.0,0.0,0.0,0.0,0.0,0.0,0.0,0.0,0.0,0.0,0.0,0.0,0.0,0.0,0.0,0.0,0.0,0.0,0.0,0.0,0.0,0.0,0.0,0.0,0.0,0.0,0.0,0.0,0.0,0.0,0.0,0.0,0.0,0.0,0.0,0.0,0.0,0.0,0.0,0.0,0.0,0.0,0.0,0.0,0.0,0.0,0.0,0.0,0.0,0.0,0.0,0.0,0.0,0.0,0.0,0.0,0.0,0.0,0.0,0.0,0.0,1.807,1.8234,1.8351,1.8527,1.8532,1.8333,0.0,0.0,0.0,0.0,0.0,0.0,0.0,0.0,0.0,0.0,0.0,0.0,0.0,0.0,0.0,0.0,0.0,0.0,0.0,0.0,0.0,0.0,0.0,0.0,0.0,0.0,0.0,0.0,0.0,0.0,0.0,0.0,0.0,0.0,0.0,0.0,0.0,0.0,0.0,0.0,0.0,0.0,0.0,0.0,0.0,0.0,0.0,0.0,0.0,0.0,0.0,0.0,0.0,0.0,0.0,0.0,0.0,0.0,0.0,0.0,0.0,0.0,0.0,0.0,0.0,0.0,0.0,0.0,0.0,0.0,0.0,0.0,0.0,0.0,0.0,0.0,0.0,0.0,0.0,0.0,0.0,0.0,0.0,0.0,0.0,0.0,0.0,0.0,0.0,0.0,0.0,0.0,0.0,0.0,0.0,0.0,0.0,0.0,0.0,0.0,0.0,0.0,0.0,0.0,0.0,0.0,0.0,0.0,1.7923,1.8586,1.9036,1.9252,1.9402,1.914,0.0,0.0,0.0,0.0,0.0,0.0,0.0,0.0,0.0,0.0,0.0,0.0,0.0,0.0,0.0,0.0,0.0,0.0,0.0,0.0,0.0,0.0,0.0,0.0,0.0,0.0,0.0,0.0,0.0,0.0,0.0,0.0,0.0,0.0,0.0,0.0,0.0,0.0,0.0,0.0,0.0,0.0,0.0,0.0,0.0,0.0,0.0,0.0,0.0,0.0,0.0,0.0,0.0,0.0,0.0,0.0,0.0,0.0,0.0,0.0,0.0,0.0,0.0,0.0,0.0,0.0,0.0,0.0,0.0,0.0,0.0,0.0,0.0,0.0,0.0,0.0,0.0,0.0,0.0,0.0,0.0,0.0,0.0,0.0,0.0,0.0,0.0,0.0,0.0,0.0,0.0,0.0,0.0,0.0,0.0,0.0,0.0,0.0,0.0,0.0,0.0,0.0,0.0,0.0,0.0,0.0,0.0,0.0,0.0,1.8688,1.9504,2.0033,2.0119,2.0209,1.9915,0.0,0.0,0.0,0.0,0.0,0.0,0.0,0.0,0.0,0.0,0.0,0.0,0.0,0.0,0.0,0.0,0.0,0.0,0.0,0.0,0.0,0.0,0.0,0.0,0.0,0.0,0.0,0.0,0.0,0.0,0.0,0.0,0.0,0.0,0.0,0.0,0.0,0.0,0.0,0.0,0.0,0.0,0.0,0.0,0.0,0.0,0.0,0.0,0.0,0.0,0.0,0.0,0.0,0.0,0.0,0.0,0.0,0.0,0.0,0.0,0.0,0.0,0.0,0.0,0.0,0.0,0.0,0.0,0.0,0.0,0.0,0.0,0.0,0.0,0.0,0.0,0.0,0.0,0.0,0.0,0.0,0.0,0.0,0.0,0.0,0.0,0.0,0.0,0.0,0.0,0.0,0.0,0.0,0.0,0.0,0.0,0.0,0.0,0.0,0.0,0.0,0.0,0.0,0.0,0.0,0.0,0.0,0.0,0.0,1.9921,0.0,2.0969,2.1016,2.1068,2.0712,0.0,0.0,0.0,0.0,0.0,0.0,0.0,0.0,0.0,0.0,0.0,0.0,0.0,0.0,0.0,0.0,0.0,0.0,0.0,0.0,0.0,0.0,0.0,0.0,0.0,0.0,0.0,0.0,0.0,0.0,0.0,0.0,0.0,0.0,0.0,0.0,0.0,0.0,0.0,0.0,0.0,0.0,0.0,0.0,0.0,0.0,0.0,0.0,0.0,0.0,0.0,0.0,0.0,0.0,0.0,0.0,0.0,0.0,0.0,0.0,0.0,0.0,0.0,0.0,0.0,0.0,0.0,0.0,0.0,0.0,0.0,0.0,0.0,0.0,0.0,0.0,0.0,0.0,0.0,0.0,0.0,0.0,0.0,0.0,0.0,0.0,0.0,0.0,0.0,0.0,0.0,0.0,0.0,0.0,0.0,0.0,0.0,0.0,0.0,0.0,0.0,0.0,0.0,0.0,0.0,0.0,0.0,0.0,2.0695,2.1553,2.1768,2.1888,2.1925,2.1925,2.1569,0.0,0.0,0.0,0.0,0.0,0.0,0.0,0.0,0.0,0.0,0.0,0.0,0.0,0.0,0.0,0.0,0.0,0.0,0.0,0.0,0.0,0.0,0.0,0.0,0.0,0.0,0.0,0.0,0.0,0.0,0.0,0.0,0.0,0.0,0.0,0.0,0.0,0.0,0.0,0.0,0.0,0.0,0.0,0.0,0.0,0.0,0.0,0.0,0.0,0.0,0.0,0.0,0.0,0.0,0.0,0.0,0.0,0.0,0.0,0.0,0.0,0.0,0.0,0.0,0.0,0.0,0.0,0.0,0.0,0.0,0.0,0.0,0.0,0.0,0.0,0.0,0.0,0.0,0.0,0.0,0.0,0.0,0.0,0.0,0.0,0.0,0.0,0.0,0.0,0.0,0.0,0.0,0.0,0.0,0.0,0.0,0.0,0.0,0.0,0.0,0.0,0.0,0.0,0.0,0.0,0.0,0.0,0.0,0.0,2.256,2.3117,2.3155,2.2743,2.3231,2.2894,0.0,0.0,0.0,0.0,0.0,0.0,0.0,0.0,0.0,0.0,0.0,0.0,0.0,0.0,0.0,0.0,0.0,0.0,0.0,0.0,0.0,0.0,0.0,0.0,0.0,0.0,0.0,0.0,0.0,0.0,0.0,0.0,0.0,0.0,0.0,0.0,0.0,0.0,0.0,0.0,0.0,0.0,0.0,0.0,0.0,0.0,0.0,0.0,0.0,0.0,0.0,0.0,0.0,0.0,0.0,0.0,0.0,0.0,0.0,0.0,0.0,0.0,0.0,0.0,0.0,0.0,0.0,0.0,0.0,0.0,0.0,0.0,0.0,0.0,0.0,0.0,0.0,0.0,0.0,0.0,0.0,0.0,0.0,0.0,0.0,0.0,0.0,0.0,0.0,0.0,0.0,0.0,0.0,0.0,0.0,0.0,0.0,0.0,0.0,0.0,0.0,0.0,0.0,0.0,0.0,0.0,0.0,0.0,0.0,2.5025,2.4941,2.4677,2.4271,2.4432,2.4012,2.2883,0.0,0.0,0.0,0.0,0.0,0.0,0.0,0.0,0.0,0.0,0.0,0.0,0.0,0.0,0.0,0.0,0.0,0.0,0.0,0.0,0.0,0.0,0.0,0.0,0.0,0.0,0.0,0.0,0.0,0.0,0.0,0.0,0.0,0.0,0.0,0.0,0.0,0.0,0.0,0.0,0.0,0.0,0.0,0.0,0.0,0.0,0.0,0.0,0.0,0.0,0.0,0.0,0.0,0.0,0.0,0.0,0.0,0.0,0.0,0.0,0.0,0.0,0.0,0.0,0.0,0.0,0.0,0.0,0.0,0.0,0.0,0.0,0.0,0.0,0.0,0.0,0.0,0.0,0.0,0.0,0.0,0.0,0.0,0.0,0.0,0.0,0.0,0.0,0.0,0.0,0.0,0.0,0.0,0.0,0.0,0.0,0.0,0.0,0.0,0.0,0.0,0.0,0.0,0.0,0.0,0.0,0.0,0.0,2.8612,2.7345,2.6511,2.6292,2.566,2.4955,0.0,0.0,0.0,0.0,0.0,0.0,0.0,0.0,0.0,0.0,0.0,0.0,0.0,0.0,0.0,0.0,0.0,0.0,0.0,0.0,0.0,0.0,0.0,0.0,0.0,0.0,0.0,0.0,0.0,0.0,0.0,0.0,0.0,0.0,0.0,0.0,0.0,0.0,0.0,0.0,0.0,0.0,0.0,0.0,0.0,0.0,0.0,0.0,0.0,0.0,0.0,0.0,0.0,0.0,0.0,0.0,0.0,0.0,0.0,0.0,0.0,0.0,0.0,0.0,0.0,0.0,0.0,0.0,0.0,0.0,0.0,0.0,0.0,0.0,0.0,0.0,0.0,0.0,0.0,0.0,0.0,0.0,0.0,0.0,0.0,0.0,0.0,0.0,0.0,0.0,0.0,0.0,0.0,0.0,0.0,0.0,0.0,0.0,0.0,0.0,0.0,0.0,0.0,0.0,0.0,0.0,0.0,0.0,0.0,3.063,3.1261,3.0338,2.7864,2.7616,2.6714,0.0,0.0,0.0,0.0,0.0,0.0,0.0,0.0,0.0,0.0,0.0,0.0,0.0,0.0,0.0,0.0,0.0,0.0,0.0,0.0,0.0,0.0,0.0,0.0,0.0,0.0,0.0,0.0,0.0,0.0,0.0,0.0,0.0,0.0,0.0,0.0,0.0,0.0,0.0,0.0,0.0,0.0,0.0,0.0,0.0,0.0,0.0,0.0,0.0,0.0,0.0,0.0,0.0,0.0,0.0,0.0,0.0,0.0,0.0,0.0,0.0,0.0,0.0,0.0,0.0,0.0,0.0,0.0,0.0,0.0,0.0,0.0,0.0,0.0,0.0,0.0,0.0,0.0,0.0,0.0,0.0,0.0,0.0,0.0,0.0,0.0,0.0,0.0,0.0,0.0,0.0,0.0,0.0,0.0,0.0,0.0,0.0,0.0,0.0,0.0,0.0,0.0,0.0,0.0,0.0,0.0,0.0,0.0,3.0424,3.2892,3.4213,3.3933,3.193,3.0491,2.8765,0.0,0.0,0.0,0.0,0.0,0.0,0.0,0.0,0.0,0.0,0.0,0.0,0.0,0.0,0.0,0.0,0.0,0.0,0.0,0.0,0.0,0.0,0.0,0.0,0.0,0.0,0.0,0.0,0.0,0.0,0.0,0.0,0.0,0.0,0.0,0.0,0.0,0.0,0.0,0.0,0.0,0.0,0.0,0.0,0.0,0.0,0.0,0.0,0.0,0.0,0.0,0.0,0.0,0.0,0.0,0.0,0.0,0.0,0.0,0.0,0.0,0.0,0.0,0.0,0.0,0.0,0.0,0.0,0.0,0.0,0.0,0.0,0.0,0.0,0.0,0.0,0.0,0.0,0.0,0.0,0.0,0.0,0.0,0.0,0.0,0.0,0.0,0.0,0.0,0.0,0.0,0.0,0.0,0.0,0.0,0.0,0.0,0.0,0.0,0.0,0.0,0.0,0.0,0.0,0.0,0.0,0.0,0.0,3.2172,3.5051,3.6344,3.7021,3.6931,3.3659,3.0836,0.0,0.0,0.0,0.0,0.0,0.0,0.0,0.0,0.0,0.0,0.0,0.0,0.0,0.0,0.0,0.0,0.0,0.0,0.0,0.0,0.0,0.0,0.0,0.0,0.0,0.0,0.0,0.0,0.0,0.0,0.0,0.0,0.0,0.0,0.0,0.0,0.0,0.0,0.0,0.0,0.0,0.0,0.0,0.0,0.0,0.0,0.0,0.0,0.0,0.0,0.0,0.0,0.0,0.0,0.0,0.0,0.0,0.0,0.0,0.0,0.0,0.0,0.0,0.0,0.0,0.0,0.0,0.0,0.0,0.0,0.0,0.0,0.0,0.0,0.0,0.0,0.0,0.0,0.0,0.0,0.0,0.0,0.0,0.0,0.0,0.0,0.0,0.0,0.0,0.0,0.0,0.0,0.0,0.0,0.0,0.0,0.0,0.0,0.0,0.0,0.0,0.0,0.0,0.0,0.0,0.0,0.0,0.0,3.3641,3.6389,3.7802,3.8543,3.851,3.516,3.2328,0.0,0.0,0.0,0.0,0.0,0.0,0.0,0.0,0.0,0.0,0.0,0.0,0.0,0.0,0.0,0.0,0.0,0.0,0.0,0.0,0.0,0.0,0.0,0.0,0.0,0.0,0.0,0.0,0.0,0.0,0.0,0.0,0.0,0.0,0.0,0.0,0.0,0.0,0.0,0.0,0.0,0.0,0.0,0.0,0.0,0.0,0.0,0.0,2.2618,0.0,0.0,0.0,0.0,0.0,0.0,0.0,0.0,0.0,0.0,0.0,0.0,0.0,0.0,0.0,0.0,0.0,0.0,0.0,0.0,0.0,0.0,0.0,0.0,0.0,0.0,0.0,0.0,0.0,0.0,0.0,0.0,0.0,0.0,0.0,0.0,0.0,0.0,0.0,0.0,0.0,0.0,0.0,0.0,0.0,0.0,0.0,0.0,0.0,0.0,0.0,0.0,0.0,0.0,0.0,0.0,0.0,0.0,0.0,3.4864,3.6854,3.8638,3.9525,3.9402,3.6741,3.4103,0.0,0.0,0.0,0.0,0.0,0.0,0.0,0.0,0.0,0.0,0.0,0.0,0.0,0.0,0.0,0.0,0.0,0.0,0.0,0.0,0.0,0.0,0.0,0.0,0.0,0.0,0.0,0.0,0.0,0.0,0.0,0.0,0.0,0.0,0.0,0.0,0.0,0.0,0.0,0.0,0.0,0.0,0.0,0.0,0.0,0.0,0.0,0.0,0.0,0.0,0.0,0.0,0.0,0.0,0.0,0.0,0.0,0.0,0.0,0.0,0.0,0.0,0.0,0.0,0.0,0.0,0.0,0.0,0.0,0.0,0.0,0.0,0.0,0.0,0.0,0.0,0.0,0.0,0.0,0.0,0.0,0.0,0.0,0.0,0.0,0.0,0.0,0.0,0.0,0.0,0.0,0.0,0.0,0.0,0.0,0.0,0.0,0.0,0.0,0.0,0.0,0.0,0.0,0.0,0.0,0.0,0.0,3.3387,3.5767,3.7205,3.91,4.0113,4.0045,3.8041,3.5716,3.3235,0.0,0.0,0.0,0.0,0.0,0.0,0.0,0.0,0.0,0.0,0.0,0.0,0.0,0.0,0.0,0.0,0.0,0.0,0.0,0.0,0.0,0.0,0.0,0.0,0.0,0.0,0.0,0.0,0.0,0.0,0.0,0.0,0.0,0.0,0.0,0.0,0.0,0.0,2.3038,2.3575,0.0,0.0,0.0,0.0,0.0,0.0,0.0,0.0,2.5707,0.0,0.0,0.0,0.0,0.0,0.0,0.0,0.0,0.0,0.0,0.0,0.0,0.0,0.0,0.0,0.0,0.0,0.0,0.0,0.0,0.0,0.0,0.0,0.0,0.0,0.0,0.0,0.0,0.0,0.0,0.0,0.0,0.0,0.0,0.0,0.0,0.0,0.0,0.0,0.0,0.0,0.0,0.0,0.0,0.0,0.0,0.0,0.0,0.0,0.0,0.0,0.0,0.0,0.0,0.0,0.0,3.2232,3.4034,3.6137,3.8614,3.9605,4.0113,4.0045,3.8041,3.6228,3.4713,0.0,0.0,0.0,0.0,0.0,0.0,0.0,0.0,0.0,0.0,0.0,0.0,0.0,0.0,0.0,0.0,0.0,0.0,0.0,0.0,0.0,0.0,0.0,0.0,0.0,0.0,0.0,0.0,0.0,0.0,0.0,0.0,0.0,0.0,0.0,0.0,0.0,0.0,0.0,2.3879,2.4252,0.0,0.0,0.0,0.0,0.0,0.0,0.0,0.0,2.6477,0.0,0.0,0.0,0.0,0.0,0.0,0.0,0.0,0.0,0.0,0.0,0.0,0.0,0.0,0.0,0.0,0.0,0.0,0.0,0.0,0.0,0.0,0.0,0.0,0.0,0.0,0.0,0.0,0.0,0.0,0.0,0.0,0.0,0.0,0.0,0.0,0.0,0.0,0.0,0.0,0.0,0.0,0.0,0.0,0.0,0.0,0.0,0.0,0.0,0.0,0.0,0.0,0.0,0.0,0.0,3.3299,3.4716,3.6581,3.8928,3.974,4.0113,4.0079,3.8381,3.6876,0.0,0.0,0.0,0.0,0.0,0.0,0.0,0.0,0.0,0.0,0.0,0.0,0.0,0.0,0.0,0.0,0.0,0.0,0.0,0.0,0.0,0.0,0.0,0.0,0.0,0.0,0.0,0.0,0.0,0.0,0.0,0.0,0.0,0.0,0.0,0.0,0.0,0.0,0.0,0.0,2.554,2.6069,2.6292,0.0,0.0,0.0,0.0,0.0,0.0,2.7817,2.7685,0.0,0.0,0.0,0.0,0.0,0.0,0.0,0.0,0.0,0.0,0.0,0.0,0.0,0.0,0.0,0.0,0.0,0.0,0.0,0.0,0.0,0.0,0.0,0.0,0.0,0.0,0.0,0.0,0.0,0.0,0.0,0.0,0.0,0.0,0.0,0.0,0.0,0.0,0.0,0.0,0.0,0.0,0.0,0.0,0.0,0.0,0.0,0.0,0.0,0.0,0.0,0.0,0.0,0.0,0.0,3.4114,3.5461,3.7103,3.9131,3.9795,4.0113,4.0079,3.8778,3.7456,0.0,0.0,0.0,0.0,0.0,0.0,0.0,0.0,0.0,0.0,0.0,0.0,0.0,0.0,0.0,0.0,0.0,0.0,0.0,0.0,0.0,0.0,0.0,0.0,0.0,0.0,0.0,0.0,0.0,0.0,0.0,0.0,0.0,0.0,0.0,0.0,0.0,0.0,0.0,0.0,0.0,2.8017,2.7895,2.828,0.0,0.0,0.0,0.0,2.9556,2.9536,0.0,0.0,0.0,0.0,0.0,0.0,0.0,0.0,0.0,0.0,0.0,0.0,0.0,0.0,0.0,0.0,0.0,0.0,0.0,0.0,0.0,0.0,0.0,0.0,0.0,0.0,0.0,0.0,0.0,0.0,0.0,0.0,0.0,0.0,0.0,0.0,0.0,0.0,0.0,0.0,0.0,0.0,0.0,0.0,0.0,0.0,0.0,0.0,0.0,0.0,0.0,0.0,0.0,0.0,0.0,0.0,3.4871,3.6182,3.7815,3.9842,4.0045,4.0113,4.0079,3.8862,3.7524,0.0,0.0,0.0,0.0,0.0,0.0,0.0,0.0,0.0,0.0,0.0,0.0,0.0,0.0,0.0,0.0,0.0,0.0,0.0,0.0,0.0,0.0,0.0,0.0,0.0,0.0,0.0,0.0,0.0,0.0,0.0,0.0,0.0,0.0,0.0,0.0,0.0,0.0,0.0,0.0,0.0,2.889,2.8786,2.9602,2.9964,0.0,0.0,3.1162,3.0639,3.2191,0.0,0.0,0.0,0.0,0.0,0.0,0.0,0.0,0.0,0.0,0.0,0.0,0.0,0.0,0.0,0.0,0.0,0.0,0.0,0.0,0.0,0.0,0.0,0.0,0.0,0.0,0.0,0.0,0.0,0.0,0.0,0.0,0.0,0.0,0.0,0.0,0.0,0.0,0.0,0.0,0.0,0.0,0.0,0.0,0.0,0.0,0.0,0.0,0.0,0.0,0.0,0.0,0.0,0.0,0.0,3.3037,3.6172,3.6952,3.8356,4.045,4.0552,4.02,3.9503,3.8635,3.7592,0.0,0.0,0.0,0.0,0.0,0.0,0.0,0.0,0.0,0.0,0.0,0.0,0.0,0.0,0.0,0.0,0.0,0.0,0.0,0.0,0.0,0.0,0.0,0.0,0.0,0.0,0.0,0.0,0.0,0.0,0.0,0.0,0.0,0.0,0.0,0.0,0.0,0.0,0.0,0.0,0.0,0.0,3.0549,3.1787,0.0,0.0,0.0,3.2689,3.2691,0.0,0.0,0.0,0.0,0.0,0.0,0.0,0.0,0.0,0.0,0.0,0.0,0.0,0.0,0.0,0.0,0.0,0.0,0.0,0.0,0.0,0.0,0.0,0.0,0.0,0.0,0.0,0.0,0.0,0.0,0.0,0.0,0.0,0.0,0.0,0.0,0.0,0.0,0.0,0.0,0.0,0.0,0.0,0.0,0.0,0.0,0.0,0.0,0.0,0.0,0.0,0.0,0.0,0.0,0.0,0.0,0.0,3.744,3.7887,3.9068,4.1046,4.1115,4.0585,3.9489,3.8744,0.0,0.0,0.0,0.0,0.0,0.0,0.0,0.0,0.0,0.0,0.0,0.0,0.0,0.0,0.0,0.0,0.0,0.0,0.0,0.0,0.0,0.0,0.0,0.0,0.0,0.0,0.0,2.2997,0.0,0.0,0.0,0.0,0.0,0.0,0.0,0.0,0.0,0.0,0.0,0.0,0.0,0.0,3.2396,3.2694,3.4007,3.4757,0.0,0.0,3.4274,3.4734,3.5407,3.5498,0.0,0.0,0.0,0.0,0.0,0.0,0.0,0.0,0.0,0.0,0.0,0.0,0.0,0.0,0.0,0.0,0.0,0.0,0.0,0.0,0.0,0.0,0.0,0.0,0.0,0.0,0.0,0.0,0.0,0.0,0.0,0.0,0.0,0.0,0.0,0.0,0.0,0.0,0.0,0.0,0.0,0.0,0.0,0.0,0.0,0.0,0.0,0.0,0.0,0.0,0.0,0.0,0.0,0.0,0.0,3.8318,3.9043,4.0131,4.1676,4.1757,4.144,4.0781,3.9519,3.8365,0.0,0.0,0.0,0.0,0.0,0.0,0.0,0.0,0.0,0.0,0.0,0.0,0.0,0.0,0.0,0.0,0.0,0.0,0.0,0.0,0.0,0.0,0.0,0.0,0.0,0.0,0.0,0.0,0.0,0.0,0.0,0.0,0.0,0.0,0.0,0.0,0.0,0.0,0.0,0.0,0.0,3.4264,3.5138,3.5935,3.6441,0.0,0.0,3.6373,3.6429,3.8256,3.8792,3.6039,0.0,0.0,0.0,0.0,0.0,0.0,0.0,0.0,0.0,0.0,0.0,0.0,0.0,0.0,0.0,0.0,0.0,0.0,0.0,0.0,0.0,0.0,0.0,0.0,0.0,0.0,0.0,0.0,0.0,0.0,0.0,0.0,0.0,0.0,0.0,0.0,0.0,0.0,0.0,0.0,0.0,0.0,0.0,0.0,0.0,0.0,0.0,0.0,0.0,0.0,0.0,0.0,0.0,3.6741,3.9146,3.9697,4.0759,4.2271,4.1979,4.1294,4.025,3.8986,3.8013,0.0,0.0,0.0,0.0,0.0,0.0,0.0,0.0,0.0,0.0,0.0,0.0,0.0,0.0,0.0,0.0,0.0,0.0,0.0,0.0,0.0,0.0,0.0,0.0,0.0,0.0,0.0,0.0,2.6028,2.6651,2.6838,0.0,0.0,0.0,0.0,0.0,0.0,0.0,0.0,0.0,0.0,3.5204,3.607,3.7287,0.0,0.0,3.7795,3.8123,3.8207,3.8526,3.845,3.741,3.606,0.0,0.0,0.0,0.0,0.0,0.0,0.0,0.0,0.0,0.0,0.0,0.0,0.0,0.0,0.0,0.0,0.0,0.0,0.0,0.0,0.0,0.0,0.0,0.0,0.0,0.0,0.0,0.0,0.0,0.0,0.0,0.0,0.0,0.0,0.0,0.0,0.0,0.0,0.0,0.0,0.0,0.0,0.0,0.0,0.0,0.0,0.0,0.0,0.0,0.0,0.0,0.0,3.8132,4.0024,4.0612,4.1551,4.2885,4.2531,4.1695,4.0438,3.9351,3.8424,0.0,0.0,0.0,0.0,0.0,0.0,0.0,0.0,0.0,0.0,0.0,0.0,0.0,0.0,0.0,0.0,0.0,0.0,0.0,0.0,0.0,0.0,0.0,0.0,0.0,0.0,0.0,0.0,2.7146,2.773,2.8441,0.0,0.0,0.0,0.0,0.0,0.0,0.0,0.0,0.0,0.0,3.6148,3.7209,3.834,3.8989,3.872,3.8936,3.9244,3.9603,3.8967,3.8479,3.8561,0.0,0.0,0.0,0.0,0.0,0.0,0.0,0.0,0.0,0.0,0.0,0.0,0.0,0.0,0.0,0.0,0.0,0.0,0.0,0.0,0.0,0.0,0.0,0.0,0.0,0.0,0.0,0.0,0.0,0.0,0.0,0.0,0.0,0.0,0.0,0.0,0.0,0.0,0.0,0.0,0.0,0.0,0.0,0.0,0.0,0.0,0.0,0.0,0.0,0.0,0.0,0.0,0.0,3.9452,4.1058,4.1821,4.2636,4.3443,4.3471,4.2875,4.1771,4.1011,3.9869,3.8197,0.0,0.0,0.0,0.0,0.0,0.0,0.0,0.0,0.0,0.0,0.0,0.0,0.0,0.0,0.0,0.0,0.0,0.0,0.0,0.0,0.0,0.0,0.0,0.0,0.0,0.0,2.7921,2.8468,2.9283,0.0,0.0,0.0,0.0,0.0,0.0,0.0,0.0,0.0,0.0,3.6185,3.7209,3.8892,3.9188,3.9521,4.0256,3.9848,3.9679,4.0506,3.9969,3.9455,0.0,0.0,0.0,0.0,0.0,0.0,0.0,0.0,0.0,0.0,0.0,0.0,0.0,0.0,0.0,0.0,0.0,0.0,0.0,0.0,0.0,0.0,0.0,0.0,0.0,0.0,0.0,3.0717,3.1159,0.0,0.0,0.0,0.0,0.0,0.0,0.0,0.0,0.0,0.0,0.0,3.6201,3.6769,0.0,0.0,0.0,0.0,0.0,0.0,0.0,0.0,0.0,0.0,0.0,0.0,4.0354,4.1891,4.2209,4.2698,4.3461,4.316,4.2789,4.2392,4.092,3.9475,3.8208,0.0,0.0,0.0,0.0,0.0,0.0,0.0,0.0,0.0,0.0,0.0,0.0,0.0,0.0,0.0,0.0,0.0,0.0,0.0,0.0,0.0,0.0,0.0,0.0,0.0,2.9604,0.0,0.0,0.0,0.0,0.0,0.0,0.0,0.0,0.0,0.0,0.0,3.5291,3.7115,3.807,3.9017,4.0199,4.0314,4.0369,0.0,0.0,0.0,0.0,0.0,0.0,0.0,0.0,0.0,0.0,0.0,0.0,0.0,0.0,3.6579,3.4914,3.4532,3.4442,3.4442,0.0,0.0,0.0,0.0,0.0,0.0,0.0,0.0,0.0,0.0,0.0,0.0,0.0,0.0,0.0,0.0,3.3517,0.0,0.0,0.0,0.0,0.0,0.0,0.0,0.0,3.7774,3.8559,3.8911,3.9447,3.9698,0.0,4.0304,3.9552,0.0,0.0,0.0,0.0,0.0,0.0,0.0,0.0,4.1383,4.2415,4.2896,4.3277,4.3461,4.3452,4.3164,4.2684,4.1036,3.9692,3.878,3.8159,3.7629,0.0,0.0,0.0,0.0,0.0,0.0,0.0,0.0,0.0,0.0,0.0,0.0,0.0,0.0,0.0,0.0,0.0,0.0,0.0,0.0,0.0,0.0,0.0,3.1585,0.0,0.0,0.0,0.0,0.0,0.0,0.0,0.0,0.0,3.5475,3.6156,3.7217,3.8551,3.9191,3.9915,4.0839,0.0,0.0,0.0,0.0,0.0,0.0,0.0,4.0285,4.0597,4.0077,3.9741,4.0089,4.0519,4.0653,4.0175,0.0,0.0,3.7212,3.669,3.6574,3.6596,3.6868,3.7185,3.7433,3.7537,3.791,0.0,0.0,0.0,0.0,0.0,0.0,0.0,0.0,3.5575,3.6035,0.0,3.6838,0.0,0.0,0.0,0.0,0.0,0.0,0.0,0.0,4.0663,4.1539,4.2221,4.2354,4.2396,4.2388,4.2424,4.2021,4.1234,4.039,0.0,0.0,0.0,0.0,0.0,0.0,4.2524,4.2627,4.3934,4.4342,4.3653,4.4333,4.4108,4.2775,4.1451,4.0479,3.9868,3.9251,3.8715,3.8242,3.7052,0.0,0.0,0.0,0.0,0.0,0.0,0.0,0.0,0.0,0.0,0.0,0.0,0.0,0.0,0.0,0.0,0.0,0.0,0.0,0.0,3.3165,0.0,0.0,0.0,0.0,0.0,0.0,0.0,0.0,0.0,0.0,3.6554,3.7621,3.8768,3.9652,0.0,0.0,0.0,0.0,4.1012,4.1439,4.1597,4.1698,4.1687,4.145,4.1487,4.1954,0.0,0.0,4.1503,4.1648,4.1792,4.1715,4.2214,4.1907,3.9836,3.9319,3.9174,3.9242,3.977,4.0434,4.1089,4.117,4.142,3.912,0.0,0.0,0.0,0.0,3.668,3.7524,3.8807,3.8534,3.9015,3.9995,3.9252,0.0,0.0,0.0,0.0,0.0,0.0,4.0203,4.1531,4.2416,4.3232,4.4013,4.459,4.4856,4.4856,4.4856,4.4745,4.4488,4.3692,4.2622,4.1267,0.0,0.0,0.0,0.0,4.3053,4.4093,4.4504,4.4856,4.5195,4.5443,4.4921,4.3589,4.2649,4.1624,4.062,3.9926,3.9341,3.8944,3.8116,0.0,0.0,0.0,0.0,0.0,0.0,0.0,0.0,0.0,0.0,0.0,0.0,0.0,0.0,0.0,0.0,0.0,0.0,0.0,3.5571,3.6118,3.626,0.0,0.0,0.0,0.0,0.0,0.0,0.0,0.0,0.0,3.9403,3.9608,4.007,0.0,0.0,4.1456,4.2429,4.224,4.2335,4.3342,0.0,0.0,0.0,4.308,4.3104,4.3278,4.3527,4.3712,4.3687,4.4139,4.449,4.438,4.4606,4.4538,4.392,4.2864,4.2394,4.2875,4.3179,4.3382,4.3586,4.3619,4.4014,4.3606,4.1576,4.0649,3.9987,3.969,4.0103,4.0896,4.1914,4.1709,4.202,4.2677,4.2363,4.1835,4.1126,4.0605,0.0,0.0,0.0,4.2808,4.3754,4.4892,4.5663,4.6168,4.6985,4.7361,4.7361,4.7021,4.6691,4.6361,4.5626,4.4565,4.3238,0.0,0.0,4.3582,4.3484,4.4044,4.5254,4.5552,4.5727,4.5883,4.5883,4.5343,4.426,4.3722,4.2904,4.1671,4.0953,4.0376,3.9899,3.9073,3.8663,0.0,0.0,0.0,0.0,0.0,0.0,0.0,0.0,0.0,0.0,0.0,3.3539,0.0,0.0,0.0,0.0,3.5557,3.6588,3.768,3.8047,0.0,0.0,0.0,0.0,0.0,0.0,0.0,4.0204,4.0486,4.0861,4.1426,4.1675,4.1856,4.1927,4.2197,4.2694,4.3347,0.0,4.3709,4.45,4.4571,4.4448,4.4307,4.4464,4.4655,4.4812,4.5069,4.5323,4.5334,4.5675,4.5935,4.5933,4.6218,4.6584,4.6831,4.6387,4.5904,4.5869,4.609,4.6353,4.665,4.6719,4.7074,4.7333,4.7094,4.4839,4.3342,4.2493,4.334,4.4225,4.5067,4.503,4.503,4.514,4.581,4.5268,4.391,4.3873,0.0,4.4993,4.5773,4.6104,4.626,4.7756,4.8482,4.8526,4.9346,4.9723,4.9647,4.8893,4.8113,4.7416,4.6627,4.6322,4.6313,4.4721,4.4285,4.5043,4.4957,4.5319,4.6166,4.6765,4.6755,4.6104,4.5957,4.5553,4.4847,4.4663,4.3999,4.2739,4.2144,4.1549,4.092,3.9922,3.934,3.9378,0.0,0.0,0.0,0.0,0.0,0.0,0.0,0.0,0.0,0.0,0.0,0.0,0.0,0.0,0.0,3.7635,0.0,3.8955,3.9346,0.0,0.0,0.0,4.049,4.0346,4.0447,4.0817,4.1444,0.0,0.0,4.2659,0.0,4.3693,4.2697,4.3141,4.3673,4.4029,4.4551,4.4997,4.5348,4.5413,4.5424,4.5385,4.5706,4.6018,4.62,4.6436,4.6483,4.6578,4.6648,4.659,4.6755,4.7381,4.8173,4.8836,4.9487,4.9749,4.8437,4.8613,4.9224,4.9725,4.9854,5.0044,4.9554,4.9003,4.9001,4.7799,4.592,4.6122,4.7076,4.8352,4.7719,4.7829,4.8389,4.7939,4.7535,4.7168,4.7168,4.7278,4.7462,4.7636,4.8086,4.8748,4.9426,4.9908,5.0245,5.075,5.0805,5.0528,5.0315,5.0095,4.9848,4.8472,4.8124,4.8648,4.7077,4.614,4.5842,4.5824,4.6139,4.6866,4.7021,4.7296,4.7672,4.6544,4.581,4.5626,4.4415,4.3424,4.2749,4.2567,4.1989,4.0955,4.0665,4.0372,4.0077,4.0303,0.0,0.0,0.0,0.0,0.0,0.0,0.0,0.0,0.0,3.6676,3.7812,0.0,3.7975,0.0,3.9299,4.0156,4.066,4.1283,0.0,0.0,4.1929,4.2149,4.1433,4.1736,4.214,4.249,4.2395,4.2496,4.2995,4.3342,4.3743,4.409,4.4563,4.5084,4.5759,4.5729,4.6057,4.7015,4.7016,4.6896,4.685,4.6967,4.6884,4.6448,4.6842,4.7359,4.7969,4.8152,4.8389,4.8933,4.9697,5.0288,5.0425,5.1095,5.1668,5.1757,5.1203,5.0629,5.0828,5.0841,5.1053,5.1069,5.0665,5.0765,5.0205,4.9251,4.8884,4.926,5.0078,4.9627,4.9701,5.0115,4.9627,4.9407,4.9407,4.9407,4.9506,4.9686,5.0065,5.0379,5.0723,5.1673,5.2022,5.1916,5.2517,5.2544,5.2116,5.1793,5.1519,5.1263,5.0031,4.9664,5.0115,4.9214,4.8545,4.8198,4.7849,4.7849,4.8196,4.8233,4.8269,4.826,4.7085,4.6452,4.6507,4.5294,4.4535,4.4273,4.361,4.2955,4.2228,4.1562,4.1059,4.0801,4.1082,4.1136,0.0,0.0,0.0,0.0,0.0,0.0,0.0,0.0,0.0,0.0,0.0,3.9559,0.0,4.0804,0.0,4.186,4.2358,4.2539,4.234,4.2859,4.306,4.254,4.2768,4.2995,4.3142,4.3023,4.3041,4.3313,4.4052,4.4655,4.5177,4.6064,4.6669,4.6749,4.6864,4.7264,4.8009,4.7945,4.7797,4.7797,4.7797,4.7814,4.7876,4.8155,4.8644,4.9434,4.9658,4.98,5.0221,5.0902,5.1511,5.1475,5.2064,5.271,5.2948,5.2602,5.2101,5.2006,5.2042,5.2172,5.23,5.2264,5.1563,5.1674,5.2274,5.1563,5.1229,5.116,5.1206,5.1199,5.1268,5.1268,5.1268,5.1268,5.1268,5.1444,5.1824,5.2533,5.2644,5.2417,5.3996,5.4245,5.3405,5.4321,5.4459,5.385,5.3159,5.2642,5.232,5.149,5.1158,5.1268,5.1126,5.1049,5.1012,5.0401,4.9968,4.9757,4.9647,4.9243,4.8472,4.7581,4.7197,4.727,4.6533,4.6126,4.6187,4.4848,4.4053,4.3888,4.2458,4.1587,4.1456,4.1655,4.1828,0.0,4.1659,0.0,0.0,0.0,0.0,0.0,0.0,0.0,0.0,4.0198,4.0555,4.1439,4.2024,4.2428,4.271,4.2873,4.3032,4.3224,4.3368,4.341,4.3497,4.3506,4.3506,4.3506,4.3506,4.3506,4.3534,4.4819,4.5736,4.5911,4.7039,4.7708,4.7433,4.7818,4.8221,4.8296,4.8296,4.8238,4.8248,4.8387,4.8708,4.9388,4.9625,5.0041,5.0772,5.0908,5.0992,5.1149,5.1705,5.2166,5.2171,5.2726,5.3156,5.3203,5.3114,5.3082,5.3092,5.3071,5.3214,5.4021,5.4021,5.3862,5.3908,5.4021,5.3862,5.3573,5.3237,5.3237,5.343,5.3787,5.3796,5.3796,5.3796,5.3796,5.3837,5.3919,5.407,5.411,5.4093,5.5417,5.5426,5.4373,5.5486,5.5465,5.4417,5.422,5.4104,5.4013,5.3157,5.3082,5.375,5.275,5.2261,5.228,0.0,0.0,0.0,4.9931,4.953,4.9386,4.7997,4.7307,4.7369,4.6593,0.0,4.6159,4.5265,4.4501,4.3988,4.3012,0.0,0.0,0.0,0.0,0.0,0.0,0.0,0.0,0.0,0.0,0.0,4.265,4.2402,4.2183,4.2241,4.2284,4.2243,4.2688,4.2929,4.2713,4.3114,4.3374,4.3445,4.3463,4.3489,4.3506,4.3506,4.3506,4.3506,4.3506,4.3506,4.3579,4.4342,4.5186,4.5847,4.6718,4.7489,4.8003,4.8186,4.8296,4.8296,4.8296,4.8296,4.8296,4.8857,4.9307,4.9637,5.0188,5.0839,5.1573,5.1767,5.205,5.2553,5.2884,5.2957,5.2957,5.3104,5.3214,5.3214,5.3214,5.3214,5.3214,5.3214,5.3214,5.4492,0.0,5.4492,5.4492,0.0,5.4492,5.4484,5.4414,5.4238,5.4272,5.4484,5.4492,5.4492,5.4492,5.4492,5.464,5.479,5.5252,5.5551,5.5769,5.6824,5.7003,5.6379,5.7054,5.688,5.6057,5.6011,5.5686,5.5112,5.4659,5.4462,5.4476,5.3858,5.3524,5.3553,5.3516,5.2793,5.14,5.0996,5.0391,4.9642,4.8428,4.7666,4.7352,0.0,0.0,0.0,0.0,0.0,0.0,0.0,0.0,0.0,0.0,0.0,4.2729,4.2863,4.3013,4.3233,4.3251,4.3251,4.3349,4.3321,4.3277,4.3041,4.3133,4.3124,4.2985,4.3187,4.3295,4.3133,4.333,4.3506,4.3506,4.3506,4.3506,4.3506,4.3506,4.3506,4.3506,4.3506,4.3506,4.3506,4.4562,4.5397,4.5883,4.6938,4.7819,4.8223,4.8296,4.8296,4.8296,4.8296,4.8296,4.837,4.9013,4.9794,5.0151,5.0875,5.1646,5.2454,5.2601,5.2747,5.3104,5.3214,5.3214,5.3214,5.3214,5.3214,5.3214,5.3214,5.3214,5.3214,5.3508,5.3801,5.5087,5.4936,5.4936,5.486,5.4708,5.4708,5.4966,5.5415,0.0,0.0,0.0,5.486,5.4936,5.4936,5.5133,5.5339,5.5695,5.6403,5.6931,5.7247,5.8127,5.8429,5.8313,5.8429,5.8224,5.774,5.7734,5.7201,5.6179,5.6133,5.5746,5.5011,5.4867,5.4714,5.4468,5.4031,5.3328,5.2371,5.2102,5.1373,5.0071,4.9069,4.8309,4.7758,4.6947,4.6504,4.6389,4.5564,4.5007,4.4716,4.3769,4.3224,4.3187,4.3178,4.3178,4.3178,4.3214,4.3304,4.3421,4.3429,4.3465,4.3497,4.3506,4.3471,4.3402,4.3463,4.3506,4.3506,4.3506,4.3506,4.3506,4.3506,4.3506,4.3506,4.3506,4.3543,4.3681,4.3726,4.3763,4.3718,4.3763,4.3726,4.3791,4.4975,4.6003,4.6287,4.7379,4.8296,4.8296,4.8296,4.8296,4.8296,4.8296,4.8296,4.8443,4.9233,5.0004,5.0655,5.1536,5.2417,5.2994,5.3214,5.3214,5.3177,5.3214,5.3214,5.3214,5.3214,5.3214,5.3214,5.3214,5.3251,5.3434,5.4058,5.4509,5.7309,5.6662,5.6623,5.6201,5.5549,5.5543,5.5994,5.6648,5.5867,5.5543,5.5581,5.6316,5.6623,5.67,5.7424,5.7793,5.7872,5.7987,5.8087,0.0,5.8973,5.8973,5.8352,5.9006,5.895,5.8256,5.8212,5.8118,5.7923,5.7917,5.75,5.6703,5.6313,5.5577,5.456,5.4031,5.3712,5.3525,5.2515,5.1918,5.1741,5.0279,4.948,4.9418,4.8661,4.7895,4.7248,4.6375,4.5585,4.4905,4.3964,4.3463,4.3445,4.3437,4.3445,4.3445,4.3463,4.3471,4.3489,4.3489,4.3497,4.3506,4.3506,4.3497,4.3489,4.3497,4.3506,4.3506,4.3506,4.3506,4.3506,4.3506,4.3543,4.3543,4.3506,4.3763,4.4443,4.4516,4.4525,4.4525,4.4516,4.4525,4.4626,4.5333,4.6177,4.6865,4.7672,4.8296,4.8296,4.8296,4.8296,4.8296,4.8296,4.8296,4.8443,4.9618,5.0508,5.0765,5.205,5.2957,5.3177,5.3214,5.3214,5.3214,5.3214,5.3214,5.3214,5.3214,5.3214,5.3214,5.3214,5.3398,5.3995,5.4803,5.5207,5.7363,5.7016,5.7016,5.6753,5.6439,5.6896,5.7357,5.7665,5.728,5.7126,5.7165,5.7511,5.7709,5.7742,5.8127,5.8275,5.8313,5.8742,5.8934,5.9006,5.9819,6.0012,5.9704,6.0056,6.0012,5.9665,5.9665,5.9435,5.9011,5.8934,5.855,5.7698,5.7072,5.6072,5.4909,5.4632,5.4382,5.417,5.3173,5.2475,5.2048,5.1323,5.0341,4.9028,4.8586,4.7859,4.6644,4.6203,4.5625,4.4807,4.4396,4.3983,4.3543,4.3506,4.369,4.4121,4.4158,4.4342,4.4791,4.4791,4.4791,4.4782,4.4791,4.4828,4.4791,4.4378,4.3983,4.3579,4.3864,4.3938,4.3579,4.391,4.4158,4.4158,4.4525,4.4929,4.5259,4.536,4.5369,4.5287,4.4957,4.4847,4.5287,4.5663,4.6214,4.7003,4.7783,4.8306,4.8296,4.8296,4.8296,4.8296,4.8296,4.8296,4.837,4.9691,5.0655,5.0802,5.215,5.3067,5.3214,5.3214,5.3214,5.3214,5.3214,5.3214,5.3214,5.3214,5.3214,5.3214,5.3214,5.3508,5.4252,5.5354,5.6198,5.7715,5.7555,5.7555,5.744,5.7363,5.8011,5.8396,5.8544,5.8588,5.8665,5.8819,5.8665,5.8583,5.8588,5.8781,5.8852,5.8934,5.9511,5.9819,5.9858,6.0473,6.0781,6.0781,6.0781,6.0781,6.0781,6.0781,6.0435,5.9858,5.9781,5.939,5.855,5.7703,5.6821,5.5849,5.5726,5.5427,5.4912,5.4177,5.3323,5.2428,5.2169,5.1059,4.9334,4.8957,4.8122,4.6581,4.6434,4.5993,4.5067,4.4957,4.4672,4.4093,4.4057,4.4305,4.4883,4.4957,4.5214,4.581,4.5883,4.5929,4.6045,4.6054,4.6061,4.6128,4.5776,4.5083,4.4321,4.4635,4.4709,4.4331,4.4693,4.5096,4.5133,4.5649,4.608,4.6275,4.6213,4.6177,4.6104,4.5617,4.5507,4.589,4.6192,4.6661,4.7472,4.8062,4.8365,4.8335,4.8296,4.8296,4.8296,4.8296,4.8296,4.8406,4.9691,5.0655,5.0802,5.2123,5.2994,5.3214,5.3214,5.3214,5.3214,5.3214,5.3214,5.3214,5.3214,5.3214,5.3214,5.3214,5.3544,5.4583,5.5794,5.6969,5.9935,5.9319,5.9165,5.8858,5.8242,5.8313,5.8742,5.9358,5.9396,5.9858,6.0358,5.9742,5.9396,5.9511,6.0204,6.0473,6.0512,6.0633,6.0633,6.0627,6.0742,6.0781,6.0781,6.0781,6.0781,6.0781,6.0781,6.0742,6.0627,6.0627,6.0204,5.9396,5.8583,5.811,5.7937,5.7532,5.6938,5.6255,5.573,5.4862,5.3647,5.2572,5.1877,5.1693,5.0912,4.9774,4.8186,4.8086,4.7352,4.5957,4.581,4.5736,4.5663,4.5672,4.57,4.5782,4.5819,4.5847,4.5929,4.5883,4.6144,4.6397,4.6528,4.6687,4.7031,4.7563,4.7295,4.614,4.5782,4.5781,4.5745,4.6045,4.6321,4.6321,4.6507,4.673,4.7343,4.7203,4.7003,4.6975,4.6902,4.6792,4.6665,4.7136,4.7822,4.8484,4.8707,4.8744,4.8514,4.843,4.8421,4.8382,4.8325,4.8316,4.8489,4.9738,5.0655,5.0912,5.216,5.2994,5.3214,5.3214,5.3214,5.3214,5.3214,5.3214,5.3214,5.3214,5.3214,5.3434,5.3508,5.3765,5.5133,5.6235,5.7152,5.9127,5.8781,5.8775,5.9204,5.9742,5.9781,5.9973,6.0242,6.0281,6.0479,6.0748,6.0435,6.0281,6.0281,6.0627,6.0781,6.0781,6.0781,6.0781,6.0781,6.0781,6.0781,6.0781,6.0781,6.0781,6.0781,6.0781,6.0781,6.0781,6.0781,6.0358,5.955,5.9165,5.8781,5.8308,5.7583,5.7063,5.675,5.5805,5.5071,5.4547,5.3598,5.2824,5.2361,5.1791,5.0986,4.9884,4.9334,4.8526,4.7425,4.6865,4.6388,4.5929,4.5883,4.6104,4.659,4.7304,4.7684,4.7684,4.7884,4.8111,4.8281,4.8288,4.837,4.8515,4.8839,4.8686,4.8119,4.7607,4.7166,4.6763,4.7215,4.7574,4.7612,4.7973,4.8408,4.8694,4.8621,4.8509,4.8509,4.8077,4.7967,4.819,4.8536,4.8881,4.9219,4.9257,4.9155,4.9002,4.9023,4.9031,4.8953,4.8822,4.8541,4.8511,4.9701,5.0618,5.1049,5.215,5.3177,5.3214,5.3214,5.3214,5.3214,5.3214,5.3214,5.3214,5.3251,5.3287,5.3691,5.4866,5.5563,5.6198,5.6932,5.7593,5.8973,5.9011,5.9011,5.9665,6.0787,6.0781,6.0781,6.0781,6.0781,6.0781,6.0781,6.0781,6.0781,6.0781,6.0781,6.0781,6.0781,6.0781,6.0781,6.0781,6.0781,6.0781,6.0781,6.0781,6.0781,6.0781,6.0781,6.0781,6.0781,6.0781,6.0473,5.9935,5.9858,5.9588,5.8973,5.8325,5.7907,5.7648,5.6752,5.6212,5.5905,5.504,5.406,5.3219,5.2847,5.2314,5.1509,5.088,5.0185,4.9342,4.8547,4.7843,4.7296,4.7028,4.7168,4.7732,4.858,4.9059,4.9067,4.9341,4.954,4.9638,4.9659,4.9738,4.9819,4.9846,4.9846,4.9732,4.9296,4.8618,4.7968,4.8383,4.8778,4.8816,4.9363,4.9652,4.9659,4.9582,4.943,4.9421,4.891,4.8857,4.9456,4.9507,4.9459,4.9604,4.9652,4.9582,4.9518,4.9467,4.9467,4.9482,4.9226,4.8911,4.8688,4.977,5.0649,5.1132,5.2113,5.3177,5.3214,5.3214,5.3214,5.3214,5.3214,5.3214,5.3214,5.3251,5.3503,5.4326,5.528,5.6271,5.659,5.7299,5.7666,6.071,6.0606,6.0677,6.0706,6.0793,6.081,6.0804,6.0844,6.0804,6.0793,6.0804,6.0781,6.0781,6.0781,6.0781,6.0781,6.0781,6.0781,6.0781,6.0781,6.0781,6.0781,6.0781,6.0781,6.0781,6.0781,6.0781,6.0781,6.0781,6.0781,6.0781,6.0704,6.0666,6.0666,6.0517,6.0358,6.0165,5.9269,5.9015,5.8785,5.802,5.6849,5.5615,5.4577,5.4382,5.3882,5.3176,5.3041,5.2581,5.1828,5.0945,5.0538,5.044,4.9694,4.9205,4.9333,4.9408,4.9475,4.9475,4.9532,4.9725,4.9993,5.0093,5.0212,5.0488,5.0514,5.0514,5.0614,5.0453,5.0073,4.9469,4.9613,4.9902,4.9947,5.0017,5.0093,5.0049,4.9819,4.9532,4.9554,4.9528,4.9627,4.9992,4.9663,4.974,4.9936,5.0093,4.9968,4.9731,4.9575,4.9582,4.9582,4.9504,4.9341,4.9115,5.011,5.0799,5.1399,5.2439,5.3314,5.3209,5.3214,5.322,5.3261,5.3369,5.3369,5.3251,5.3393,5.375,5.4254,5.4615,5.5365,5.6345,5.6675,5.7116,5.946,5.9572,6.0662,6.1128,6.1089,6.1128,6.1128,6.1112,6.0973,6.0906,6.091,6.0839,6.0781,6.0781,6.0781,6.0781,6.0781,6.0781,6.0781,6.0781,6.0781,6.0781,6.0781,6.0781,6.0781,6.0781,6.0781,6.0781,6.0781,6.0781,6.0781,6.0781,6.0781,6.0781,6.0704,6.0242,5.9781,5.9511,5.9011,5.8583,5.8313,5.7294,5.6528,5.6053,5.5064,5.4341,5.4047,5.3519,5.3074,5.2779,5.1994,5.1352,5.0771,4.9964,4.9496,4.9518,4.9765,4.9891,4.9917,5.0135,5.0325,5.0467,5.0483,5.0509,5.0682,5.0707,5.0707,5.0707,5.0707,5.0509,5.0386,5.0391,5.0483,5.0483,5.0478,5.0472,5.0472,5.0347,5.0285,5.0285,5.0285,5.0341,5.0363,5.034,5.0317,5.0432,5.0483,5.0418,5.0325,5.0279,5.0245,5.0201,5.0037,4.9814,4.9714,5.077,5.174,5.245,5.3282,5.3826,5.3997,5.3924,5.3961,5.3897,5.3879,5.386,5.3861,5.4043,5.4311,5.4704,5.5003,5.5311,5.5915,5.6683,5.6991,5.9541,5.9733,6.0819,6.1325,6.1325,6.1325,6.1325,6.1274,6.1165,6.1105,6.1073,6.1016,6.0938,6.086,6.085,6.0828,6.0793,6.0781,6.0781,6.0781,6.0781,6.0781,6.0781,6.0781,6.0781,6.0781,6.0781,6.0781,6.0781,6.0781,6.0781,6.0781,6.0781,6.0781,6.0666,6.0204,5.9935,5.9819,5.9358,5.9127,5.9011,5.8242,5.7824,5.7538,5.6172,5.5149,5.4876,5.4313,5.4016,5.3909,5.3238,5.2288,5.1241,5.062,5.0157,4.9962,5.0147,5.0302,5.0325,5.053,5.0664,5.0707,5.0707,5.0707,5.0707,5.0707,5.0707,5.0707,5.0707,5.0707,5.0707,5.0702,5.0707,5.0707,5.0707,5.0707,5.0707,5.0702,5.0654,5.0639,5.0629,5.0654,5.0707,5.0664,5.0664,5.0707,5.0707,5.0707,5.0707,5.0938,5.0938,5.0813,5.1075,5.1008,5.1097,5.1973,5.2167,5.2748,5.3728,5.4335,5.4586,5.4563,5.4555,5.4524,5.4508,5.45,5.4584,5.473,5.502,5.5388,5.5683,5.5965,5.6482,5.7019,5.7121,6.1223,6.1156,6.1331,6.132,6.1328,6.137,6.1345,6.132,6.1298,6.1289,6.1283,6.1265,6.115,6.1036,6.1001,6.0916,6.0823,6.0833,6.081,6.0787,6.0781,6.0781,6.0781,6.0781,6.0781,6.0781,6.0781,6.0781,6.0781,6.0781,6.0781,6.0781,6.0781,6.0781,6.0781,6.0704,6.0742,6.0666,6.055,6.0633,6.0666,5.9742,5.9281,5.9165,5.7735,5.6521,5.5737,5.5621,5.5478,5.5457,5.4847,5.3692,5.2207,5.1741,5.147,5.0714,5.0687,5.0692,5.0649,5.0697,5.0707,5.0707,5.0707,5.0707,5.0707,5.0707,5.0707,5.0707,5.0707,5.0707,5.0707,5.0707,5.0707,5.0707,5.0707,5.0707,5.0707,5.0707,5.0707,5.0707,5.0707,5.0707,5.0707,5.0707,5.0707,5.0707,5.0707,5.0707,5.0784,5.1279,5.1433,5.1207,5.1657,5.2181,5.2646,5.3112,5.2838,5.2862,5.3942,5.4738,5.4812,5.4826,5.4869,5.4855,5.4869,5.4862,5.484,5.5019,5.5257,5.5647,5.6041,5.6149,5.6247,5.6478,5.6967,6.1226,6.0797,6.1344,6.1579,6.1579,6.1579,6.1579,6.1574,6.1491,6.1422,6.1448,6.1331,6.1256,6.122,6.1207,6.1105,6.0935,6.092,6.0908,6.0821,6.0787,6.0781,6.0781,6.0781,6.0781,6.0781,6.0781,6.0781,6.0781,6.0781,6.0781,6.0781,6.0781,6.0781,6.0781,6.0781,6.0781,6.0781,6.0781,6.0781,6.071,5.9935,5.9511,5.9396,5.8434,5.7473,5.6626,5.6011,5.5708,5.5708,5.5439,5.4549,5.3082,5.2236,5.1505,5.0822,5.0707,5.0707,5.0707,5.0707,5.0707,5.0707,5.0707,5.0707,5.0707,5.0707,5.0707,5.0707,5.0707,5.0707,5.0707,5.0707,5.0707,5.0707,5.0707,5.0707,5.0707,5.0707,5.0707,5.0707,5.0707,5.0707,5.0707,5.0707,5.0707,5.0707,5.0707,5.0707,5.0822,5.1433,5.1543,5.101,5.2164,5.3044,5.2928,5.3395,5.3809,5.369,5.4422,5.5049,5.5127,5.5153,5.5186,5.5199,5.5212,5.5212,5.5192,5.528,5.5517,5.548,5.5597,5.5544,5.5417,5.5956,5.6842,6.1367,6.0976,6.1484,6.1719,6.1719,6.1719,6.1719,6.168,6.159,6.1579,6.1571,6.1496,6.1406,6.1373,6.1366,6.1286,6.1132,6.1081,6.104,6.0882,6.0816,6.0787,6.0781,6.0781,6.0781,6.0781,6.0781,6.0781,6.0781,6.0781,6.0781,6.0781,6.0781,6.0781,6.0781,6.0781,6.0781,6.0781,6.0781,6.0781,6.0704,6.0281,5.9973,5.9858,5.9165,5.8511,5.789,5.6819,5.6016,5.5785,5.5708,5.5011,5.378,5.3164,5.2351,5.1395,5.1125,5.1048,5.0784,5.0707,5.0707,5.0707,5.0707,5.0707,5.0707,5.0707,5.0707,5.0707,5.0707,5.0707,5.0707,5.0707,5.0707,5.0707,5.0707,5.0707,5.0707,5.0707,5.0707,5.0707,5.0707,5.0707,5.0707,5.0707,5.0707,5.0707,5.0707,5.0707,5.0938,5.1702,5.1587,5.1933,5.3164,5.3395,5.2774,5.351,5.4631,5.4814,5.5006,5.5345,5.5487,5.5487,5.5537,5.5481,5.5526,5.547,5.5458,5.5455,5.5555,5.5407,5.5684,5.6558,5.7113,5.692,5.7492,6.168,6.1719,6.1719,6.1719,6.1719,6.1719,6.1719,6.1719,6.1719,6.168,6.168,6.168,6.163,6.1519,6.1509,6.1422,6.132,6.1298,6.121,6.1044,6.0874,6.08,6.0793,6.0781,6.0781,6.0781,6.0781,6.0781,6.0781,6.0781,6.0781,6.0781,6.0781,6.0781,6.0781,6.0781,6.0781,6.0781,6.0781,6.0781,6.0781,6.0787,6.0748,6.0666,5.9973,5.9473,5.905,5.7709,5.6516,5.5824,5.5708,5.5324,5.4626,5.4477,5.3587,5.212,5.1967,5.1548,5.1015,5.0899,5.0784,5.0707,5.0707,5.0707,5.0707,5.0707,5.0707,5.0707,5.0707,5.0707,5.0707,5.0707,5.0707,5.0707,5.0707,5.0707,5.0707,5.0707,5.0707,5.0707,5.0707,5.0707,5.0707,5.0707,5.0707,5.0707,5.0707,5.0707,5.1015,5.1702,5.2428,5.3121,5.378,5.4087,5.3587,5.4164,5.517,5.5208,5.5362,5.5516,5.5708,5.5708,5.5708,5.5708,5.5708,5.5708,5.5692,5.5632,5.5928,5.6314,5.7105,5.8342,5.8342,5.7719,5.7651,6.1719,6.1719,6.1719,6.1719,6.1719,6.1719,6.1719,6.1719,6.1719,6.1719,6.1719,6.1719,6.168,6.164,6.164,6.1579,6.1487,6.1428,6.1366,6.1217,6.1014,6.0864,6.0821,6.0781,6.0781,6.0781,6.0781,6.0781,6.0781,6.0781,6.0781,6.0781,6.0781,6.0781,6.0781,6.0781,6.0781,6.0781,6.0781,6.0781,6.0781,6.0781,6.0781,6.0781,6.055,6.0089,5.9435,5.7863,5.6593,5.5785,5.5708,5.5357,5.4664,5.4549,5.4049,5.3121,5.2813,5.2467,5.1813,5.1543,5.1318,5.0745,5.0745,5.0707,5.0707,5.0707,5.0707,5.0707,5.0707,5.0707,5.0707,5.0707,5.0707,5.0707,5.0707,5.0707,5.0707,5.0707,5.0707,5.0707,5.0707,5.0707,5.0707,5.0707,5.0707,5.0707,5.0707,5.0707,5.1015,5.201,5.2928,5.3044,5.3582,5.428,5.4741,5.5203,5.5549,5.5549,5.5593,5.5593,5.5708,5.5708,5.5708,5.5708,5.5708,5.5708,5.5708,5.5682,5.6319,5.7088,5.7482,5.8093,5.7675,5.7157,5.7516,6.1719,6.1719,6.1719,6.1719,6.1719,6.1719,6.1719,6.1719,6.1719,6.1719,6.1719,6.1719,6.1719,6.1719,6.1719,6.164,6.1583,6.1581,6.1508,6.1359,6.1135,6.0945,6.0811,6.0781,6.0781,6.0781,6.0781,6.0781,6.0781,6.0781,6.0781,6.0781,6.0781,6.0781,6.0781,6.0781,6.0781,6.0781,6.0781,6.0781,6.0781,6.0781,6.0781,6.0781,6.0781,6.0402,5.9435,5.8204,5.7011,5.6016,5.567,5.5472,5.5088,5.5011,5.4587,5.3818,5.3741,5.339,5.2582,5.2154,5.189,5.1587,5.1241,5.1169,5.1399,5.1207,5.0745,5.1202,5.0938,5.0707,5.0707,5.0707,5.0707,5.0707,5.0707,5.0707,5.0707,5.0707,5.0707,5.0707,5.0707,5.0707,5.0707,5.0707,5.0707,5.0707,5.0707,5.0707,5.0861,5.2202,5.3236,5.3351,5.3928,5.478,5.5126,5.5511,5.5626,5.567,5.567,5.5708,5.5708,5.5708,5.5708,5.5708,5.5708,5.5747,5.5862,5.6209,5.7049,5.7588,5.7671,5.8049,5.8067,5.7841,5.8094,6.1719,6.1719,6.1719,6.1719,6.1719,6.1719,6.1719,6.1719,6.1719,6.1719,6.1719,6.1719,6.1719,6.1719,6.1719,6.1719,6.168,6.168,6.1587,6.1435,6.122,6.1036,6.0867,6.081,6.0787,6.0781,6.0781,6.0781,6.0781,6.0781,6.0781,6.0781,6.0781,6.0781,6.0781,6.0781,6.0781,6.0781,6.0781,6.0781,6.0781,6.0781,6.0781,6.0781,6.0781,6.0358,5.955,5.8627,5.7511,5.5939,5.5785,5.567,5.567,5.567,5.5362,5.478,5.4587,5.4241,5.3433,5.2736,5.2467,5.2702,5.1625,5.1515,5.2356,5.1779,5.1241,5.2005,5.1279,5.0933,5.0707,5.0707,5.0707,5.0707,5.0707,5.0707,5.0707,5.0707,5.0707,5.0707,5.0707,5.0707,5.0707,5.0707,5.0707,5.0707,5.0745,5.0861,5.1241,5.2356,5.3159,5.3582,5.4434,5.5516,5.5631,5.567,5.567,5.567,5.567,5.5708,5.5708,5.5708,5.5708,5.5708,5.5708,5.5939,5.6285,5.6863,5.7555,5.8088,5.8171,5.9209,6.0086,5.9613,5.9557,6.1719,6.1719,6.1719,6.1719,6.1719,6.1719,6.1719,6.1719,6.1719,6.1719,6.1719,6.1719,6.1719,6.1719,6.1719,6.1719,6.1719,6.1719,6.164,6.1505,6.1437,6.1217,6.1005,6.086,6.0798,6.0787,6.0781,6.0781,6.0781,6.0781,6.0781,6.0781,6.0781,6.0781,6.0781,6.0781,6.0781,6.0781,6.0781,6.0781,6.0781,6.0781,6.0781,6.0781,6.0781,6.0358,5.955,5.8736,5.7819,5.6863,5.6132,5.5785,5.5708,5.5708,5.5555,5.5439,5.5357,5.5049,5.4357,5.3972,5.3697,5.3236,5.2428,5.2087,5.2967,5.2313,5.212,5.2544,5.212,5.1471,5.0976,5.0745,5.0784,5.0822,5.0745,5.0707,5.0707,5.0707,5.0707,5.0707,5.0707,5.0707,5.0707,5.0707,5.0707,5.0707,5.0822,5.101,5.1702,5.2544,5.3197,5.3818,5.4741,5.567,5.5708,5.5708,5.5708,5.5708,5.5708,5.5708,5.5708,5.5708,5.5708,5.5708,5.5708,5.6016,5.6439,5.6786,5.7324,5.7978,5.8704,5.9473,6.0136,6.0303,6.0578,6.1719,6.1719,6.1719,6.1719,6.1719,6.1719,6.1719,6.1719,6.1719,6.1719,6.1719,6.1719,6.1719,6.1719,6.1719,6.1719,6.1719,6.1719,6.1678,6.1583,6.1521,6.1409,6.1226,6.1018,6.0866,6.0821,6.0781,6.0781,6.0781,6.0781,6.0781,6.0781,6.0781,6.0781,6.0781,6.0781,6.0781,6.0781,6.0781,6.0781,6.0781,6.0781,6.0781,6.0781,6.0781,6.0556,6.0127,5.9319,5.8511,5.7627,5.6786,5.6093,5.578,5.5708,5.5708,5.5708,5.567,5.5555,5.5131,5.4703,5.4434,5.4318,5.3236,5.3467,5.3659,5.3274,5.3005,5.3395,5.3044,5.2279,5.19,5.1395,5.1318,5.1164,5.0899,5.0707,5.0707,5.0707,5.0707,5.0707,5.0707,5.0707,5.0707,5.0784,5.0784,5.0861,5.0822,5.1053,5.1774,5.262,5.3472,5.4203,5.5088,5.567,5.567,5.5708,5.5708,5.5708,5.5708,5.5708,5.5708,5.5708,5.5708,5.5708,5.5785,5.6093,5.6516,5.6824,5.744,5.8473,5.9242,5.9627,6.0033,6.0447,6.0671,6.1719,6.1719,6.1719,6.1719,6.1719,6.1719,6.1719,6.1719,6.1719,6.1719,6.1719,6.1719,6.1719,6.1719,6.1719,6.1719,6.1719,6.1719,6.168,6.168,6.1601,6.1514,6.1406,6.1175,6.0977,6.0839,6.0804,6.0787,6.0781,6.0781,6.0781,6.0781,6.0781,6.0781,6.0781,6.0781,6.0781,6.0781,6.0781,6.0781,6.0781,6.0781,6.0781,6.0781,6.0781,6.0787,6.0512,5.9858,5.9088,5.8319,5.7478,5.6593,5.5939,5.5708,5.5708,5.5708,5.5708,5.5631,5.5516,5.5131,5.5011,5.5588,5.4318,5.4203,5.4857,5.4357,5.4049,5.4087,5.3933,5.328,5.3164,5.2313,5.189,5.1736,5.1241,5.0899,5.0745,5.0784,5.0933,5.0707,5.0707,5.0745,5.0933,5.1087,5.1048,5.1015,5.1053,5.1323,5.212,5.2736,5.3626,5.4318,5.5088,5.5555,5.5631,5.5708,5.5708,5.5708,5.5708,5.5708,5.5708,5.5708,5.5708,5.5785,5.5939,5.6285,5.6747,5.7209,5.7978,5.9088,5.9511,5.9665,6.0089,6.0633,6.0748,6.1719,6.1719,6.1719,6.1719,6.1719,6.1719,6.1719,6.1719,6.1719,6.1719,6.1719,6.1719,6.1719,6.1719,6.1719,6.1719,6.1719,6.1719,6.1719,6.1719,6.168,6.159,6.1501,6.1349,6.1154,6.0977,6.0871,6.0821,6.0787,6.0781,6.0781,6.0781,6.0781,6.0781,6.0781,6.0781,6.0781,6.0781,6.0781,6.0781,6.0781,6.0781,6.0781,6.0781,6.0781,6.0781,6.0627,5.9973,5.9127,5.8319,5.7473,5.6632,5.5978,5.5747,5.5708,5.5708,5.5708,5.5708,5.5631,5.5593,5.5555,5.5478,5.4824,5.467,5.5208,5.4934,5.4747,5.4934,5.4703,5.401,5.3236,5.2697,5.2077,5.1885,5.1808,5.1428,5.1087,5.1241,5.1395,5.0971,5.0894,5.0861,5.1048,5.1318,5.1582,5.1818,5.2087,5.2549,5.3356,5.3621,5.3895,5.4434,5.4939,5.5324,5.5555,5.5631,5.5708,5.5708,5.5708,5.5708,5.5708,5.5708,5.5747,5.5785,5.6132,5.6555,5.7055,5.744,5.8088,5.8819,5.9204,5.9511,6.0089,6.0589,6.0742,6.1719,6.1719,6.1719,6.1719,6.1719,6.1719,6.1719,6.1719,6.1719,6.1719,6.1719,6.1719,6.1719,6.1719,6.1719,6.1719,6.1719,6.1719,6.1719,6.1719,6.168,6.1679,6.1582,6.1441,6.1326,6.1158,6.0986,6.0834,6.0798,6.0781,6.0781,6.0781,6.0781,6.0781,6.0781,6.0781,6.0781,6.0781,6.0781,6.0781,6.0781,6.0781,6.0781,6.0781,6.0781,6.0781,6.071,6.0473,5.9781,5.8973,5.8127,5.728,5.6516,5.5978,5.5708,5.5708,5.5708,5.5708,5.5708,5.5708,5.5708,5.567,5.5285,5.5324,5.5516,5.5401,5.5285,5.5439,5.5516,5.4977,5.4587,5.3659,5.3121,5.2659,5.2582,5.2159,5.1774,5.2159,5.1928,5.1433,5.1087,5.1015,5.1048,5.1433,5.2005,5.2505,5.3005,5.3703,5.4511,5.4357,5.4241,5.4703,5.5131,5.5362,5.5593,5.5631,5.5708,5.5708,5.5708,5.5708,5.5708,5.5708,5.5708,5.5708,5.617,5.6709,5.6747,5.6978,5.7786,5.8511,5.8819,5.9242,6.0012,6.0512,6.0704,6.1719,6.1719,6.1719,6.1719,6.1719,6.1719,6.1719,6.1719,6.1719,6.1719,6.1719,6.1719,6.1719,6.1719,6.1719,6.1719,6.1719,6.1719,6.1719,6.1719,6.1719,6.1719,6.164,6.1574,6.1404,6.1253,6.1073,6.0911,6.0794,6.0781,6.0781,6.0781,6.0781,6.0781,6.0781,6.0781,6.0781,6.0781,6.0781,6.0781,6.0781,6.0781,6.0781,6.0781,6.0781,6.0781,6.0787,6.0704,6.0242,5.9511,5.8819,5.805,5.7093,5.6362,5.5901,5.5747,5.5708,5.5708,5.5708,5.5708,5.5708,5.567,5.5708,5.5708,5.567,5.5631,5.567,5.5708,5.567,5.5631,5.5362,5.4895,5.4203,5.3703,5.3428,5.3236,5.2736,5.2736,5.289,5.2318,5.1587,5.1476,5.1779,5.2472,5.3197,5.3697,5.4203,5.4318,5.4934,5.4549,5.4549,5.5016,5.5401,5.5555,5.567,5.567,5.5708,5.5708,5.5708,5.5708,5.5708,5.5708,5.5708,5.5747,5.617,5.6593,5.656,5.6786,5.7742,5.8396,5.855,5.8973,5.9742,6.0396,6.0742,6.1719,6.1719,6.1719,6.1719,6.1719,6.1719,6.1719,6.1719,6.1719,6.1719,6.1719,6.1719,6.1719,6.1719,6.1719,6.1719,6.1719,6.1719,6.1719,6.1719,6.1719,6.1719,6.168,6.1562,6.1432,6.1326,6.1147,6.0949,6.0867,6.0844,6.0781,6.0781,6.0781,6.0781,6.0781,6.0781,6.0781,6.0781,6.0781,6.0781,6.0781,6.0781,6.0781,6.0781,6.0781,6.0781,6.0781,6.0781,6.0396,5.9704,5.9435,5.855,5.7324,5.694,5.6401,5.5939,5.5708,5.5708,5.5708,5.5708,5.5708,5.5708,5.5708,5.5708,5.5708,5.5708,5.5708,5.5708,5.5708,5.5708,5.5593,5.5016,5.4549,5.4395,5.4241,5.3857,5.3428,5.3741,5.3857,5.3549,5.2895,5.2818,5.2972,5.3741,5.4472,5.4934,5.5324,5.5362,5.5324,5.4972,5.4741,5.5208,5.5478,5.5631,5.5708,5.5708,5.5708,5.5708,5.5708,5.5708,5.5747,5.5785,5.5742,5.5901,5.6324,5.667,5.6791,5.7247,5.7934,5.8429,5.8858,5.9165,5.9473,6.0089,6.0781,6.1719,6.1719,6.1719,6.1719,6.1719,6.1719,6.1719,6.1719,6.1719,6.1719,6.1719,6.1719,6.1719,6.1719,6.1719,6.1719,6.1719,6.1719,6.1719,6.1719,6.1719,6.1719,6.168,6.1635,6.1526,6.1406,6.1305,6.1259,6.1087,6.0904,6.0781,6.0798,6.0781,6.0781,6.0781,6.0781,6.0781,6.0781,6.0781,6.0781,6.0781,6.0781,6.0781,6.0781,6.0781,6.0781,6.0781,6.0781,6.0671,6.0127,5.9858,5.9242,5.8473,5.7973,5.7357,5.6555,5.6439,5.6209,5.5785,5.5708,5.5708,5.5708,5.5708,5.5708,5.5708,5.5708,5.5708,5.5708,5.5708,5.5708,5.5708,5.5401,5.4977,5.478,5.4895,5.4587,5.4357,5.4818,5.4934,5.4587,5.4241,5.4126,5.401,5.428,5.4703,5.4895,5.5324,5.5516,5.5555,5.5439,5.5318,5.5318,5.5555,5.567,5.5708,5.5708,5.5708,5.5708,5.5708,5.5747,5.5862,5.5901,5.5901,5.6319,5.6934,5.717,5.7176,5.7671,5.8352,5.8813,5.9236,5.9588,5.9935,6.0242,6.0781,6.1719,6.1719,6.1719,6.1719,6.1719,6.1719,6.1719,6.1719,6.1719,6.1719,6.1719,6.1719,6.1719,6.1719,6.1719,6.1719,6.1719,6.1719,6.1719,6.1719,6.1719,6.1719,6.1719,6.168,6.1631,6.1505,6.1446,6.138,6.1234,6.1074,6.0948,6.0861,6.0821,6.0793,6.0781,6.0781,6.0781,6.0781,6.0781,6.0781,6.0781,6.0781,6.0781,6.0781,6.0781,6.0781,6.0781,6.0781,6.0787,6.0627,6.0242,5.9781,5.9281,5.8819,5.8204,5.744,5.7132,5.667,5.6209,5.5939,5.5747,5.5708,5.5708,5.5708,5.5708,5.5708,5.5708,5.5708,5.5708,5.5708,5.5708,5.567,5.5401,5.5247,5.5324,5.5131,5.5016,5.5285,5.5439,5.5203,5.4972,5.5054,5.4939,5.4818,5.4895,5.4934,5.5247,5.5631,5.567,5.567,5.5631,5.5511,5.5593,5.5708,5.5708,5.5708,5.5708,5.5708,5.5708,5.5747,5.5901,5.6055,5.617,5.6709,5.7473,5.7665,5.7703,5.8242,5.8775,5.9198,5.9627,6.0089,6.0473,6.0704,6.0781,6.1719,6.1719,6.168,6.168,6.1719,6.1719,6.1719,6.1719,6.1719,6.1719,6.1719,6.1719,6.1719,6.1719,6.1719,6.1719,6.1719,6.1719,6.1719,6.1719,6.1719,6.1719,6.1719,6.168,6.1635,6.1522,6.1519,6.1432,6.1328,6.1286,6.1135,6.1027,6.0879,6.0811,6.0781,6.0781,6.0781,6.0781,6.0781,6.0781,6.0781,6.0781,6.0781,6.0781,6.0781,6.0781,6.0781,6.0781,6.0781,6.0781,6.0627,6.0287,5.9781,5.955,5.9011,5.8319,5.7703,5.7286,5.6901,5.6285,5.5818,5.5747,5.5708,5.5708,5.5708,5.5708,5.5708,5.5708,5.5708,5.5708,5.5708,5.567,5.5555,5.5555,5.5516,5.5478,5.5401,5.5478,5.5631,5.5631,5.5593,5.5516,5.5478,5.5285,5.5241,5.5285,5.5324,5.5708,5.5708,5.567,5.5708,5.5631,5.567,5.5708,5.5708,5.5708,5.5708,5.5708,5.5708,5.5785,5.5901,5.6132,5.6747,5.7247,5.7973,5.8088,5.8352,5.9011,5.9473,5.9627,5.9973,6.0396,6.0627,6.0742,6.0781,6.043,6.0898,6.0898,6.1211,6.1719,6.1719,6.1719,6.1719,6.1719,6.1719,6.1719,6.1719,6.1719,6.1719,6.1719,6.1719,6.1719,6.1719,6.1719,6.1719,6.1719,6.1719,6.1719,6.168,6.1678,6.164,6.1601,6.1601,6.1572,6.148,6.1398,6.125,6.1048,6.0897,6.0823,6.0793,6.0781,6.0781,6.0781,6.0781,6.0781,6.0781,6.0781,6.0781,6.0781,6.0781,6.0781,6.0781,6.0781,6.0781,6.0781,6.055,6.0281,6.0242,5.9819,5.9165,5.8588,5.8204,5.7703,5.7055,5.6516,5.6362,5.6055,5.5708,5.5708,5.5708,5.5708,5.5708,5.5708,5.5708,5.5708,5.5708,5.567,5.5708,5.5708,5.5708,5.5708,5.5708,5.5708,5.567,5.567,5.5631,5.567,5.5631,5.5631,5.567,5.567,5.5708,5.5708,5.5708,5.5708,5.5708,5.5708,5.5708,5.5708,5.5708,5.5708,5.5747,5.5785,5.6093,5.6401,5.7242,5.7819,5.8204,5.8594,5.9011,5.9435,5.9896,6.005,5.9973,6.0204,6.0666,6.0781,6.0781,6.0781,5.9531,6.0078,6.0312,6.0898,6.168,6.1719,6.1719,6.1719,6.1719,6.1719,6.1719,6.1719,6.1719,6.1719,6.1719,6.1719,6.1719,6.1719,6.1719,6.1719,6.1719,6.1719,6.1719,6.1719,6.168,6.1719,6.1719,6.168,6.168,6.1601,6.1519,6.1421,6.127,6.1093,6.0897,6.0821,6.0787,6.0781,6.0781,6.0781,6.0781,6.0781,6.0781,6.0781,6.0781,6.0781,6.0781,6.0781,6.0781,6.0781,6.0781,6.0781,6.0781,6.0704,6.0435,6.005,5.9588,5.9242,5.8627,5.7934,5.7132,5.6439,5.6401,5.6016,5.5785,5.5708,5.5708,5.5708,5.5708,5.5708,5.5708,5.5708,5.5708,5.5708,5.5708,5.5708,5.5708,5.5708,5.5708,5.5708,5.5708,5.5708,5.5708,5.5708,5.5708,5.5708,5.5708,5.5708,5.5708,5.5708,5.5708,5.5708,5.5708,5.5708,5.5708,5.5708,5.5785,5.6362,5.6439,5.6786,5.7247,5.8011,5.855,5.8819,5.9281,5.9979,6.0287,6.0396,6.0281,6.0089,6.0435,6.0781,6.0781,6.0781,6.0781,5.914,5.9297,6.0,6.082,6.1562,6.1719,6.168,6.1601,6.168,6.1719,6.1719,6.1719,6.1719,6.1719,6.1719,6.1719,6.1719,6.1719,6.1719,6.1719,6.1719,6.1719,6.1719,6.1719,6.1719,6.1719,6.1719,6.1719,6.1719,6.168,6.1601,6.1564,6.143,6.1262,6.1001,6.0855,6.0798,6.0781,6.0781,6.0781,6.0781,6.0781,6.0781,6.0781,6.0781,6.0781,6.0781,6.0781,6.0781,6.0781,6.0781,6.0781,6.0781,6.0781,6.0704,6.0627,5.9973,5.9588,5.9358,5.866,5.778,5.667,5.6747,5.6324,5.5901,5.5747,5.5708,5.5708,5.5708,5.5708,5.5708,5.5708,5.5708,5.5708,5.5708,5.5708,5.5708,5.5708,5.5708,5.5708,5.5708,5.5708,5.5708,5.5708,5.5708,5.5708,5.5708,5.5708,5.5708,5.5708,5.5708,5.5708,5.5708,5.5708,5.5708,5.5708,5.5901,5.6555,5.7016,5.7286,5.7747,5.8396,5.8896,5.9319,5.9742,6.0242,6.0512,6.0742,6.055,6.0396,6.055,6.0781,6.0781,6.0781,6.0781,5.7812,5.8359,5.8633,5.9531,6.082,6.1484,6.1406,6.1015,6.1406,6.1719,6.1719,6.1719,6.1719,6.1719,6.1719,6.1719,6.1719,6.1719,6.1719,6.1719,6.1719,6.1719,6.1719,6.1719,6.1719,6.1719,6.1719,6.1719,6.1719,6.1719,6.168,6.1633,6.1521,6.1305,6.1101,6.0959,6.0895,6.0821,6.0781,6.0781,6.0781,6.0781,6.0781,6.0781,6.0781,6.0781,6.0781,6.0781,6.0781,6.0781,6.0781,6.0781,6.0781,6.0781,6.0781,6.0781,6.0358,6.005,5.9896,5.9511,5.9473,5.828,5.7055,5.667,5.6439,5.5978,5.5785,5.5708,5.5708,5.5708,5.5708,5.5708,5.5708,5.5708,5.5708,5.5708,5.5708,5.5708,5.5708,5.5708,5.5708,5.5785,5.5824,5.5708,5.5708,5.5708,5.5708,5.5708,5.5708,5.5708,5.5708,5.5708,5.5708,5.5708,5.5708,5.5901,5.6401,5.7132,5.7478,5.7632,5.8171,5.8973,5.9473,6.005,6.0242,6.0473,6.0666,6.0781,6.0781,6.0781,6.0781,6.0781,6.0781,6.0781,6.0781,5.6953,5.7461,5.7773,5.8515,5.9648,6.0742,6.0898,6.0586,6.1289,6.1562,6.1328,6.1523,6.1719,6.1719,6.1719,6.1719,6.1719,6.1719,6.1719,6.1719,6.1719,6.1719,6.1719,6.1719,6.1719,6.1719,6.1719,6.1719,6.1719,6.1719,6.1719,6.168,6.1601,6.1446,6.1238,6.1112,6.0963,6.0882,6.0861,6.0781,6.0781,6.0781,6.0781,6.0781,6.0781,6.0781,6.0781,6.0781,6.0781,6.0781,6.0781,6.0781,6.0781,6.0781,6.0781,6.0781,6.0742,6.0473,6.0319,5.9896,5.9819,5.9781,5.7973,5.7132,5.7016,5.6483,5.6055,5.5862,5.5747,5.5747,5.5747,5.5747,5.5785,5.5824,5.5862,5.5862,5.5824,5.5824,5.5939,5.5939,5.6357,5.6324,5.6055,5.5785,5.5708,5.5708,5.5708,5.5708,5.5708,5.5708,5.5708,5.5708,5.5824,5.5939,5.6093,5.6324,5.6901,5.7709,5.8055,5.8248,5.9132,5.9973,6.0358,6.0627,6.0627,6.0627,6.0704,6.0781,6.0781,6.0781,6.0781,6.0781,6.0781,6.0781,6.0781,5.6601,5.6719,5.75,5.789,5.8203,5.9726,6.0351,6.0469,6.1211,6.1094,6.0469,6.1289,6.1601,6.168,6.1719,6.1719,6.1719,6.1719,6.1719,6.1719,6.1719,6.1719,6.1719,6.1719,6.1719,6.1719,6.1719,6.1719,6.1719,6.1719,6.1719,6.1719,6.168,6.1562,6.1426,6.1244,6.1074,6.1036,6.0895,6.0839,6.0856,6.081,6.0793,6.0781,6.0781,6.0781,6.0781,6.0781,6.0781,6.0781,6.0781,6.0781,6.0781,6.0781,6.0781,6.0781,6.0781,6.0704,6.055,6.0127,5.9973,6.0089,5.9511,5.8511,5.7671,5.7099,5.6516,5.6093,5.5862,5.5862,5.5824,5.5939,5.6016,5.6055,5.6132,5.6132,5.6055,5.6132,5.6285,5.6632,5.7396,5.7434,5.6824,5.6401,5.6209,5.6093,5.6093,5.5862,5.5824,5.5708,5.5708,5.5747,5.5939,5.6247,5.6483,5.6824,5.7594,5.8478,5.8896,5.9242,6.0127,6.0627,6.0666,6.0704,6.0742,6.0781,6.0781,6.0781,6.0781,6.0781,6.0781,6.0781,6.0781,6.0781,6.0781,5.6601,5.664,5.6875,5.7344,5.8008,5.9101,5.9844,6.0351,6.0156,6.0,6.039,6.0664,6.1172,6.164,6.1719,6.1719,6.1719,6.1719,6.1719,6.1719,6.1719,6.1719,6.1719,6.1719,6.1719,6.1719,6.1719,6.1719,6.1719,6.1719,6.1719,6.1719,6.1719,6.168,6.1601,6.1446,6.131,6.1207,6.1031,6.0944,6.089,6.0872,6.0811,6.0793,6.0781,6.0781,6.0781,6.0781,6.0781,6.0781,6.0781,6.0781,6.0781,6.0781,6.0781,6.0781,6.0781,6.0781,6.0627,5.9973,5.9665,5.9742,5.9165,5.9088,5.8363,5.7747,5.7016,5.6516,5.6093,5.6055,5.617,5.6285,5.6555,5.6786,5.6857,5.6973,5.6896,5.694,5.7093,5.7478,5.8242,5.7896,5.7286,5.7247,5.7055,5.6786,5.6555,5.6324,5.5978,5.5862,5.5708,5.5747,5.6209,5.6593,5.7093,5.744,5.8319,5.9165,5.955,5.9896,6.0396,6.0742,6.0781,6.0781,6.0781,6.0781,6.0781,6.0781,6.0781,6.0781,6.0781,6.0781,6.0781,6.0781,6.0781,5.6601,5.6601,5.6601,5.7109,5.7969,5.8828,5.9336,5.9414,5.9258,5.9531,5.9922,6.0273,6.0898,6.1601,6.1719,6.1719,6.1719,6.1719,6.1719,6.1719,6.1719,6.1719,6.1719,6.1719,6.1719,6.1719,6.1719,6.1719,6.1719,6.1719,6.1719,6.1719,6.1719,6.1719,6.168,6.1587,6.1527,6.1409,6.1286,6.1124,6.1018,6.093,6.086,6.081,6.0798,6.0781,6.0781,6.0781,6.0781,6.0781,6.0781,6.0781,6.0781,6.0781,6.0781,6.0781,6.0781,6.0781,6.0666,6.0012,5.9627,5.9319,5.8781,5.8858,5.8781,5.8319,5.7594,5.694,5.6555,5.6324,5.656,5.6791,5.7209,5.7627,5.7819,5.7973,5.7934,5.7901,5.8132,5.8401,5.8363,5.8055,5.7901,5.794,5.7896,5.7627,5.7473,5.7396,5.6786,5.617,5.5901,5.5708,5.6401,5.7055,5.7555,5.8209,5.905,5.9742,6.0089,6.0435,6.0742,6.0781,6.0781,6.0781,6.0781,6.0781,6.0781,6.0781,6.0781,6.0781,6.0781,6.0781,6.0781,6.0781,6.0781,5.6601,5.6601,5.6601,5.7109,5.793,5.8633,5.8555,5.8008,5.8594,5.9023,5.9219,5.9844,6.0547,6.125,6.1406,6.1562,6.164,6.1719,6.1719,6.1719,6.1719,6.1719,6.1719,6.1719,6.1719,6.1719,6.1719,6.1719,6.1719,6.1719,6.1719,6.1719,6.1719,6.1719,6.168,6.168,6.164,6.1587,6.1435,6.127,6.1104,6.1023,6.094,6.085,6.0816,6.0781,6.0781,6.0781,6.0781,6.0781,6.0781,6.0781,6.0781,6.0781,6.0781,6.0781,6.0781,6.0781,6.0589,6.0012,5.9627,5.9281,5.8819,5.8775,5.8627,5.8511,5.7857,5.7747,5.7478,5.7324,5.744,5.7747,5.8094,5.855,5.8858,5.8819,5.8627,5.8627,5.8742,5.9017,5.8979,5.8709,5.8742,5.8819,5.8781,5.8511,5.8357,5.8319,5.778,5.6896,5.6593,5.6285,5.7126,5.7973,5.8396,5.905,5.9781,6.0358,6.0589,6.0666,6.0781,6.0781,6.0781,6.0781,6.0781,6.0781,6.0781,6.0781,6.0781,6.0781,6.0781,6.0781,6.0781,6.0781,6.0781,5.6601,5.6601,5.6601,5.7109,5.7773,5.7422,5.7539,5.7812,5.7344,5.7656,5.8164,5.8515,5.9375,6.0586,6.0742,6.0976,6.1523,6.1523,6.168,6.1719,6.1719,6.1719,6.1719,6.1719,6.1719,6.1719,6.1719,6.1719,6.1719,6.1719,6.1719,6.1719,6.1719,6.1719,6.1719,6.1719,6.1719,6.168,6.1601,6.1484,6.1348,6.1122,6.0991,6.0915,6.0887,6.0804,6.0781,6.0781,6.0781,6.0781,6.0781,6.0781,6.0781,6.0781,6.0781,6.0781,6.0781,6.0781,6.055,6.005,5.9588,5.9281,5.8858,5.8588,5.8434,5.8352,5.8352,5.8434,5.8473,5.8357,5.8242,5.8555,5.894,5.9402,5.9863,5.955,5.9281,5.9358,5.9435,5.9473,5.9556,5.955,5.955,5.955,5.9588,5.9473,5.9281,5.9088,5.8627,5.8011,5.805,5.7934,5.8434,5.9088,5.9313,5.9665,6.0281,6.055,6.0704,6.0742,6.0781,6.0781,6.0781,6.0781,6.0781,6.0781,6.0781,6.0781,6.0781,6.0781,6.0781,6.0781,6.0781,6.0781,6.0781,5.6601,5.6601,5.6601,5.6875,5.7265,5.7187,5.7265,5.7265,5.7187,5.7187,5.7383,5.7773,5.8633,5.9765,5.9883,6.0351,6.1015,6.1094,6.1367,6.1562,6.1719,6.1719,6.1719,6.1719,6.1719,6.1719,6.1719,6.1719,6.1719,6.1719,6.1719,6.1719,6.1719,6.1719,6.1719,6.1719,6.1719,6.1719,6.1719,6.164,6.1562,6.1308,6.1093,6.0988,6.0908,6.0833,6.0781,6.0781,6.0781,6.0781,6.0781,6.0781,6.0781,6.0781,6.0781,6.0781,6.0781,6.0781,6.055,6.0165,5.9588,5.9319,5.8819,5.8467,5.8973,5.889,5.8242,5.8357,5.8934,5.8896,5.8286,5.8325,5.9017,5.955,6.0127,6.0242,6.0127,6.0127,6.0165,6.0127,6.0089,5.9858,5.9819,5.9665,5.9781,6.0242,6.0089,6.0012,5.9511,5.9088,5.9165,5.9281,5.955,5.955,5.9473,5.9935,6.0589,6.0781,6.0781,6.0781,6.0781,6.0781,6.0781,6.0781,6.0781,6.0781,6.0781,6.0781,6.0781,6.0781,6.0781,6.0781,6.0781,6.0781,6.0781,5.6601,5.6601,5.6601,5.6601,5.6719,5.7383,5.7305,5.6836,5.7344,5.7265,5.6797,5.7383,5.8203,5.8789,5.9062,5.9726,6.0234,6.0586,6.1015,6.1523,6.168,6.1719,6.1719,6.1719,6.1719,6.1719,6.1719,6.1719,6.1719,6.1719,6.1719,6.1719,6.1719,6.1719,6.1719,6.1719,6.1719,6.1719,6.1719,6.1719,6.1601,6.1439,6.1235,6.1056,6.0938,6.085,6.0804,6.0781,6.0781,6.0781,6.0781,6.0781,6.0781,6.0781,6.0781,6.0781,6.0781,6.0781,6.0666,6.0242,5.9896,5.955,5.889,5.889,5.9473,5.9281,5.8671,5.855,5.9127,5.9358,5.8748,5.8632,5.9358,5.9819,6.0396,6.0781,6.0742,6.071,6.0704,6.0666,6.0473,6.0204,6.0089,5.9935,6.0165,6.0627,6.0781,6.0781,6.0627,6.0242,6.005,6.0012,6.005,5.9973,5.9781,6.0127,6.0781,6.0781,6.0781,6.0781,6.0781,6.0781,6.0781,6.0781,6.0781,6.0781,6.0781,6.0781,6.0781,6.0781,6.0781,6.0781,6.0781,6.0781,6.0781,5.6601,5.6601,5.6601,5.6601,5.664,5.6797,5.6758,5.664,5.6758,5.6719,5.668,5.6758,5.7344,5.8164,5.8125,5.875,5.9883,6.0117,6.0859,6.1601,6.1523,6.1601,6.1719,6.1719,6.1719,6.1719,6.1719,6.1719,6.1719,6.1719,6.1719,6.1719,6.1719,6.1719,6.1719,6.1719,6.1719,6.1719,6.1719,6.1719,6.168,6.1525,6.1398,6.1246,6.1056,6.092,6.0828,6.0793,6.0781,6.0781,6.0781,6.0781,6.0781,6.0781,6.0781,6.0781,6.0781,6.0781,6.0627,6.0512,6.0319,6.0319,5.9858,5.9781,6.0127,6.0204,5.9556,5.8858,5.9396,6.0127,5.9902,5.9979,6.0435,6.0435,6.0781,6.0781,6.0781,6.0781,6.0742,6.0742,6.0666,6.0589,6.055,6.0473,6.0473,6.0781,6.0781,6.0781,6.0781,6.0781,6.0781,6.0666,6.0512,6.0627,6.055,6.0435,6.0781,6.0781,6.0781,6.0781,6.0781,6.0781,6.0781,6.0781,6.0781,6.0781,6.0781,6.0781,6.0781,6.0781,6.0781,6.0781,6.0781,6.0781,6.0781]}]]